[[{"header":{"parameterUnit":"m.s-1","parameterCategory":1,"la1":31.0,"la2":29.5877,"lo1":-88.7671,"lo2":-86.6584,"dy":0.0162,"dx":0.0185,"nx":115,"ny":88,"refTime":"2024-08-07T06:00:00:Z","depth":0,"parameterNumber":2,"parameterNumberName":"U-component_of_WINDS"},"data":[0.0,0.0,0.0,0.0,0.0,0.0,0.0,0.0,0.0,0.0,0.0,0.0,0.0,0.0,0.0,0.0,0.0,0.0,0.0,0.0,0.0,0.0,0.0,0.0,0.0,0.0,0.0,0.0,0.0,0.0,0.0,0.0,0.0,0.0,0.0,0.0,0.0,0.0,0.0,0.0,0.0,0.0,0.0,0.0,0.0,0.0,0.0,0.0,0.0,0.0,0.0,0.0,0.0,0.0,0.0,0.0,0.0,0.0,0.0,0.0,0.0,0.0,0.0,0.0,0.0,0.0,0.0,0.0,0.0,0.0,0.0,0.0,0.0,0.0,0.0,0.0,0.0,0.0,0.0,0.0,0.0,0.0,0.0,0.0,0.0,0.0,0.0,0.0,0.0,0.0,0.0,0.0,0.0,0.0,0.0,0.0,0.0,0.0,0.0,0.0,0.0,0.0,0.0,0.0,0.0,0.0,0.0,0.0,0.0,0.0,0.0,0.0,0.0,0.0,0.0,0.0,0.0,0.0,0.0,0.0,0.0,0.0,0.0,0.0,0.0,0.0,0.0,0.0,0.0,0.0,0.0,0.0,0.0,0.0,0.0,0.0,0.0,0.0,0.0,0.0,0.0,0.0,0.0,0.0,0.0,0.0,0.0,0.0,0.0,0.0,0.0,0.0,0.0,0.0,0.0,0.0,0.0,0.0,0.0,0.0,0.0,0.0,0.0,0.0,0.0,0.0,0.0,0.0,0.0,0.0,0.0,0.0,0.0,0.0,0.0,0.0,0.0,0.0,0.0,0.0,0.0,0.0,0.0,0.0,0.0,0.0,0.0,0.0,0.0,0.0,0.0,0.0,0.0,0.0,0.0,0.0,0.0,0.0,0.0,0.0,0.0,0.0,0.0,0.0,0.0,0.0,0.0,0.0,0.0,0.0,0.0,0.0,0.0,0.0,0.0,0.0,0.0,0.0,0.0,0.0,0.0,0.0,0.0,0.0,0.0,0.0,0.0,0.0,0.0,0.0,0.0,0.0,0.0,0.0,0.0,0.0,0.0,0.0,0.0,0.0,0.0,0.0,0.0,0.0,0.0,0.0,0.0,0.0,0.0,0.0,0.0,0.0,0.0,0.0,0.0,0.0,0.0,0.0,0.0,0.0,0.0,0.0,0.0,0.0,0.0,0.0,0.0,0.0,0.0,0.0,0.0,0.0,0.0,0.0,0.0,0.0,0.0,0.0,0.0,0.0,0.0,0.0,0.0,0.0,0.0,0.0,0.0,0.0,0.0,0.0,0.0,0.0,0.0,0.0,0.0,0.0,0.0,0.0,0.0,0.0,0.0,0.0,0.0,0.0,0.0,0.0,0.0,0.0,0.0,0.0,0.0,0.0,0.0,0.0,0.0,0.0,0.0,0.0,0.0,0.0,0.0,0.0,0.0,0.0,0.0,0.0,0.0,0.0,0.0,0.0,0.0,0.0,0.0,0.0,0.0,0.0,0.0,0.0,0.0,0.0,0.0,0.0,0.0,0.0,0.0,0.0,0.0,0.0,0.0,0.0,0.0,0.0,0.0,0.0,0.0,0.0,0.0,0.0,0.0,0.0,0.0,0.0,0.0,0.0,0.0,0.0,0.0,0.0,0.0,0.0,0.0,0.0,0.0,0.0,0.0,0.0,0.0,0.0,0.0,0.0,0.0,0.0,0.0,0.0,0.0,0.0,0.0,0.0,0.0,0.0,0.0,0.0,0.0,0.0,0.0,0.0,0.0,0.0,0.0,0.0,0.0,0.0,0.0,0.0,0.0,0.0,0.0,0.0,0.0,0.0,0.0,0.0,0.0,0.0,0.0,0.0,0.0,0.0,0.0,0.0,0.0,0.0,0.0,0.0,0.0,0.0,0.0,0.0,0.0,0.0,0.0,0.0,0.0,0.0,0.0,0.0,0.0,0.0,0.0,0.0,0.0,0.0,0.0,0.0,0.0,0.0,0.0,0.0,0.0,0.0,0.0,0.0,0.0,0.0,0.0,0.0,0.0,0.0,0.0,0.0,0.0,0.0,0.0,0.0,0.0,0.0,0.0,0.0,0.0,0.0,0.0,0.0,0.0,0.0,0.0,0.0,0.0,0.0,0.0,0.0,0.0,0.0,0.0,0.0,0.0,0.0,0.0,0.0,0.0,0.0,0.0,0.0,0.0,0.0,0.0,0.0,0.0,0.0,0.0,0.0,0.0,0.0,0.0,0.0,0.0,0.0,0.0,0.0,0.0,0.0,0.0,0.0,0.0,0.0,0.0,0.0,0.0,0.0,0.0,0.0,0.0,0.0,0.0,0.0,0.0,0.0,0.0,0.0,0.0,0.0,0.0,0.0,0.0,0.0,0.0,0.0,0.0,0.0,0.0,0.0,0.0,0.0,0.0,0.0,0.0,0.0,0.0,0.0,0.0,0.0,0.0,0.0,0.0,0.0,0.0,0.0,0.0,0.0,0.0,0.0,0.0,0.0,0.0,0.0,0.0,0.0,0.0,0.0,0.0,0.0,0.0,0.0,0.0,0.0,0.0,0.0,0.0,0.0,0.0,0.0,0.0,0.0,0.0,0.0,0.0,0.0,0.0,0.0,0.0,0.0,0.0,0.0,0.0,0.0,0.0,0.0,0.0,0.0,0.0,0.0,0.0,0.0,0.0,0.0,0.0,0.0,0.0,0.0,0.0,0.0,0.0,0.0,0.0,0.0,0.0,0.0,0.0,0.0,0.0,0.0,0.0,0.0,0.0,0.0,0.0,0.0,0.0,0.0,0.0,0.0,0.0,0.0,0.0,0.0,0.0,0.0,0.0,0.0,0.0,0.0,0.0,0.0,0.0,0.0,0.0,0.0,0.0,0.0,0.0,0.0,0.0,0.0,0.0,0.0,0.0,0.0,0.0,0.0,0.0,0.0,0.0,0.0,0.0,0.0,0.0,0.0,0.0,0.0,0.0,0.0,0.0,0.0,0.0,0.0,0.0,0.0,0.0,0.0,0.0,0.0,0.0,0.0,0.0,0.0,0.0,0.0,0.0,0.0,0.0,0.0,0.0,0.0,0.0,0.0,0.0,0.0,0.0,0.0,0.0,0.0,0.0,0.0,0.0,0.0,0.0,0.0,0.0,0.0,0.0,0.0,0.0,0.0,0.0,0.0,0.0,0.0,0.0,0.0,0.0,0.0,0.0,0.0,0.0,0.0,0.0,0.0,0.0,0.0,0.0,0.0,0.0,0.0,0.0,0.0,0.0,0.0,0.0,0.0,0.0,0.0,0.0,0.0,0.0,0.0,0.0,0.0,0.0,0.0,0.0,0.0,0.0,0.0,0.0,0.0,0.0,0.0,0.0,0.0,0.0,0.0,0.0,0.0,0.0,0.0,0.0,0.0,0.0,0.0,0.0,0.0,0.0,0.0,0.0,0.0,0.0,0.0,0.0,0.0,0.0,0.0,0.0,0.0,0.0,0.0,0.0,0.0,0.0,0.0,0.0,0.0,0.0,0.0,0.0,0.0,0.0,0.0,0.0,0.0,0.0,0.0,0.0,0.0,0.0,0.0,0.0,0.0,0.0,0.0,0.0,0.0,0.0,0.0,0.0,0.0,0.0,0.0,0.0,0.0,0.0,0.0,0.0,0.0,0.0,0.0,0.0,0.0,0.0,0.0,0.0,0.0,0.0,0.0,0.0,0.0,0.0,0.0,0.0,0.0,0.0,0.0,0.0,0.0,0.0,0.0,0.0,0.0,0.0,0.0,0.0,0.0,0.0,0.0,0.0,0.0,0.0,0.0,0.0,0.0,0.0,0.0,0.0,0.0,0.0,0.0,0.0,0.0,0.0,0.0,0.0,0.0,0.0,0.0,0.0,0.0,0.0,0.0,0.0,0.0,0.0,0.0,0.0,0.0,0.0,0.0,0.0,0.0,0.0,0.0,0.0,0.0,0.0,0.0,0.0,0.0,0.0,0.0,0.0,0.0,0.0,0.0,0.0,0.0,0.0,0.0,0.0,0.0,0.0,0.0,0.0,0.0,0.0,0.0,0.0,0.0,0.0,0.0,0.0,0.0,0.0,0.0,0.0,0.0,0.0,0.0,0.0,0.0,0.0,0.0,0.0,0.0,0.0,0.0,0.0,0.0,0.0,0.0,0.0,0.0,0.0,0.0,0.0,0.0,0.0,0.0,0.0,0.0,0.0,0.0,0.0,0.0,0.0,0.0,0.0,0.0,0.0,0.0,0.0,0.0,0.0,0.0,0.0,0.0,0.0,0.0,0.0,0.0,1.9386,0.0,0.0,0.0,0.0,0.0,0.0,0.0,0.0,0.0,0.0,0.0,0.0,0.0,0.0,0.0,0.0,0.0,0.0,0.0,0.0,0.0,0.0,0.0,0.0,0.0,0.0,0.0,0.0,0.0,0.0,0.0,0.0,0.0,0.0,0.0,0.0,0.0,0.0,0.0,0.0,0.0,0.0,0.0,0.0,0.0,0.0,0.0,0.0,0.0,0.0,0.0,0.0,0.0,0.0,0.0,0.0,0.0,0.0,0.0,0.0,0.0,0.0,0.0,0.0,0.0,0.0,0.0,0.0,0.0,0.0,0.0,0.0,0.0,0.0,0.0,0.0,0.0,0.0,0.0,0.0,0.0,0.0,0.0,0.0,0.0,0.0,0.0,0.0,0.0,0.0,0.0,0.0,0.0,0.0,0.0,0.0,0.0,0.0,0.0,0.0,0.0,0.0,0.0,0.0,0.0,0.0,0.0,0.0,0.0,0.0,2.1086,2.1244,2.124,2.0587,1.9195,0.0,0.0,0.0,0.0,0.0,0.0,0.0,0.0,0.0,0.0,0.0,0.0,0.0,0.0,0.0,0.0,0.0,0.0,0.0,0.0,0.0,0.0,0.0,0.0,0.0,0.0,0.0,0.0,0.0,0.0,0.0,0.0,0.0,0.0,0.0,0.0,0.0,0.0,0.0,0.0,0.0,0.0,0.0,0.0,0.0,0.0,0.0,0.0,0.0,0.0,0.0,0.0,0.0,0.0,0.0,0.0,0.0,0.0,0.0,0.0,0.0,0.0,0.0,0.0,0.0,0.0,0.0,0.0,0.0,0.0,0.0,0.0,0.0,0.0,0.0,0.0,0.0,0.0,0.0,0.0,0.0,0.0,0.0,0.0,0.0,0.0,0.0,0.0,0.0,0.0,0.0,0.0,0.0,0.0,0.0,0.0,0.0,0.0,0.0,0.0,0.0,0.0,0.0,0.0,0.0,0.0,0.0,0.0,0.0,0.0,0.0,0.0,2.1568,2.0607,1.8284,0.0,0.0,0.0,0.0,0.0,0.0,0.0,0.0,0.0,0.0,0.0,0.0,0.0,0.0,0.0,0.0,0.0,0.0,0.0,0.0,0.0,0.0,0.0,0.0,0.0,0.0,0.0,0.0,0.0,0.0,0.0,0.0,0.0,0.0,0.0,0.0,0.0,0.0,0.0,0.0,0.0,0.0,0.0,0.0,0.0,0.0,0.0,0.0,0.0,0.0,0.0,0.0,0.0,0.0,0.0,0.0,0.0,0.0,0.0,0.0,0.0,0.0,0.0,0.0,0.0,0.0,0.0,0.0,0.0,0.0,0.0,0.0,0.0,0.0,0.0,0.0,0.0,0.0,0.0,0.0,0.0,0.0,0.0,0.0,0.0,0.0,0.0,0.0,0.0,0.0,0.0,0.0,0.0,0.0,0.0,0.0,0.0,0.0,0.0,0.0,0.0,0.0,0.0,0.0,0.0,0.0,0.0,0.0,0.0,0.0,2.0558,2.2121,2.0721,0.0,1.6395,0.0,0.0,0.0,0.0,0.0,0.0,0.0,0.0,0.0,0.0,0.0,0.0,0.0,0.0,0.0,0.0,0.0,0.0,0.0,0.0,0.0,0.0,0.0,0.0,0.0,0.0,0.0,0.0,0.0,0.0,0.0,0.0,0.0,0.0,0.0,0.0,0.0,0.0,0.0,0.0,0.0,0.0,0.0,0.0,0.0,0.0,0.0,0.0,0.0,0.0,0.0,0.0,0.0,0.0,0.0,0.0,0.0,0.0,0.0,0.0,0.0,0.0,0.0,0.0,0.0,0.0,0.0,0.0,0.0,0.0,0.0,0.0,0.0,0.0,0.0,0.0,0.0,0.0,0.0,0.0,0.0,0.0,0.0,0.0,0.0,0.0,0.0,0.0,0.0,0.0,0.0,0.0,0.0,0.0,0.0,0.0,0.0,0.0,0.0,0.0,0.0,0.0,0.0,0.0,0.0,0.0,0.0,0.0,0.0,0.0,2.1242,2.1909,2.0474,1.9024,0.0,0.0,0.0,0.0,0.0,0.0,0.0,0.0,0.0,0.0,0.0,0.0,0.0,0.0,0.0,0.0,0.0,0.0,0.0,0.0,0.0,0.0,0.0,0.0,0.0,0.0,0.0,0.0,0.0,0.0,0.0,0.0,0.0,0.0,0.0,0.0,0.0,0.0,0.0,0.0,0.0,0.0,0.0,0.0,0.0,0.0,0.0,0.0,0.0,0.0,0.0,0.0,0.0,0.0,0.0,0.0,0.0,0.0,0.0,0.0,0.0,0.0,0.0,0.0,0.0,0.0,0.0,0.0,0.0,0.0,0.0,0.0,0.0,0.0,0.0,0.0,0.0,0.0,0.0,0.0,0.0,0.0,0.0,0.0,0.0,0.0,0.0,0.0,0.0,0.0,0.0,0.0,0.0,0.0,0.0,0.0,0.0,0.0,0.0,0.0,0.0,0.0,0.0,0.0,0.0,0.0,0.0,0.0,0.0,0.0,2.0887,0.0,2.2113,2.1089,1.9442,1.7233,0.0,0.0,0.0,0.0,0.0,0.0,0.0,0.0,0.0,0.0,0.0,0.0,0.0,0.0,0.0,0.0,0.0,0.0,0.0,0.0,0.0,0.0,0.0,0.0,0.0,0.0,0.0,0.0,0.0,0.0,0.0,0.0,0.0,0.0,0.0,0.0,0.0,0.0,0.0,0.0,0.0,0.0,0.0,0.0,0.0,0.0,0.0,0.0,0.0,0.0,0.0,0.0,0.0,0.0,0.0,0.0,0.0,0.0,0.0,0.0,0.0,0.0,0.0,0.0,0.0,0.0,0.0,0.0,0.0,0.0,0.0,0.0,0.0,0.0,0.0,0.0,0.0,0.0,0.0,0.0,0.0,0.0,0.0,0.0,0.0,0.0,0.0,0.0,0.0,0.0,0.0,0.0,0.0,0.0,0.0,0.0,0.0,0.0,0.0,0.0,0.0,0.0,0.0,0.0,0.0,0.0,0.0,0.0,0.0,2.1335,2.1635,2.3383,2.2716,1.9447,0.0,0.0,0.0,0.0,0.0,0.0,0.0,0.0,0.0,0.0,0.0,0.0,0.0,0.0,0.0,0.0,0.0,0.0,0.0,0.0,0.0,0.0,0.0,0.0,0.0,0.0,0.0,0.0,0.0,0.0,0.0,0.0,0.0,0.0,0.0,0.0,0.0,0.0,0.0,0.0,0.0,0.0,0.0,0.0,0.0,0.0,0.0,0.0,0.0,0.0,0.0,0.0,0.0,0.0,0.0,0.0,0.0,0.0,0.0,0.0,0.0,0.0,0.0,0.0,0.0,0.0,0.0,0.0,0.0,0.0,0.0,0.0,0.0,0.0,0.0,0.0,0.0,0.0,0.0,0.0,0.0,0.0,0.0,0.0,0.0,0.0,0.0,0.0,0.0,0.0,0.0,0.0,0.0,0.0,0.0,0.0,0.0,0.0,0.0,0.0,0.0,0.0,0.0,0.0,0.0,0.0,0.0,0.0,0.0,1.9415,2.0371,2.1741,2.3432,2.1125,1.8357,0.0,0.0,0.0,0.0,0.0,0.0,0.0,0.0,0.0,0.0,0.0,0.0,0.0,0.0,0.0,0.0,0.0,0.0,0.0,0.0,0.0,0.0,0.0,0.0,0.0,0.0,0.0,0.0,0.0,0.0,0.0,0.0,0.0,0.0,0.0,0.0,0.0,0.0,0.0,0.0,0.0,0.0,0.0,0.0,0.0,0.0,0.0,0.0,0.0,0.0,0.0,0.0,0.0,0.0,0.0,0.0,0.0,0.0,0.0,0.0,0.0,0.0,0.0,0.0,0.0,0.0,0.0,0.0,0.0,0.0,0.0,0.0,0.0,0.0,0.0,0.0,0.0,0.0,0.0,0.0,0.0,0.0,0.0,0.0,0.0,0.0,0.0,0.0,0.0,0.0,0.0,0.0,0.0,0.0,0.0,0.0,0.0,0.0,0.0,0.0,0.0,0.0,0.0,0.0,0.0,0.0,0.0,0.0,0.0,1.8411,0.0,2.214,0.0,2.0329,1.7733,0.0,0.0,0.0,0.0,0.0,0.0,0.0,0.0,0.0,0.0,0.0,0.0,0.0,0.0,0.0,0.0,0.0,0.0,0.0,0.0,0.0,0.0,0.0,0.0,0.0,0.0,0.0,0.0,0.0,0.0,0.0,0.0,0.0,0.0,0.0,0.0,0.0,0.0,0.0,0.0,0.0,0.0,0.0,0.0,0.0,0.0,0.0,0.0,0.0,0.0,0.0,0.0,0.0,0.0,0.0,0.0,0.0,0.0,0.0,0.0,0.0,0.0,0.0,0.0,0.0,0.0,0.0,0.0,0.0,0.0,0.0,0.0,0.0,0.0,0.0,0.0,0.0,0.0,0.0,0.0,0.0,0.0,0.0,0.0,0.0,0.0,0.0,0.0,0.0,0.0,0.0,0.0,0.0,0.0,0.0,0.0,0.0,0.0,0.0,0.0,0.0,0.0,0.0,0.0,0.0,0.0,0.0,0.0,1.6739,1.9792,2.2055,2.2848,2.2094,2.0475,1.7653,0.0,0.0,0.0,0.0,0.0,0.0,0.0,0.0,0.0,0.0,0.0,0.0,0.0,0.0,0.0,0.0,0.0,0.0,0.0,0.0,0.0,0.0,0.0,0.0,0.0,0.0,0.0,0.0,0.0,0.0,0.0,0.0,0.0,0.0,0.0,0.0,0.0,0.0,0.0,0.0,0.0,0.0,0.0,0.0,0.0,0.0,0.0,0.0,0.0,0.0,0.0,0.0,0.0,0.0,0.0,0.0,0.0,0.0,0.0,0.0,0.0,0.0,0.0,0.0,0.0,0.0,0.0,0.0,0.0,0.0,0.0,0.0,0.0,0.0,0.0,0.0,0.0,0.0,0.0,0.0,0.0,0.0,0.0,0.0,0.0,0.0,0.0,0.0,0.0,0.0,0.0,0.0,0.0,0.0,0.0,0.0,0.0,0.0,0.0,0.0,0.0,0.0,0.0,0.0,0.0,0.0,0.0,0.0,0.0,1.9123,2.0684,2.1509,2.1561,1.8907,1.5822,0.0,0.0,0.0,0.0,0.0,0.0,0.0,0.0,0.0,0.0,0.0,0.0,0.0,0.0,0.0,0.0,0.0,0.0,0.0,0.0,0.0,0.0,0.0,0.0,0.0,0.0,0.0,0.0,0.0,0.0,0.0,0.0,0.0,0.0,0.0,0.0,0.0,0.0,0.0,0.0,0.0,0.0,0.0,0.0,0.0,0.0,0.0,0.0,0.0,0.0,0.0,0.0,0.0,0.0,0.0,0.0,0.0,0.0,0.0,0.0,0.0,0.0,0.0,0.0,0.0,0.0,0.0,0.0,0.0,0.0,0.0,0.0,0.0,0.0,0.0,0.0,0.0,0.0,0.0,0.0,0.0,0.0,0.0,0.0,0.0,0.0,0.0,0.0,0.0,0.0,0.0,0.0,0.0,0.0,0.0,0.0,0.0,0.0,0.0,0.0,0.0,0.0,0.0,0.0,0.0,0.0,0.0,0.0,0.0,1.9416,2.0785,2.1703,2.2009,1.8802,1.5511,1.2358,0.0,0.0,0.0,0.0,0.0,0.0,0.0,0.0,0.0,0.0,0.0,0.0,0.0,0.0,0.0,0.0,0.0,0.0,0.0,0.0,0.0,0.0,0.0,0.0,0.0,0.0,0.0,0.0,0.0,0.0,0.0,0.0,0.0,0.0,0.0,0.0,0.0,0.0,0.0,0.0,0.0,0.0,0.0,0.0,0.0,0.0,0.0,0.0,0.0,0.0,0.0,0.0,0.0,0.0,0.0,0.0,0.0,0.0,0.0,0.0,0.0,0.0,0.0,0.0,0.0,0.0,0.0,0.0,0.0,0.0,0.0,0.0,0.0,0.0,0.0,0.0,0.0,0.0,0.0,0.0,0.0,0.0,0.0,0.0,0.0,0.0,0.0,0.0,0.0,0.0,0.0,0.0,0.0,0.0,0.0,0.0,0.0,0.0,0.0,0.0,0.0,0.0,0.0,0.0,0.0,0.0,0.0,0.0,2.0399,2.2124,2.3025,2.3058,1.978,1.6432,0.0,0.0,0.0,0.0,0.0,0.0,0.0,0.0,0.0,0.0,0.0,0.0,0.0,0.0,0.0,0.0,0.0,0.0,0.0,0.0,0.0,0.0,0.0,0.0,0.0,0.0,0.0,0.0,0.0,0.0,0.0,0.0,0.0,0.0,0.0,0.0,0.0,0.0,0.0,0.0,0.0,0.0,0.0,0.0,0.0,0.0,0.0,0.0,0.0,0.0,0.0,0.0,0.0,0.0,0.0,0.0,0.0,0.0,0.0,0.0,0.0,0.0,0.0,0.0,0.0,0.0,0.0,0.0,0.0,0.0,0.0,0.0,0.0,0.0,0.0,0.0,0.0,0.0,0.0,0.0,0.0,0.0,0.0,0.0,0.0,0.0,0.0,0.0,0.0,0.0,0.0,0.0,0.0,0.0,0.0,0.0,0.0,0.0,0.0,0.0,0.0,0.0,0.0,0.0,0.0,0.0,0.0,0.0,0.0,2.0529,2.1626,2.2465,2.2991,1.9499,1.6092,0.0,0.0,0.0,0.0,0.0,0.0,0.0,0.0,0.0,0.0,0.0,0.0,0.0,0.0,0.0,0.0,0.0,0.0,0.0,0.0,0.0,0.0,0.0,0.0,0.0,0.0,0.0,0.0,0.0,0.0,0.0,0.0,0.0,0.0,0.0,0.0,0.0,0.0,0.0,0.0,0.0,0.0,0.0,0.0,0.0,0.0,0.0,0.0,0.0,0.0,0.0,0.0,0.0,0.0,0.0,0.0,0.0,0.0,0.0,0.0,0.0,0.0,0.0,0.0,0.0,0.0,0.0,0.0,0.0,0.0,0.0,0.0,0.0,0.0,0.0,0.0,0.0,0.0,0.0,0.0,0.0,0.0,0.0,0.0,0.0,0.0,0.0,0.0,0.0,0.0,0.0,0.0,0.0,0.0,0.0,0.0,0.0,0.0,0.0,0.0,0.0,0.0,0.0,0.0,0.0,0.0,0.0,0.0,1.8991,2.0364,2.1149,2.2147,2.3213,1.9511,1.5776,0.0,0.0,0.0,0.0,0.0,0.0,0.0,0.0,0.0,0.0,0.0,0.0,0.0,0.0,0.0,0.0,0.0,0.0,0.0,0.0,0.0,0.0,0.0,0.0,0.0,0.0,0.0,0.0,0.0,0.0,0.0,0.0,0.0,0.0,0.0,0.0,0.0,0.0,0.0,0.0,0.0,0.0,0.0,0.0,0.0,0.0,0.0,0.0,0.0,0.0,0.0,0.0,0.0,0.0,0.0,0.0,0.0,0.0,0.0,0.0,0.0,0.0,0.0,0.0,0.0,0.0,0.0,0.0,0.0,0.0,0.0,0.0,0.0,0.0,0.0,0.0,0.0,0.0,0.0,0.0,0.0,0.0,0.0,0.0,0.0,0.0,0.0,0.0,0.0,0.0,0.0,0.0,0.0,0.0,0.0,0.0,0.0,0.0,0.0,0.0,0.0,0.0,0.0,0.0,0.0,0.0,0.0,0.0,1.8816,2.0033,2.0761,2.1892,2.3318,1.9663,1.5486,0.0,0.0,0.0,0.0,0.0,0.0,0.0,0.0,0.0,0.0,0.0,0.0,0.0,0.0,0.0,0.0,0.0,0.0,0.0,0.0,0.0,0.0,0.0,0.0,0.0,0.0,0.0,0.0,0.0,0.0,0.0,0.0,0.0,0.0,0.0,0.0,0.0,0.0,0.0,0.0,0.0,0.0,0.0,0.0,0.0,0.0,0.0,0.0,0.0,0.0,0.0,0.0,0.0,0.0,0.0,0.0,0.0,0.0,0.0,0.0,0.0,0.0,0.0,0.0,0.0,0.0,0.0,0.0,0.0,0.0,0.0,0.0,0.0,0.0,0.0,0.0,0.0,0.0,0.0,0.0,0.0,0.0,0.0,0.0,0.0,0.0,0.0,0.0,0.0,0.0,0.0,0.0,0.0,0.0,0.0,0.0,0.0,0.0,0.0,0.0,0.0,0.0,0.0,0.0,0.0,0.0,0.0,0.0,1.825,1.9589,2.0346,2.1631,2.3458,1.9193,1.5097,0.0,0.0,0.0,0.0,0.0,0.0,0.0,0.0,0.0,0.0,0.0,0.0,0.0,0.0,0.0,0.0,0.0,0.0,0.0,0.0,0.0,0.0,0.0,0.0,0.0,0.0,0.0,0.0,0.0,0.0,0.0,0.0,0.0,0.0,0.0,0.0,0.0,0.0,0.0,0.0,0.0,0.0,0.0,0.0,0.0,0.0,0.0,0.0,0.2982,0.0,0.0,0.0,0.0,0.0,0.0,0.0,0.0,0.0,0.0,0.0,0.0,0.0,0.0,0.0,0.0,0.0,0.0,0.0,0.0,0.0,0.0,0.0,0.0,0.0,0.0,0.0,0.0,0.0,0.0,0.0,0.0,0.0,0.0,0.0,0.0,0.0,0.0,0.0,0.0,0.0,0.0,0.0,0.0,0.0,0.0,0.0,0.0,0.0,0.0,0.0,0.0,0.0,0.0,0.0,0.0,0.0,0.0,0.0,1.7821,1.8784,1.9938,2.1084,2.1967,1.8448,1.4775,0.0,0.0,0.0,0.0,0.0,0.0,0.0,0.0,0.0,0.0,0.0,0.0,0.0,0.0,0.0,0.0,0.0,0.0,0.0,0.0,0.0,0.0,0.0,0.0,0.0,0.0,0.0,0.0,0.0,0.0,0.0,0.0,0.0,0.0,0.0,0.0,0.0,0.0,0.0,0.0,0.0,0.0,0.0,0.0,0.0,0.0,0.0,0.0,0.0,0.0,0.0,0.0,0.0,0.0,0.0,0.0,0.0,0.0,0.0,0.0,0.0,0.0,0.0,0.0,0.0,0.0,0.0,0.0,0.0,0.0,0.0,0.0,0.0,0.0,0.0,0.0,0.0,0.0,0.0,0.0,0.0,0.0,0.0,0.0,0.0,0.0,0.0,0.0,0.0,0.0,0.0,0.0,0.0,0.0,0.0,0.0,0.0,0.0,0.0,0.0,0.0,0.0,0.0,0.0,0.0,0.0,0.0,1.6109,1.7552,1.8027,1.9563,2.0483,2.0547,1.7836,1.4482,1.0758,0.0,0.0,0.0,0.0,0.0,0.0,0.0,0.0,0.0,0.0,0.0,0.0,0.0,0.0,0.0,0.0,0.0,0.0,0.0,0.0,0.0,0.0,0.0,0.0,0.0,0.0,0.0,0.0,0.0,0.0,0.0,0.0,0.0,0.0,0.0,0.0,0.0,0.0,0.4942,0.4987,0.0,0.0,0.0,0.0,0.0,0.0,0.0,0.0,0.3507,0.0,0.0,0.0,0.0,0.0,0.0,0.0,0.0,0.0,0.0,0.0,0.0,0.0,0.0,0.0,0.0,0.0,0.0,0.0,0.0,0.0,0.0,0.0,0.0,0.0,0.0,0.0,0.0,0.0,0.0,0.0,0.0,0.0,0.0,0.0,0.0,0.0,0.0,0.0,0.0,0.0,0.0,0.0,0.0,0.0,0.0,0.0,0.0,0.0,0.0,0.0,0.0,0.0,0.0,0.0,0.0,1.5641,1.6441,1.7329,1.8498,1.9165,1.9845,2.048,1.755,1.4245,1.0848,0.0,0.0,0.0,0.0,0.0,0.0,0.0,0.0,0.0,0.0,0.0,0.0,0.0,0.0,0.0,0.0,0.0,0.0,0.0,0.0,0.0,0.0,0.0,0.0,0.0,0.0,0.0,0.0,0.0,0.0,0.0,0.0,0.0,0.0,0.0,0.0,0.0,0.0,0.0,0.407,0.3252,0.0,0.0,0.0,0.0,0.0,0.0,0.0,0.0,-0.3793,0.0,0.0,0.0,0.0,0.0,0.0,0.0,0.0,0.0,0.0,0.0,0.0,0.0,0.0,0.0,0.0,0.0,0.0,0.0,0.0,0.0,0.0,0.0,0.0,0.0,0.0,0.0,0.0,0.0,0.0,0.0,0.0,0.0,0.0,0.0,0.0,0.0,0.0,0.0,0.0,0.0,0.0,0.0,0.0,0.0,0.0,0.0,0.0,0.0,0.0,0.0,0.0,0.0,0.0,0.0,1.423,1.5231,1.5907,1.6413,1.7329,1.8119,1.8651,1.6079,1.3241,0.0,0.0,0.0,0.0,0.0,0.0,0.0,0.0,0.0,0.0,0.0,0.0,0.0,0.0,0.0,0.0,0.0,0.0,0.0,0.0,0.0,0.0,0.0,0.0,0.0,0.0,0.0,0.0,0.0,0.0,0.0,0.0,0.0,0.0,0.0,0.0,0.0,0.0,0.0,0.0,0.4668,0.3442,0.1759,0.0,0.0,0.0,0.0,0.0,0.0,-0.626,-0.6342,0.0,0.0,0.0,0.0,0.0,0.0,0.0,0.0,0.0,0.0,0.0,0.0,0.0,0.0,0.0,0.0,0.0,0.0,0.0,0.0,0.0,0.0,0.0,0.0,0.0,0.0,0.0,0.0,0.0,0.0,0.0,0.0,0.0,0.0,0.0,0.0,0.0,0.0,0.0,0.0,0.0,0.0,0.0,0.0,0.0,0.0,0.0,0.0,0.0,0.0,0.0,0.0,0.0,0.0,0.0,1.2671,1.3868,1.4514,1.4615,1.5567,1.6211,1.6375,1.4529,1.2356,0.0,0.0,0.0,0.0,0.0,0.0,0.0,0.0,0.0,0.0,0.0,0.0,0.0,0.0,0.0,0.0,0.0,0.0,0.0,0.0,0.0,0.0,0.0,0.0,0.0,0.0,0.0,0.0,0.0,0.0,0.0,0.0,0.0,0.0,0.0,0.0,0.0,0.0,0.0,0.0,0.0,0.3235,-0.0,-0.0,0.0,0.0,0.0,0.0,-0.4818,-0.6275,0.0,0.0,0.0,0.0,0.0,0.0,0.0,0.0,0.0,0.0,0.0,0.0,0.0,0.0,0.0,0.0,0.0,0.0,0.0,0.0,0.0,0.0,0.0,0.0,0.0,0.0,0.0,0.0,0.0,0.0,0.0,0.0,0.0,0.0,0.0,0.0,0.0,0.0,0.0,0.0,0.0,0.0,0.0,0.0,0.0,0.0,0.0,0.0,0.0,0.0,0.0,0.0,0.0,0.0,0.0,0.0,1.2943,1.3312,1.4032,1.51,1.5254,1.5078,1.4522,1.3761,1.2304,0.0,0.0,0.0,0.0,0.0,0.0,0.0,0.0,0.0,0.0,0.0,0.0,0.0,0.0,0.0,0.0,0.0,0.0,0.0,0.0,0.0,0.0,0.0,0.0,0.0,0.0,0.0,0.0,0.0,0.0,0.0,0.0,0.0,0.0,0.0,0.0,0.0,0.0,0.0,0.0,0.0,0.0464,0.009,-0.0,-0.1828,0.0,0.0,-0.7878,-0.7574,-0.8687,0.0,0.0,0.0,0.0,0.0,0.0,0.0,0.0,0.0,0.0,0.0,0.0,0.0,0.0,0.0,0.0,0.0,0.0,0.0,0.0,0.0,0.0,0.0,0.0,0.0,0.0,0.0,0.0,0.0,0.0,0.0,0.0,0.0,0.0,0.0,0.0,0.0,0.0,0.0,0.0,0.0,0.0,0.0,0.0,0.0,0.0,0.0,0.0,0.0,0.0,0.0,0.0,0.0,0.0,0.0,1.0855,1.2166,1.2208,1.2658,1.3563,1.3593,1.3433,1.31,1.2429,1.1473,0.0,0.0,0.0,0.0,0.0,0.0,0.0,0.0,0.0,0.0,0.0,0.0,0.0,0.0,0.0,0.0,0.0,0.0,0.0,0.0,0.0,0.0,0.0,0.0,0.0,0.0,0.0,0.0,0.0,0.0,0.0,0.0,0.0,0.0,0.0,0.0,0.0,0.0,0.0,0.0,0.0,0.0,-0.0,-0.0,0.0,0.0,0.0,-0.8239,-0.8808,0.0,0.0,0.0,0.0,0.0,0.0,0.0,0.0,0.0,0.0,0.0,0.0,0.0,0.0,0.0,0.0,0.0,0.0,0.0,0.0,0.0,0.0,0.0,0.0,0.0,0.0,0.0,0.0,0.0,0.0,0.0,0.0,0.0,0.0,0.0,0.0,0.0,0.0,0.0,0.0,0.0,0.0,0.0,0.0,0.0,0.0,0.0,0.0,0.0,0.0,0.0,0.0,0.0,0.0,0.0,0.0,0.0,1.1329,1.1382,1.1717,1.2278,1.2305,1.2305,1.2291,1.1516,0.0,0.0,0.0,0.0,0.0,0.0,0.0,0.0,0.0,0.0,0.0,0.0,0.0,0.0,0.0,0.0,0.0,0.0,0.0,0.0,0.0,0.0,0.0,0.0,0.0,0.0,0.0,-0.0376,0.0,0.0,0.0,0.0,0.0,0.0,0.0,0.0,0.0,0.0,0.0,0.0,0.0,0.0,-0.2243,-0.2243,-0.0983,-0.1968,0.0,0.0,-0.9252,-0.9965,-1.0407,-1.0803,0.0,0.0,0.0,0.0,0.0,0.0,0.0,0.0,0.0,0.0,0.0,0.0,0.0,0.0,0.0,0.0,0.0,0.0,0.0,0.0,0.0,0.0,0.0,0.0,0.0,0.0,0.0,0.0,0.0,0.0,0.0,0.0,0.0,0.0,0.0,0.0,0.0,0.0,0.0,0.0,0.0,0.0,0.0,0.0,0.0,0.0,0.0,0.0,0.0,0.0,0.0,0.0,0.0,0.0,0.0,1.0654,1.1129,1.1647,1.2278,1.2305,1.2305,1.2291,1.1717,1.0795,0.0,0.0,0.0,0.0,0.0,0.0,0.0,0.0,0.0,0.0,0.0,0.0,0.0,0.0,0.0,0.0,0.0,0.0,0.0,0.0,0.0,0.0,0.0,0.0,0.0,0.0,0.0,0.0,0.0,0.0,0.0,0.0,0.0,0.0,0.0,0.0,0.0,0.0,0.0,0.0,0.0,-0.8272,-0.83,-0.3567,-0.2506,0.0,0.0,-1.1682,-1.1696,-1.2758,-1.3379,-1.2638,0.0,0.0,0.0,0.0,0.0,0.0,0.0,0.0,0.0,0.0,0.0,0.0,0.0,0.0,0.0,0.0,0.0,0.0,0.0,0.0,0.0,0.0,0.0,0.0,0.0,0.0,0.0,0.0,0.0,0.0,0.0,0.0,0.0,0.0,0.0,0.0,0.0,0.0,0.0,0.0,0.0,0.0,0.0,0.0,0.0,0.0,0.0,0.0,0.0,0.0,0.0,0.0,0.0,0.8866,0.9753,0.9949,1.0599,1.1719,1.1821,1.2144,1.2866,1.1675,1.0692,0.0,0.0,0.0,0.0,0.0,0.0,0.0,0.0,0.0,0.0,0.0,0.0,0.0,0.0,0.0,0.0,0.0,0.0,0.0,0.0,0.0,0.0,0.0,0.0,0.0,0.0,0.0,0.0,-0.5193,-0.5663,-0.4827,0.0,0.0,0.0,0.0,0.0,0.0,0.0,0.0,0.0,0.0,-0.6866,-0.8678,-0.6924,0.0,0.0,-1.3308,-1.4489,-1.3554,-1.3814,-1.4196,-1.433,-1.4695,0.0,0.0,0.0,0.0,0.0,0.0,0.0,0.0,0.0,0.0,0.0,0.0,0.0,0.0,0.0,0.0,0.0,0.0,0.0,0.0,0.0,0.0,0.0,0.0,0.0,0.0,0.0,0.0,0.0,0.0,0.0,0.0,0.0,0.0,0.0,0.0,0.0,0.0,0.0,0.0,0.0,0.0,0.0,0.0,0.0,0.0,0.0,0.0,0.0,0.0,0.0,0.0,0.8331,0.9309,0.9166,0.9735,1.0917,1.0917,1.133,1.2049,1.1147,1.0159,0.0,0.0,0.0,0.0,0.0,0.0,0.0,0.0,0.0,0.0,0.0,0.0,0.0,0.0,0.0,0.0,0.0,0.0,0.0,0.0,0.0,0.0,0.0,0.0,0.0,0.0,0.0,0.0,-0.5129,-0.5874,-0.5825,0.0,0.0,0.0,0.0,0.0,0.0,0.0,0.0,0.0,0.0,-0.6879,-0.9406,-0.9279,-0.9758,-1.2229,-1.5076,-1.6518,-1.5233,-1.5121,-1.5293,-1.5644,0.0,0.0,0.0,0.0,0.0,0.0,0.0,0.0,0.0,0.0,0.0,0.0,0.0,0.0,0.0,0.0,0.0,0.0,0.0,0.0,0.0,0.0,0.0,0.0,0.0,0.0,0.0,0.0,0.0,0.0,1.5174,0.0,0.0,0.0,0.0,0.0,0.0,0.0,0.0,0.0,0.0,0.0,0.0,0.0,0.0,0.0,0.0,0.0,0.0,0.0,0.0,0.0,0.0,0.85,0.9243,0.9124,0.9281,0.9695,0.9715,0.9796,0.9877,0.9925,0.9212,0.7647,0.0,0.0,0.0,0.0,0.0,0.0,0.0,0.0,0.0,0.0,0.0,0.0,0.0,0.0,0.0,0.0,0.0,0.0,0.0,0.0,0.0,0.0,0.0,0.0,0.0,0.0,-0.5887,-0.6006,-0.5962,0.0,0.0,0.0,0.0,0.0,0.0,0.0,0.0,0.0,0.0,-0.8784,-0.9708,-1.1442,-1.0166,-1.0437,-1.4294,-1.6419,-1.7382,-1.6727,-1.6874,-1.6935,0.0,0.0,0.0,0.0,0.0,0.0,0.0,0.0,0.0,0.0,0.0,0.0,0.0,0.0,0.0,0.0,0.0,0.0,0.0,0.0,0.0,0.0,0.0,0.0,0.0,0.0,0.0,2.086,2.0266,0.0,0.0,0.0,0.0,0.0,0.0,0.0,0.0,0.0,0.0,0.0,1.5287,1.4968,0.0,0.0,0.0,0.0,0.0,0.0,0.0,0.0,0.0,0.0,0.0,0.0,0.722,0.7807,0.7675,0.8122,0.9119,0.9119,0.9545,1.0299,0.9785,0.8613,0.6736,0.0,0.0,0.0,0.0,0.0,0.0,0.0,0.0,0.0,0.0,0.0,0.0,0.0,0.0,0.0,0.0,0.0,0.0,0.0,0.0,0.0,0.0,0.0,0.0,0.0,-0.5915,0.0,0.0,0.0,0.0,0.0,0.0,0.0,0.0,0.0,0.0,0.0,-0.8744,-0.8619,-0.8797,-0.9677,-1.1313,-1.1726,-1.283,0.0,0.0,0.0,0.0,0.0,0.0,0.0,0.0,0.0,0.0,0.0,0.0,0.0,0.0,-1.7495,-1.6573,-1.6386,-1.6443,-1.6607,0.0,0.0,0.0,0.0,0.0,0.0,0.0,0.0,0.0,0.0,0.0,0.0,0.0,0.0,2.2712,0.0,2.0965,0.0,0.0,0.0,0.0,0.0,0.0,0.0,0.0,1.7637,1.7642,1.6808,1.6073,1.5358,0.0,1.3838,1.2529,0.0,0.0,0.0,0.0,0.0,0.0,0.0,0.0,0.6682,0.7151,0.6969,0.7339,0.8185,0.8281,0.8623,0.9305,0.8698,0.7804,0.66,0.5996,0.5402,0.0,0.0,0.0,0.0,0.0,0.0,0.0,0.0,0.0,0.0,0.0,0.0,0.0,0.0,0.0,0.0,0.0,0.0,0.0,0.0,0.0,0.0,0.0,-0.6173,0.0,0.0,0.0,0.0,0.0,0.0,0.0,0.0,0.0,-0.8336,-0.8758,-0.9152,-0.9001,-0.915,-1.0074,-1.2223,0.0,0.0,0.0,0.0,0.0,0.0,0.0,-1.838,-1.8504,-1.8504,-1.8571,-1.8758,-1.9279,-1.9599,-1.9399,0.0,0.0,-1.8101,-1.8211,-1.8414,-1.8198,-1.8143,-1.829,-1.8584,-1.8878,-1.9092,0.0,0.0,0.0,0.0,0.0,0.0,0.0,0.0,2.4497,2.3989,0.0,2.2506,0.0,0.0,0.0,0.0,0.0,0.0,0.0,0.0,1.9494,1.9746,1.9141,1.7054,1.6048,1.6048,1.4929,1.4024,1.3147,1.0683,0.0,0.0,0.0,0.0,0.0,0.0,0.6992,0.7281,0.7062,0.7021,0.7156,0.7163,0.7163,0.7163,0.6999,0.6821,0.6815,0.649,0.5997,0.5214,0.1887,0.0,0.0,0.0,0.0,0.0,0.0,0.0,0.0,0.0,0.0,0.0,0.0,0.0,0.0,0.0,0.0,0.0,0.0,0.0,0.0,-0.6437,0.0,0.0,0.0,0.0,0.0,0.0,0.0,0.0,0.0,0.0,-0.8431,-0.9083,-0.9618,-0.9618,0.0,0.0,0.0,0.0,-1.5406,-1.8868,-1.9821,-2.0033,-1.9435,-1.9602,-1.9653,-1.9492,0.0,0.0,-1.9519,-1.9893,-2.0094,-1.9546,-1.9947,-2.0281,-2.0267,-2.0142,-2.0117,-1.9865,-1.9586,-1.9533,-1.9813,-2.0107,-2.0281,3.1654,0.0,0.0,0.0,0.0,2.773,2.813,2.9085,2.7952,2.7061,2.6261,2.5075,0.0,0.0,0.0,0.0,0.0,0.0,1.912,1.872,1.8697,1.8316,1.7674,1.6421,1.5782,1.5576,1.4292,1.395,1.4335,1.0889,0.7974,0.5593,0.0,0.0,0.0,0.0,0.6855,0.6993,0.7265,0.7336,0.729,0.729,0.7204,0.7124,0.7323,0.5712,0.2241,0.5127,0.522,0.168,0.0561,0.0,0.0,0.0,0.0,0.0,0.0,0.0,0.0,0.0,0.0,0.0,0.0,0.0,0.0,0.0,0.0,0.0,0.0,0.0,-0.6458,-0.6627,-0.6898,0.0,0.0,0.0,0.0,0.0,0.0,0.0,0.0,0.0,-0.9551,-0.9761,-0.9924,0.0,0.0,-1.1202,-1.4479,-1.4771,-1.6025,-1.9442,-2.0516,0.0,0.0,-1.9924,-1.9897,-2.0225,-2.0615,-2.0802,-2.0628,-2.0748,-2.0869,-2.0895,-2.0916,-2.0948,-2.1376,-2.108,-2.0901,-2.0725,-2.0655,-2.0775,-2.1243,-2.143,-2.147,3.4542,3.2869,3.0517,2.9768,3.0131,2.9778,2.9892,3.0377,2.9465,2.8719,2.8076,2.6571,2.5283,2.3903,2.0753,0.0,0.0,0.0,1.9524,1.9413,1.8485,1.7717,1.7202,1.6289,1.5455,1.4803,1.4026,1.3637,1.3737,1.0833,0.8416,0.6691,0.0,0.0,0.5987,0.6388,0.6708,0.6953,0.7356,0.7523,0.7435,0.6467,0.63,0.705,0.726,0.5037,0.0292,0.2776,0.2992,-0.0,-0.0,-0.0403,0.0,0.0,0.0,0.0,0.0,0.0,0.0,0.0,0.0,0.0,0.0,-0.5918,-0.5054,0.0,0.0,0.0,-0.6146,-0.6641,-0.7183,-0.7394,0.0,0.0,0.0,0.0,0.0,0.0,0.0,-0.9523,-0.9924,-1.0188,-1.0222,-1.0276,-1.0317,-1.0317,-1.0263,-1.1492,-1.4932,0.0,-1.7044,-2.0165,-2.0862,-2.0999,-2.0588,-2.0453,-2.0472,-2.0743,-2.0989,-2.1162,-2.1269,-2.1283,-2.139,-2.1643,-2.158,-2.162,-2.1951,-2.1842,-2.1727,-2.1518,-2.1456,-2.159,-2.1924,-2.1991,-2.1991,3.5264,3.5056,3.2614,3.1482,3.1295,3.1232,3.0571,2.9583,2.9539,2.9254,2.8699,2.73,2.6292,2.5475,2.2499,0.0,2.2703,2.0863,2.0143,2.0412,1.853,1.7699,1.7498,1.6197,1.5045,1.3872,1.368,1.305,1.1855,1.043,0.9107,0.7993,0.717,0.6653,0.6621,0.6251,0.6303,0.6796,0.7127,0.74,0.759,0.478,0.433,0.648,0.6502,0.4453,-0.0,-0.0,-0.0,-0.0,-0.0,-0.1017,-0.3238,0.0,0.0,0.0,0.0,0.0,0.0,0.0,0.0,0.0,0.0,0.0,0.0,0.0,0.0,0.0,-0.7041,0.0,-0.8072,-0.8479,0.0,0.0,0.0,-0.9232,-0.9286,-0.9774,-1.0059,-0.9937,0.0,0.0,-1.0561,0.0,-1.0758,-1.0751,-1.0616,-1.172,-1.5245,-1.6551,-1.8209,-2.0397,-2.0969,-2.1096,-2.1056,-2.1109,-2.1049,-2.1203,-2.1176,-2.1296,-2.1537,-2.159,-2.171,-2.1964,-2.2017,-2.2058,-2.2084,-2.2563,-2.2841,-2.2284,-2.2058,-2.2031,-2.2138,-2.2164,-2.2178,3.3289,3.3199,3.2607,3.2709,3.3283,3.2511,3.1689,3.0745,3.0771,2.9857,2.8313,2.7854,2.7162,2.6117,2.3166,2.1332,2.0354,1.9884,1.9192,1.8394,1.7918,1.7217,1.6197,1.4937,1.4172,1.3776,1.1843,1.1306,1.1766,0.9592,0.8252,0.8007,0.7751,0.7396,0.67,0.505,0.4323,0.4438,0.472,0.5872,0.7707,0.3285,0.1089,0.1667,0.1669,0.1172,-0.0,-0.0,-0.0,-0.0,-0.0,-0.1861,-0.5918,-0.5407,0.0,0.0,0.0,0.0,0.0,0.0,0.0,0.0,0.0,-0.6134,-0.5848,0.0,-0.7238,0.0,-0.7916,-0.8357,-0.8689,-0.8825,0.0,0.0,-0.9466,-0.9516,-1.0453,-1.0411,-1.0498,-1.0819,-1.0968,-1.1043,-1.1009,-1.1036,-1.1056,-1.1056,-1.0833,-1.1461,-1.3709,-1.6073,-1.7882,-1.9048,-2.0208,-2.1109,-2.1136,-2.1309,-2.151,-2.1737,-2.1777,-2.1804,-2.1871,-2.1884,-2.1977,-2.2245,-2.2164,-2.2189,-2.2899,-2.3322,-2.3555,-2.3386,-2.2806,-2.2458,-2.2899,-2.2993,-2.3006,3.2037,3.209,3.2496,3.2705,3.2597,3.2164,3.1462,3.0545,3.0037,2.9164,2.8004,2.7093,2.5968,2.4867,2.2765,2.0342,1.7998,1.8407,1.8319,1.7684,1.6546,1.5602,1.4949,1.3584,1.2716,1.2134,1.0672,1.0019,1.0053,0.8656,0.7959,0.7972,0.7999,0.774,0.7234,0.3808,0.1983,0.1983,0.2102,0.2922,0.4246,0.1515,-0.0,-0.0,-0.0,-0.0,-0.0,-0.0,-0.0,-0.0,-0.0,-0.1179,-0.3815,-0.5676,-0.6492,0.0,0.0,0.0,0.0,0.0,0.0,0.0,0.0,0.0,0.0,0.0,-0.7991,-0.8289,-0.8723,-0.911,-0.9408,-0.9612,-0.9924,-1.0399,-1.0161,-1.0313,-1.1002,-1.0833,-1.0839,-1.1145,-1.1165,-1.1165,-1.1165,-1.1165,-1.1165,-1.1158,-1.1023,-1.1581,-1.3303,-1.492,-1.6522,-1.8473,-1.967,-2.0641,-2.1301,-2.1643,-2.179,-2.1951,-2.1991,-2.2017,-2.2151,-2.2178,-2.2271,-2.2552,-2.247,-2.2603,-2.322,-2.38,-2.4063,-2.3776,-2.338,-2.3193,-2.3447,-2.3527,-2.3527,3.1315,3.1266,3.2019,3.1745,3.0622,3.0675,3.0266,2.9485,2.8458,2.7928,2.7615,2.5443,2.3927,2.2989,2.1498,1.897,1.5922,1.697,1.7498,1.7311,1.5019,1.3872,1.3872,1.2328,1.1072,0.9993,0.9797,0.9114,0.8045,0.7965,0.7666,0.7054,0.7698,0.8026,0.7724,0.2626,-0.0,-0.0,-0.0,-0.0,-0.0,-0.0,-0.0,-0.0,-0.0699,-0.0692,-0.0,-0.0,-0.0,-0.0,-0.0,-0.0,-0.0,-0.4524,-0.7154,0.0,-0.6742,0.0,0.0,0.0,0.0,0.0,0.0,0.0,0.0,-0.8404,-0.8804,-0.9035,-0.9476,-0.9849,-1.008,-1.0493,-1.0799,-1.0934,-1.0953,-1.1047,-1.1192,-1.1351,-1.1365,-1.1219,-1.1226,-1.1219,-1.1233,-1.1219,-1.1226,-1.124,-1.1233,-1.1767,-1.3125,-1.4028,-1.5605,-1.8485,-1.9362,-2.0464,-2.1661,-2.2058,-2.2058,-2.2098,-2.2138,-2.2191,-2.2432,-2.2472,-2.2552,-2.2792,-2.2832,-2.2979,-2.3313,-2.4036,-2.4468,-2.4018,-2.3888,-2.3848,-2.3834,-2.3834,-2.3821,3.1099,2.9784,3.006,2.9437,2.8368,2.8356,2.831,2.8077,2.7883,2.7081,2.5786,2.3504,2.273,2.2866,1.9762,1.7442,1.5841,1.6088,1.6197,1.6103,1.4555,1.3872,1.3776,1.1453,1.019,0.9903,0.8924,0.8244,0.7965,0.7972,0.5837,0.1709,0.5861,0.8032,0.7743,0.0,0.0,0.0,-0.0,-0.0,-0.0,-0.0,-0.0,-0.0,-0.4241,0.0,-0.0,-0.0,-0.0,-0.0,-0.0,0.0,0.0,0.0,0.0,0.0,0.0,0.0,0.0,0.0,0.0,0.0,-0.9385,-0.937,-0.8581,-0.9395,-0.9863,-0.9686,-1.0175,-1.048,-1.0419,-1.0704,-1.0914,-1.0955,-1.1047,-1.1201,-1.1348,-1.1457,-1.1538,-1.1531,-1.1531,-1.1531,-1.1518,-1.1531,-1.1525,-1.1511,-1.1531,-1.1674,-1.1945,-1.4215,-1.6195,-1.7109,-1.9579,-2.1582,-2.2159,-2.2337,-2.2418,-2.2619,-2.2699,-2.2712,-2.2752,-2.2766,-2.2766,-2.2873,-2.2859,-2.3046,-2.3581,-2.4167,-2.4501,-2.4382,-2.4462,-2.4396,-2.4182,-2.4115,-2.4115,2.9871,0.0,2.9454,2.8835,0.0,2.7688,2.7323,2.6731,2.6811,2.5757,2.3861,2.2668,2.1853,2.1229,1.902,1.7404,1.6197,1.5486,1.5158,1.506,1.306,1.2164,1.2164,1.0163,0.9229,0.9152,0.8456,0.8133,0.7979,0.7992,0.524,0.0101,0.2723,0.4045,0.395,0.1314,-0.0,-0.0,-0.0,-0.0,-0.0,-0.2624,-0.2702,-0.0197,0.0,0.0,0.0,0.0,0.0,0.0,0.0,0.0,0.0,0.0,0.0,-0.8477,-0.8431,-0.835,-0.8567,-0.8507,-0.8778,-0.9449,-1.0053,-1.0095,-0.9503,-1.0039,-1.0351,-1.0283,-1.0548,-1.0717,-1.0724,-1.0921,-1.1084,-1.1165,-1.1369,-1.1362,-1.1511,-1.1572,-1.1619,-1.1619,-1.1619,-1.1619,-1.1619,-1.1619,-1.1619,-1.1619,-1.1619,-1.1619,-1.1893,-1.3866,-1.5967,-1.7962,-2.0527,-2.2512,-2.2616,-2.2603,-2.2672,-2.2832,-2.2859,-2.2859,-2.2859,-2.2859,-2.2899,-2.3046,-2.2935,-2.3134,-2.3834,-2.4309,-2.4616,-2.4676,-2.4636,-2.4596,-2.4449,-2.4422,-2.4422,2.8532,2.8756,2.8685,2.8006,2.6914,2.6703,2.5954,2.4963,0.0,0.0,0.0,2.1935,2.1021,1.9587,1.8331,1.7189,1.6004,1.4803,1.414,1.4038,1.1569,1.0448,1.0344,0.91,0.8425,0.8316,0.8323,0.8166,0.7965,0.7985,0.5306,-0.0,-0.0,-0.0,-0.0,-0.0,-0.0,-0.0,-0.0,-0.0,-0.0,-0.5262,-0.5927,-0.148,-0.3604,-0.5882,-0.8069,-0.6007,-0.4789,-0.4819,-0.5068,-0.5268,-0.5395,-0.7638,-0.9047,-0.921,-0.9236,-0.9273,-0.9449,-0.9453,-0.9607,-0.9924,-1.0304,-1.048,-1.0365,-1.0466,-1.0582,-1.0711,-1.0744,-1.0812,-1.0941,-1.1104,-1.1253,-1.1382,-1.1525,-1.1619,-1.1619,-1.1619,-1.1619,-1.1619,-1.1619,-1.1619,-1.1619,-1.1619,-1.1619,-1.1619,-1.1619,-1.1763,-1.218,-1.3855,-1.6385,-1.9379,-2.1558,-2.2846,-2.2859,-2.2846,-2.2859,-2.2859,-2.2859,-2.2859,-2.2859,-2.2859,-2.2993,-2.3247,-2.316,-2.3399,-2.4048,-2.4354,-2.4634,-2.4583,-2.4636,-2.4636,-2.4636,-2.4676,-2.469,2.8093,2.6202,2.6099,2.5373,2.4177,2.305,2.2449,2.2349,2.3556,2.2912,2.113,2.0059,1.986,2.0027,1.6653,1.4546,1.3755,1.3017,1.271,0.0,1.1061,1.0448,1.0344,0.91,0.8479,0.8269,0.8269,0.8171,0.7973,0.7973,0.5299,-0.0,-0.0,-0.0,-0.0,-0.0,-0.0,-0.0,-0.0,-0.0,-0.0,-0.5258,-0.7711,-0.6977,-0.737,-0.7985,-0.8763,-0.8071,-0.7717,-0.7896,-0.7936,-0.8184,-0.8635,-0.8913,-0.9203,-0.949,-0.9394,-0.9469,-0.9734,-0.9533,-0.9718,-1.0493,-1.0582,-1.0677,-1.0663,-1.0677,-1.0697,-1.0724,-1.0833,-1.0921,-1.0968,-1.1192,-1.1362,-1.1396,-1.1531,-1.1619,-1.1619,-1.1619,-1.1619,-1.1619,-1.1619,-1.1619,-1.1619,-1.1619,-1.1619,-1.1619,-1.1619,-1.2187,-1.3729,-1.5557,-1.7627,-1.9795,-2.1671,-2.2709,-2.2859,-2.2859,-2.2859,-2.2859,-2.2859,-2.2859,-2.2859,-2.2886,-2.3006,-2.3287,-2.352,-2.3762,-2.4115,-2.4367,-2.4515,-2.4583,-2.4636,-2.4636,-2.4663,-2.4836,-2.493,2.5794,2.3996,2.3883,2.3545,2.2963,2.1338,2.022,1.945,1.9199,1.9126,1.9037,1.854,1.8537,1.8575,1.5374,1.2805,1.0949,1.1451,1.17,1.1593,1.023,0.96,0.9492,0.8974,0.873,0.8662,0.8676,0.8428,0.783,0.5124,0.2346,-0.0,-0.0,-0.0,-0.0,-0.0,-0.1581,-0.4639,-0.1655,-0.1545,-0.479,-0.562,-0.6665,-0.793,-0.8273,-0.8584,-0.8859,-0.8543,-0.8472,-0.8515,-0.856,-0.8817,-0.9078,-0.9181,-0.9373,-0.9531,-0.9625,-0.9802,-0.9937,-0.9968,-1.0176,-1.0726,-1.0677,-1.0717,-1.0717,-1.0717,-1.0717,-1.0724,-1.086,-1.0982,-1.1056,-1.126,-1.1423,-1.1504,-1.1579,-1.1619,-1.1619,-1.1619,-1.1619,-1.1619,-1.1619,-1.1619,-1.1619,-1.1619,-1.1619,-1.1619,-1.1619,-1.2323,-1.4156,-1.5981,-1.7907,-1.9875,-2.1632,-2.2709,-2.2859,-2.2859,-2.2859,-2.2859,-2.2859,-2.2859,-2.2873,-2.2966,-2.322,-2.3514,-2.3688,-2.3968,-2.4369,-2.4449,-2.4516,-2.4569,-2.4636,-2.4676,-2.485,-2.5104,-2.5237,2.3334,2.1783,2.1969,2.1663,2.0971,1.9249,1.7822,1.6599,1.5409,1.5421,1.6279,1.6486,1.6574,1.6355,1.3888,1.1359,0.9349,1.0085,1.0578,1.0476,0.9404,0.853,0.7955,0.7862,0.8263,0.8845,0.8859,0.8022,0.5845,0.1942,-0.0,-0.0,-0.0,-0.0,-0.0,-0.0,-0.2898,-0.8194,-0.4344,-0.3909,-0.7699,-0.6283,-0.6378,-0.7998,-0.8428,-0.8652,-0.8885,-0.8687,-0.8587,-0.8594,-0.873,-0.8879,-0.9035,-0.9286,-0.9496,-0.9659,-0.9903,-1.008,-1.0029,-1.0392,-1.0595,-1.0704,-1.0717,-1.0717,-1.0717,-1.0717,-1.0717,-1.0738,-1.0894,-1.1043,-1.1158,-1.1335,-1.1491,-1.1606,-1.1619,-1.1619,-1.1619,-1.1619,-1.1619,-1.1619,-1.1619,-1.1619,-1.1619,-1.1619,-1.1619,-1.1619,-1.1619,-1.2187,-1.3634,-1.5744,-1.7757,-1.937,-2.1358,-2.2709,-2.2859,-2.2859,-2.2859,-2.2859,-2.2859,-2.2913,-2.2979,-2.3193,-2.3474,-2.3768,-2.3864,-2.409,-2.4395,-2.4623,-2.4623,-2.4636,-2.4636,-2.4756,-2.5117,-2.5331,-2.5491,2.1522,1.992,2.0401,1.9167,1.6745,1.5008,1.4301,1.4056,1.3841,1.3315,1.2729,1.3347,1.365,1.3515,1.2019,1.0351,0.894,0.9071,0.9085,0.9099,0.9001,0.7522,0.5369,0.492,0.6274,0.8425,0.8542,0.581,-0.0,-0.0,-0.0,-0.0,-0.0,-0.0,-0.0,-0.0,-0.295,-0.8791,-0.8336,-0.705,-0.5104,-0.7123,-0.8407,-0.8737,-0.8742,-0.8804,-0.8918,-0.8825,-0.8893,-0.8906,-0.9028,-0.9178,-0.9334,-0.9496,-0.9652,-0.9795,-0.9958,-1.0035,-1.029,-1.0471,-1.0697,-1.0717,-1.0717,-1.0717,-1.0717,-1.0717,-1.0717,-1.0758,-1.0975,-1.1138,-1.1179,-1.1416,-1.1586,-1.1613,-1.1619,-1.1619,-1.1619,-1.1619,-1.1619,-1.1619,-1.1626,-1.1619,-1.1619,-1.1626,-1.1633,-1.1667,-1.1674,-1.199,-1.2787,-1.5123,-1.7248,-1.8293,-2.0557,-2.2585,-2.2873,-2.2859,-2.2859,-2.2859,-2.2873,-2.2979,-2.3166,-2.3327,-2.3487,-2.3981,-2.4024,-2.4024,-2.4369,-2.4636,-2.4636,-2.4649,-2.469,-2.481,-2.5291,-2.5491,-2.5518,2.1011,1.9374,1.8665,1.711,1.4938,1.3317,1.2551,1.2337,1.1446,1.0778,1.0192,0.8749,0.9004,1.0571,1.0017,0.9418,0.8765,0.7059,0.627,0.6497,0.7985,0.8214,0.6852,0.336,0.2576,0.3589,0.3589,-0.0,-0.0,-0.0,-0.0,-0.0,-0.3365,-0.5258,-0.5115,-0.3548,-0.4764,-0.8686,-0.8913,-0.8304,-0.7345,-0.8221,-0.8777,-0.8886,-0.8825,-0.8845,-0.8859,-0.8988,-0.9062,-0.9076,-0.9211,-0.9361,-0.951,-0.9578,-0.9713,-0.9944,-1.0181,-1.0399,-1.0478,-1.0683,-1.0717,-1.0717,-1.0717,-1.0717,-1.0717,-1.0717,-1.0717,-1.0758,-1.0989,-1.1165,-1.1185,-1.1436,-1.1619,-1.1619,-1.1619,-1.1619,-1.1619,-1.1619,-1.1619,-1.1626,-1.1694,-1.1701,-1.1653,-1.1694,-1.1775,-1.185,-1.1877,-1.2178,-1.3397,-1.5162,-1.6406,-1.7809,-2.0762,-2.2849,-2.2953,-2.2859,-2.2873,-2.2899,-2.302,-2.322,-2.3313,-2.3674,-2.3955,-2.4182,-2.417,-2.4302,-2.4596,-2.4636,-2.4636,-2.4649,-2.4836,-2.5037,-2.5438,-2.5518,-2.5625,1.9496,1.799,1.6362,1.4969,1.3527,1.2014,1.1248,1.0903,0.9884,0.9314,0.9071,0.6882,0.695,0.8634,0.8112,0.7326,0.6396,0.5967,0.4732,0.3717,0.556,0.6483,0.5998,-0.0,-0.0,-0.0,-0.0,-0.0,-0.0,-0.1906,-0.2466,-0.3029,-0.5949,-0.8103,-0.8562,-0.6619,-0.672,-0.8634,-0.8863,-0.896,-0.8836,-0.8994,-0.8994,-0.8947,-0.894,-0.8954,-0.9001,-0.9103,-0.9178,-0.9211,-0.9361,-0.949,-0.9598,-0.9686,-0.9863,-1.0148,-1.0371,-1.0555,-1.0711,-1.0717,-1.0717,-1.0717,-1.0717,-1.0717,-1.0717,-1.0717,-1.0717,-1.0738,-1.0989,-1.1165,-1.1192,-1.1436,-1.1606,-1.1619,-1.1619,-1.1619,-1.1619,-1.1619,-1.1619,-1.1626,-1.1694,-1.1735,-1.166,-1.1701,-1.1803,-1.1932,-1.1979,-1.2466,-1.3932,-1.5001,-1.5974,-1.6744,-1.9323,-2.1224,-2.2077,-2.2849,-2.2948,-2.306,-2.3247,-2.3447,-2.3474,-2.3901,-2.4275,-2.4356,-2.4529,-2.4609,-2.4623,-2.4636,-2.4636,-2.4676,-2.481,-2.505,-2.5304,-2.5371,-2.5598,1.6294,1.4703,1.3131,1.244,1.22,1.0664,0.9829,0.9667,0.9727,0.9761,0.9747,0.9513,0.9213,0.833,0.5822,0.3174,0.1571,0.5821,0.5173,-0.0,-0.0,-0.0,0.0345,-0.0,-0.0,-0.0,-0.0,-0.0,-0.0,-0.5502,-0.8568,-0.8339,-0.6284,-0.6279,-0.845,-0.8575,-0.866,-0.889,-0.8883,-0.8974,-0.8967,-0.9083,-0.9076,-0.8974,-0.8947,-0.9022,-0.9356,-0.9264,-0.9225,-0.9367,-0.9517,-0.9605,-0.9639,-0.9876,-1.0161,-1.0419,-1.048,-1.0561,-1.0697,-1.0717,-1.0717,-1.0717,-1.0717,-1.0717,-1.0717,-1.0717,-1.0724,-1.0731,-1.0995,-1.1165,-1.1206,-1.145,-1.1613,-1.1619,-1.1619,-1.1619,-1.1619,-1.1619,-1.1619,-1.1619,-1.1633,-1.166,-1.1633,-1.1619,-1.1728,-1.1837,-1.1864,-1.2058,-1.2607,-1.4294,-1.5052,-1.4949,-1.5694,-1.6866,-1.9929,-2.1845,-2.2999,-2.342,-2.346,-2.3741,-2.3848,-2.3995,-2.4289,-2.4489,-2.4583,-2.4623,-2.4636,-2.4636,-2.4636,-2.4649,-2.4649,-2.4836,-2.5157,-2.5117,-2.5304,1.4579,1.3003,1.244,1.1623,1.0686,1.0093,0.8616,0.6893,0.8909,0.9808,0.9814,0.9774,0.7342,0.3138,0.2144,0.1056,0.0232,0.2327,0.1984,-0.0,-0.0,-0.0,-0.0,-0.0,-0.0,-0.0,-0.3902,-0.5681,-0.5618,-0.6172,-0.7075,-0.8575,-0.8051,-0.8082,-0.8904,-0.9205,-0.9245,-0.9225,-0.9144,-0.913,-0.9198,-0.9178,-0.9171,-0.9225,-0.9218,-0.9245,-0.9422,-0.9511,-0.9469,-0.953,-0.9666,-0.9788,-0.991,-1.0175,-1.0371,-1.0487,-1.0588,-1.0663,-1.0711,-1.0717,-1.0717,-1.0717,-1.0717,-1.0717,-1.0717,-1.0724,-1.0758,-1.0873,-1.1036,-1.1192,-1.1321,-1.1497,-1.1619,-1.1619,-1.1619,-1.1619,-1.1619,-1.1619,-1.1619,-1.1619,-1.1619,-1.1687,-1.1803,-1.1809,-1.1816,-1.1952,-1.2054,-1.2088,-1.2203,-1.2896,-1.3412,-1.2999,-1.3017,-1.3858,-1.6487,-1.9746,-2.1857,-2.309,-2.3647,-2.3928,-2.4102,-2.4275,-2.4543,-2.4556,-2.4623,-2.4636,-2.4636,-2.4636,-2.4636,-2.4636,-2.4636,-2.4743,-2.5024,-2.4943,-2.5104,1.2405,1.159,1.1413,1.0808,0.9869,0.9754,0.8518,0.6535,0.6553,0.668,0.6685,0.6571,0.4057,-0.0,-0.2187,-0.3145,-0.287,-0.1071,-0.1068,-0.3089,-0.3103,-0.2622,-0.1659,-0.1541,-0.1538,-0.0,-0.5486,-0.7979,-0.871,-0.7059,-0.7172,-0.8917,-0.9218,-0.9252,-0.9266,-0.934,-0.9381,-0.9354,-0.9279,-0.9279,-0.9361,-0.9334,-0.9347,-0.9566,-0.9496,-0.9496,-0.958,-0.9557,-0.9632,-0.9686,-0.9768,-0.9917,-1.012,-1.0358,-1.0514,-1.0568,-1.0656,-1.0717,-1.0717,-1.0717,-1.0717,-1.0717,-1.0717,-1.0717,-1.0717,-1.0717,-1.0799,-1.0934,-1.1077,-1.1226,-1.1375,-1.1531,-1.1619,-1.1619,-1.1619,-1.1619,-1.1619,-1.1619,-1.1619,-1.1619,-1.1619,-1.1721,-1.1857,-1.1809,-1.1837,-1.1965,-1.2121,-1.2155,-1.2088,-1.2054,-1.2006,-1.1864,-1.1928,-1.2954,-1.4872,-1.7524,-2.0226,-2.1474,-2.351,-2.405,-2.4302,-2.4502,-2.4609,-2.4623,-2.4636,-2.4636,-2.4636,-2.4636,-2.4636,-2.4636,-2.4636,-2.4703,-2.4783,-2.477,-2.4917,1.0005,1.0184,0.9924,0.9761,0.9801,0.9808,0.9691,0.7803,0.2962,-0.0,-0.0,-0.0,-0.0,-0.0,-0.6043,-0.9296,-0.8005,-0.3396,-0.362,-0.7999,-0.8848,-0.7464,-0.505,-0.4938,-0.4899,-0.4943,-0.505,-0.6574,-0.8813,-0.8904,-0.9136,-0.9388,-0.9381,-0.9388,-0.9388,-0.9408,-0.9408,-0.9408,-0.9401,-0.9395,-0.9401,-0.951,-0.9578,-0.9618,-0.9727,-0.9727,-0.9737,-0.9618,-0.9686,-0.9795,-0.9829,-0.9971,-1.0249,-1.0432,-1.0561,-1.0677,-1.0717,-1.0717,-1.0717,-1.0717,-1.0717,-1.0717,-1.0717,-1.0717,-1.0717,-1.0724,-1.0792,-1.0962,-1.109,-1.1233,-1.1389,-1.1531,-1.1619,-1.1619,-1.1619,-1.1619,-1.1619,-1.1619,-1.1619,-1.1619,-1.1619,-1.1619,-1.1626,-1.1647,-1.1701,-1.1823,-1.1979,-1.206,-1.202,-1.2026,-1.1993,-1.1877,-1.1969,-1.2729,-1.3853,-1.5294,-1.7802,-2.0184,-2.2558,-2.3927,-2.4263,-2.4516,-2.4609,-2.4636,-2.4636,-2.4636,-2.4636,-2.4636,-2.4636,-2.4636,-2.4636,-2.4649,-2.4663,-2.4676,-2.4663,1.0349,0.9709,0.7411,0.7764,0.9692,0.9738,0.7434,-0.0,-0.0,-0.0,-0.0,-0.0,-0.0,-0.0,-0.6808,-0.9814,-0.9562,-0.7505,-0.6738,-0.6987,-0.8769,-0.9258,-0.8343,-0.8216,-0.8274,-0.8283,-0.8129,-0.8437,-0.9085,-0.9408,-0.9388,-0.9525,-0.9496,-0.9537,-0.9544,-0.9632,-0.9686,-0.9673,-0.9585,-0.9585,-0.9666,-0.9632,-0.9652,-0.9747,-0.9802,-0.9795,-0.9761,-0.9754,-0.9774,-0.9822,-0.9924,-1.0114,-1.0385,-1.0568,-1.0663,-1.0711,-1.0717,-1.0717,-1.0717,-1.0717,-1.0717,-1.0717,-1.0717,-1.0717,-1.0717,-1.0724,-1.0833,-1.1043,-1.1145,-1.126,-1.1491,-1.1586,-1.1619,-1.1619,-1.1619,-1.1619,-1.1619,-1.1619,-1.1619,-1.1619,-1.1619,-1.1619,-1.1619,-1.1619,-1.164,-1.1701,-1.1898,-1.1999,-1.1843,-1.2113,-1.2148,-1.187,-1.2164,-1.222,-1.3074,-1.4247,-1.6019,-1.822,-2.0601,-2.3103,-2.3632,-2.4048,-2.4288,-2.4636,-2.4636,-2.4636,-2.4636,-2.4636,-2.4636,-2.4636,-2.4636,-2.4636,-2.4636,-2.4636,-2.4636,1.0541,1.0012,0.7673,0.6362,0.6243,0.6185,0.3894,-0.0,-0.0,-0.0,-0.0,-0.0,-0.0,-0.0,-0.5679,-0.8547,-0.9678,-0.9774,-0.8744,-0.7128,-0.8628,-0.9761,-0.9754,-0.9754,-0.9836,-0.9761,-0.96,-0.954,-0.9571,-0.9551,-0.9551,-0.9571,-0.9646,-0.9686,-0.9693,-0.9774,-0.9822,-0.9808,-0.9734,-0.9734,-0.9788,-0.9734,-0.9734,-0.9815,-0.9876,-0.9903,-0.9903,-0.9958,-0.9964,-0.9958,-1.01,-1.031,-1.0487,-1.0629,-1.0717,-1.0717,-1.0717,-1.0717,-1.0717,-1.0717,-1.0717,-1.0717,-1.0717,-1.0717,-1.0731,-1.0758,-1.0921,-1.1111,-1.1219,-1.1348,-1.1558,-1.1619,-1.1619,-1.1619,-1.1619,-1.1619,-1.1619,-1.1619,-1.1619,-1.1619,-1.1619,-1.1619,-1.1619,-1.1619,-1.1619,-1.1653,-1.1823,-1.1945,-1.1796,-1.2072,-1.2058,-1.1932,-1.2148,-1.2223,-1.2313,-1.3325,-1.4501,-1.6366,-1.8542,-2.0991,-2.2472,-2.2917,-2.3116,-2.4179,-2.4636,-2.4636,-2.4636,-2.4636,-2.4636,-2.4636,-2.4475,-2.4636,-2.4636,-2.4636,-2.4636,1.032,1.0602,0.9528,0.5429,-0.0,-0.0,-0.0,-0.0,-0.0,-0.0,-0.0,-0.0,-0.0,-0.0,-0.4091,-0.6447,-0.9413,-0.9761,-0.9727,-0.9464,-0.9721,-0.9842,-0.9836,-0.9829,-0.9829,-0.9829,-0.9815,-0.9808,-0.9774,-0.9774,-0.9822,-0.9788,-0.9788,-0.9815,-0.9802,-0.9822,-0.9822,-0.9815,-0.9815,-0.9815,-0.9822,-0.9815,-0.9829,-0.9849,-0.9964,-1.0039,-1.008,-1.0188,-1.0209,-1.0134,-1.0331,-1.0466,-1.0527,-1.0649,-1.0717,-1.0717,-1.0717,-1.0717,-1.0717,-1.0717,-1.0717,-1.0717,-1.0717,-1.0731,-1.0765,-1.086,-1.1002,-1.1179,-1.1301,-1.1443,-1.1579,-1.1619,-1.1619,-1.1619,-1.1647,-1.1653,-1.164,-1.1653,-1.1687,-1.166,-1.1633,-1.1626,-1.1626,-1.1619,-1.1619,-1.1647,-1.1755,-1.1809,-1.1816,-1.1864,-1.1938,-1.1986,-1.2175,-1.2285,-1.2354,-1.2651,-1.3655,-1.4436,-1.6447,-1.8421,-2.0991,-2.1751,-2.2198,-2.3413,-2.4327,-2.4475,-2.4636,-2.4636,-2.4179,-2.3722,-2.387,-2.4327,-2.4327,-2.4179,-2.4488,0.5882,0.9946,0.4882,0.1572,-0.0,-0.0,-0.0,-0.0,-0.0,-0.0,-0.0,-0.0,-0.3201,-0.7155,-0.3297,-0.441,-0.8783,-0.9881,-0.9794,-0.9829,-0.9829,-0.9829,-0.9822,-0.9822,-0.9822,-0.9829,-0.9822,-0.9822,-0.9822,-0.9822,-0.9822,-0.9822,-0.9822,-0.9822,-0.9822,-0.9822,-0.9822,-0.9822,-0.9822,-0.9822,-0.9822,-0.9822,-0.9883,-0.9985,-1.0032,-1.0114,-1.0215,-1.0358,-1.0426,-1.0385,-1.0439,-1.0548,-1.0643,-1.0697,-1.0717,-1.0717,-1.0717,-1.0717,-1.0717,-1.0717,-1.0717,-1.0717,-1.0738,-1.0772,-1.0887,-1.0928,-1.1077,-1.126,-1.1375,-1.1457,-1.1579,-1.1626,-1.1619,-1.1633,-1.1728,-1.1782,-1.1782,-1.1877,-1.1904,-1.1803,-1.1775,-1.1721,-1.166,-1.1619,-1.1619,-1.164,-1.1714,-1.1789,-1.1762,-1.1816,-1.1891,-1.1918,-1.1979,-1.2115,-1.2244,-1.2393,-1.2635,-1.2944,-1.4176,-1.554,-1.827,-2.0542,-2.1302,-2.2211,-2.3413,-2.3722,-2.4327,-2.4636,-2.3883,-2.3141,-2.3574,-2.387,-2.3413,-2.3116,-2.4031,0.2417,0.5927,0.1734,-0.0,-0.0,-0.0,-0.0,-0.0,-0.0,-0.0,-0.0,-0.3388,-0.6761,-0.9986,-0.6298,-0.6387,-0.9929,-1.0029,-0.9935,-0.9924,-0.9849,-0.9822,-0.9822,-0.9822,-0.9822,-0.9822,-0.9822,-0.9822,-0.9822,-0.9822,-0.9822,-0.9822,-0.9822,-0.9822,-0.9822,-0.9822,-0.9822,-0.9822,-0.9822,-0.9822,-0.9822,-0.9822,-0.9903,-1.0032,-0.9982,-1.0109,-1.0439,-1.0548,-1.0588,-1.0588,-1.0588,-1.0629,-1.0704,-1.0717,-1.0717,-1.0717,-1.0717,-1.0717,-1.0717,-1.0717,-1.0751,-1.0939,-1.0819,-1.0894,-1.1016,-1.109,-1.124,-1.1355,-1.1443,-1.1525,-1.1599,-1.1667,-1.1708,-1.1742,-1.1898,-1.1959,-1.1857,-1.1959,-1.2006,-1.1945,-1.187,-1.1803,-1.1708,-1.166,-1.1626,-1.1626,-1.1674,-1.1681,-1.166,-1.1755,-1.1962,-1.1823,-1.1791,-1.1945,-1.2203,-1.2338,-1.2454,-1.2622,-1.2958,-1.4022,-1.5998,-1.8874,-1.9779,-2.0692,-2.2049,-2.2967,-2.3277,-2.36,-2.3664,-2.3204,-2.3451,-2.2657,-2.1751,-2.19,-2.2967,-0.0,-0.0,-0.0,-0.0,-0.0,-0.0,-0.0,-0.0,-0.0,-0.0,-0.0,-0.7549,-0.9907,-1.069,-0.9515,-1.0223,-1.0331,-1.031,-1.0076,-1.008,-0.9971,-0.991,-0.9917,-0.9842,-0.9822,-0.9822,-0.9822,-0.9822,-0.9822,-0.9822,-0.9822,-0.9822,-0.9822,-0.9822,-0.9822,-0.9822,-0.9822,-0.9829,-0.9863,-0.9869,-0.9883,-0.991,-1.0005,-1.0141,-1.0156,-1.0317,-1.0622,-1.0704,-1.0704,-1.0717,-1.0717,-1.0711,-1.0717,-1.0717,-1.0717,-1.0717,-1.0717,-1.0717,-1.0717,-1.0724,-1.0785,-1.1035,-1.1077,-1.1166,-1.1158,-1.128,-1.1369,-1.1436,-1.1538,-1.1592,-1.1633,-1.1742,-1.1803,-1.185,-1.2081,-1.2121,-1.1986,-1.2013,-1.2101,-1.2081,-1.1959,-1.1891,-1.1803,-1.1728,-1.164,-1.1619,-1.1653,-1.164,-1.164,-1.1701,-1.1708,-1.1681,-1.1703,-1.1782,-1.2025,-1.2264,-1.2366,-1.244,-1.2481,-1.3259,-1.4475,-1.6599,-1.7663,-1.8885,-2.0447,-2.1199,-2.1302,-2.181,-2.2181,-2.1684,-2.0703,-1.9779,-1.9176,-2.023,-2.1291,-0.0,-0.0,-0.0,-0.0,-0.0,-0.0,-0.0,-0.0,-0.0,-0.0,-0.0,-0.766,-1.0478,-1.0704,-1.0643,-1.0588,-1.0466,-1.0439,-1.05,-1.0236,-1.0209,-1.0181,-1.012,-0.9964,-0.9836,-0.9842,-0.9829,-0.9829,-0.9836,-0.9856,-0.9822,-0.9836,-0.9849,-0.9829,-0.9836,-0.9849,-0.9822,-0.9842,-0.9937,-0.9998,-1.0025,-1.0107,-1.0222,-1.0365,-1.0521,-1.0629,-1.069,-1.0717,-1.0717,-1.0717,-1.0717,-1.0717,-1.0717,-1.0717,-1.0717,-1.0717,-1.0717,-1.0717,-1.0724,-1.0738,-1.0792,-1.1077,-1.1274,-1.1488,-1.1314,-1.1369,-1.1457,-1.1531,-1.1599,-1.1619,-1.1633,-1.1748,-1.183,-1.1911,-1.2108,-1.2277,-1.223,-1.2311,-1.2332,-1.225,-1.2182,-1.2101,-1.1864,-1.1803,-1.1721,-1.1647,-1.1619,-1.1619,-1.164,-1.166,-1.1647,-1.1619,-1.1596,-1.1656,-1.1898,-1.2169,-1.2332,-1.2427,-1.2474,-1.2501,-1.3714,-1.4597,-1.5802,-1.7227,-1.9008,-1.9281,-1.9046,-1.9552,-1.9919,-1.8926,-1.8108,-1.7512,-1.7512,-1.8572,-1.9327,-0.0,-0.0,-0.0,-0.0,-0.0,-0.0,-0.0,-0.0,-0.0,-0.2018,-0.4849,-0.7818,-0.9029,-1.0645,-1.0751,-1.0677,-1.0595,-1.0521,-1.05,-1.0439,-1.0371,-1.0317,-1.0337,-1.0168,-1.0039,-1.0039,-1.0039,-0.9908,-0.9908,-0.9901,-1.0053,-1.0025,-0.9964,-0.9992,-1.0005,-0.9964,-0.9985,-1.0046,-1.0107,-1.0161,-1.0181,-1.0236,-1.0344,-1.0487,-1.0629,-1.0717,-1.0717,-1.0717,-1.0717,-1.0717,-1.0717,-1.0717,-1.0717,-1.0717,-1.0717,-1.0717,-1.0717,-1.0717,-1.0724,-1.0792,-1.0894,-1.118,-1.1393,-1.1559,-1.1578,-1.1497,-1.1531,-1.1592,-1.1619,-1.1619,-1.1633,-1.183,-1.1911,-1.1993,-1.2203,-1.2379,-1.24,-1.2461,-1.2447,-1.2318,-1.221,-1.2054,-1.1918,-1.1823,-1.1728,-1.1626,-1.1619,-1.1619,-1.1619,-1.164,-1.1633,-1.1633,-1.1549,-1.1657,-1.175,-1.2067,-1.2305,-1.2406,-1.2481,-1.2494,-1.2958,-1.3524,-1.3931,-1.537,-1.6519,-1.6824,-1.6626,-1.713,-1.7435,-1.7093,-1.6447,-1.5693,-1.5693,-1.6294,-1.7056,-0.0,-0.0,-0.0,-0.0,-0.0,-0.0,-0.0,-0.0,-0.0,-0.3768,-0.9192,-0.7397,-0.8606,-1.0212,-1.0731,-1.0724,-1.0683,-1.0616,-1.0588,-1.0636,-1.048,-1.046,-1.048,-1.0412,-1.0344,-1.0344,-1.0263,-1.0122,-0.9989,-1.0143,-1.0222,-1.0243,-1.0154,-1.0134,-1.0209,-1.0168,-1.0127,-1.0222,-1.0283,-1.031,-1.0324,-1.0351,-1.0446,-1.0411,-1.0643,-1.0717,-1.0717,-1.0717,-1.0717,-1.0717,-1.0717,-1.0717,-1.0717,-1.0717,-1.0717,-1.0717,-1.0717,-1.0744,-1.0792,-1.0745,-1.0866,-1.1317,-1.1447,-1.1592,-1.1565,-1.1599,-1.1606,-1.1606,-1.1619,-1.1619,-1.164,-1.1823,-1.1986,-1.2088,-1.2305,-1.2454,-1.2494,-1.2488,-1.2393,-1.2305,-1.2176,-1.202,-1.1884,-1.1775,-1.1687,-1.1619,-1.1619,-1.1619,-1.1619,-1.1619,-1.1619,-1.1619,-1.1667,-1.1543,-1.1775,-1.1972,-1.221,-1.2338,-1.2433,-1.2488,-1.2481,-1.272,-1.3137,-1.2888,-1.3546,-1.4122,-1.4404,-1.4549,-1.4862,-1.4887,-1.4774,-1.4322,-1.4176,-1.4176,-1.4927,-0.0,-0.0,-0.0,-0.0,-0.0,-0.0,-0.0,-0.0,-0.0,-0.0,-0.9875,-0.9996,-0.9831,-1.0618,-1.0731,-1.0724,-1.0711,-1.067,-1.0677,-1.0717,-1.0629,-1.0643,-1.0636,-1.0616,-1.0616,-1.0575,-1.0446,-1.0317,-1.0176,-1.0276,-1.0465,-1.0558,-1.039,-1.0276,-1.0297,-1.0256,-1.0263,-1.0344,-1.0412,-1.046,-1.048,-1.0548,-1.0609,-1.0656,-1.0829,-1.1108,-1.0982,-1.085,-1.0717,-1.0717,-1.0717,-1.0717,-1.085,-1.085,-1.0717,-1.0717,-1.0717,-1.0765,-1.0873,-1.0792,-1.0953,-1.128,-1.1537,-1.1612,-1.1579,-1.1619,-1.1619,-1.1619,-1.1619,-1.1619,-1.1619,-1.1789,-1.1925,-1.2054,-1.2203,-1.2359,-1.2427,-1.2372,-1.2291,-1.2216,-1.2108,-1.2006,-1.187,-1.1762,-1.1687,-1.1633,-1.1619,-1.1619,-1.1619,-1.1619,-1.1619,-1.1619,-1.1626,-1.1633,-1.1653,-1.1891,-1.2108,-1.2223,-1.2332,-1.2454,-1.2433,-1.2366,-1.2345,-1.2352,-1.2464,-1.3007,-1.3,-1.2581,-1.2906,-1.3521,-1.3304,-1.2944,-1.3077,-1.3355,-1.3853,-0.0,-0.0,-0.0,-0.0,-0.0,-0.0,-0.0,-0.0,-0.0,-0.2957,-0.7268,-0.971,-1.0645,-1.0744,-1.0724,-1.0717,-1.0717,-1.0717,-1.0717,-1.0717,-1.0717,-1.0717,-1.0717,-1.0717,-1.0717,-1.0683,-1.0568,-1.05,-1.0507,-1.0514,-1.063,-1.0623,-1.0439,-1.0426,-1.0466,-1.0432,-1.0446,-1.0493,-1.0568,-1.0602,-1.0602,-1.069,-1.0711,-1.085,-1.1637,-1.2437,-1.3252,-1.3341,-1.3456,-1.3325,-1.2545,-1.2157,-1.1762,-1.124,-1.0717,-1.0717,-1.0724,-1.0792,-1.0941,-1.0873,-1.1165,-1.1355,-1.1598,-1.1538,-1.1592,-1.1619,-1.1619,-1.1619,-1.1619,-1.1619,-1.1619,-1.1742,-1.1857,-1.1945,-1.2081,-1.2196,-1.2223,-1.2135,-1.2108,-1.2088,-1.1979,-1.1891,-1.1857,-1.1762,-1.1694,-1.1653,-1.1626,-1.1619,-1.1619,-1.1619,-1.1619,-1.1619,-1.1619,-1.1619,-1.164,-1.1809,-1.2033,-1.2149,-1.2223,-1.2352,-1.2359,-1.2264,-1.2223,-1.221,-1.2299,-1.2366,-1.2258,-1.2306,-1.2162,-1.2169,-1.2374,-1.2588,-1.2505,-1.2699,-1.3187,-0.0,-0.0,-0.0,-0.0,-0.0,-0.0,-0.0,-0.1885,-0.0,-0.4031,-0.6573,-0.9291,-1.0765,-1.0731,-1.0717,-1.0717,-1.0717,-1.0717,-1.0717,-1.0717,-1.0717,-1.0717,-1.0717,-1.0717,-1.0717,-1.0717,-1.0697,-1.0717,-1.0683,-1.0683,-1.0704,-1.0663,-1.0575,-1.0588,-1.0649,-1.0582,-1.0636,-1.0677,-1.0717,-1.085,-1.1115,-1.124,-1.0955,-1.108,-1.2652,-1.481,-1.6619,-1.5854,-1.5534,-1.5005,-1.4232,-1.3193,-1.2931,-1.163,-1.0717,-1.0724,-1.0744,-1.0846,-1.0982,-1.1131,-1.128,-1.145,-1.1552,-1.1599,-1.1619,-1.1619,-1.1619,-1.1619,-1.1619,-1.1619,-1.1633,-1.1721,-1.1796,-1.1857,-1.1945,-1.2026,-1.204,-1.2006,-1.1952,-1.1904,-1.1823,-1.1782,-1.1755,-1.1796,-1.1735,-1.1647,-1.1619,-1.1619,-1.1619,-1.1619,-1.1619,-1.1619,-1.1619,-1.1619,-1.166,-1.1748,-1.1959,-1.2128,-1.2169,-1.2244,-1.221,-1.2149,-1.2108,-1.2047,-1.2113,-1.2052,-1.1965,-1.1864,-1.1864,-1.202,-1.204,-1.2101,-1.2203,-1.2298,-1.2658,-0.0,-0.0,-0.0,-0.0,-0.0,-0.0,-0.377,-0.8649,-0.8649,-0.9576,-0.9673,-1.0352,-1.0751,-1.0724,-1.0717,-1.0717,-1.0717,-1.0717,-1.0717,-1.0717,-1.0717,-1.0717,-1.0717,-1.0717,-1.0717,-1.0717,-1.0717,-1.0717,-1.0717,-1.0717,-1.0717,-1.0704,-1.0697,-1.0704,-1.0704,-1.0677,-1.0704,-1.0717,-1.085,-1.1637,-1.2808,-1.2931,-1.2203,-1.2157,-1.4021,-1.6915,-1.903,-1.7843,-1.6441,-1.6043,-1.4493,-1.3447,-1.3062,-1.163,-1.085,-1.0758,-1.0846,-1.0982,-1.1118,-1.1114,-1.1261,-1.1525,-1.1606,-1.1613,-1.1619,-1.1619,-1.1619,-1.1619,-1.1619,-1.1619,-1.1619,-1.164,-1.1708,-1.1782,-1.1857,-1.1938,-1.1972,-1.1932,-1.1877,-1.1843,-1.1796,-1.1714,-1.166,-1.1728,-1.1769,-1.1681,-1.1619,-1.1633,-1.1626,-1.1633,-1.1619,-1.1619,-1.1619,-1.1619,-1.1633,-1.1721,-1.1857,-1.206,-1.2094,-1.2115,-1.2081,-1.2026,-1.1925,-1.1857,-1.1928,-1.1914,-1.183,-1.171,-1.171,-1.1724,-1.1898,-1.1979,-1.2074,-1.2169,-1.2264,-0.3636,-0.0404,-0.4308,-0.6065,-0.5792,-0.4031,-0.4702,-0.7675,-0.9856,-1.0665,-1.0765,-1.0758,-1.0744,-1.0724,-1.0717,-1.0717,-1.0717,-1.0717,-1.0717,-1.0717,-1.0717,-1.0717,-1.0717,-1.0717,-1.0717,-1.0717,-1.0717,-1.0717,-1.0717,-1.0717,-1.0717,-1.0717,-1.0717,-1.0711,-1.0717,-1.0717,-1.1372,-1.215,-1.3062,-1.397,-1.4623,-1.4744,-1.4447,-1.3717,-1.6121,-1.8606,-1.9873,-1.9939,-1.8908,-1.8512,-1.7216,-1.6302,-1.5913,-1.4763,-1.3744,-1.4024,-1.4057,-1.3254,-1.1579,-1.1307,-1.1457,-1.1572,-1.1619,-1.1619,-1.1619,-1.1619,-1.1619,-1.1619,-1.1619,-1.1619,-1.1619,-1.1619,-1.1647,-1.1708,-1.165,-1.1816,-1.187,-1.1717,-1.1677,-1.1803,-1.1775,-1.1714,-1.1681,-1.1762,-1.1809,-1.1748,-1.1735,-1.1775,-1.1721,-1.166,-1.164,-1.1619,-1.1619,-1.1619,-1.1626,-1.1667,-1.1748,-1.1898,-1.1932,-1.1945,-1.1959,-1.1898,-1.1809,-1.1742,-1.1694,-1.1694,-1.1714,-1.1721,-1.159,-1.1748,-1.1762,-1.1843,-1.1925,-1.2054,-1.2169,-0.6736,-0.3228,-0.755,-0.9868,-1.0424,-0.7804,-0.6844,-0.7111,-0.9558,-1.0778,-1.0751,-1.0744,-1.0738,-1.0724,-1.0717,-1.0717,-1.0717,-1.0717,-1.0717,-1.0717,-1.0717,-1.0717,-1.0717,-1.0717,-1.0717,-1.0717,-1.0717,-1.0717,-1.0717,-1.0717,-1.0717,-1.0717,-1.0717,-1.0717,-1.085,-1.1372,-1.2281,-1.397,-1.5005,-1.5784,-1.6431,-1.656,-1.6818,-1.7462,-1.8512,-1.9736,-2.0847,-2.0922,-2.0982,-2.0589,-1.9152,-1.7988,-1.7859,-1.6441,-1.5633,-1.581,-1.5893,-1.5245,-1.3295,-1.2322,-1.1896,-1.1987,-1.1763,-1.1619,-1.1619,-1.1619,-1.1619,-1.1619,-1.1619,-1.1619,-1.1619,-1.1619,-1.166,-1.1714,-1.163,-1.161,-1.1769,-1.171,-1.173,-1.183,-1.1809,-1.1769,-1.1769,-1.183,-1.1843,-1.1803,-1.183,-1.1891,-1.1809,-1.1687,-1.1653,-1.1619,-1.1619,-1.1619,-1.1619,-1.1647,-1.1714,-1.1755,-1.1782,-1.1816,-1.1857,-1.1816,-1.1728,-1.1667,-1.1619,-1.1633,-1.1667,-1.164,-1.1619,-1.166,-1.1694,-1.1701,-1.1775,-1.1918,-1.2088,-0.7397,-0.9716,-0.6987,-0.7932,-1.0672,-1.0538,-1.0238,-0.994,-1.0485,-1.0744,-1.0731,-1.0724,-1.0724,-1.0717,-1.0717,-1.0717,-1.0717,-1.0717,-1.0717,-1.0717,-1.0717,-1.0717,-1.0717,-1.0717,-1.0717,-1.0717,-1.0717,-1.0717,-1.0717,-1.0717,-1.0717,-1.0717,-1.0717,-1.0717,-1.1505,-1.28,-1.4101,-1.5524,-1.6431,-1.7216,-1.7988,-1.85,-1.8896,-2.0068,-2.0716,-2.0982,-2.1122,-2.1109,-2.1109,-2.0982,-1.9674,-1.8896,-1.864,-1.7647,-1.713,-1.7356,-1.7459,-1.7245,-1.6324,-1.4072,-1.2768,-1.3128,-1.2888,-1.19,-1.1619,-1.1619,-1.1619,-1.1619,-1.1619,-1.1619,-1.1619,-1.1626,-1.1667,-1.1762,-1.1683,-1.1891,-1.1925,-1.1999,-1.1999,-1.1898,-1.1857,-1.185,-1.1816,-1.1877,-1.1898,-1.1857,-1.183,-1.1884,-1.1775,-1.1667,-1.164,-1.1619,-1.1619,-1.1619,-1.1619,-1.1653,-1.1681,-1.1701,-1.1721,-1.1755,-1.1796,-1.1728,-1.1667,-1.1647,-1.1619,-1.1619,-1.1619,-1.1619,-1.1619,-1.1619,-1.1633,-1.1667,-1.1701,-1.1803,-1.1999,-0.9407,-1.0498,-0.9256,-0.9395,-1.0778,-1.0758,-1.0744,-1.0738,-1.0738,-1.0731,-1.0717,-1.0717,-1.0717,-1.0717,-1.0717,-1.0717,-1.0717,-1.0717,-1.0717,-1.0717,-1.0717,-1.0717,-1.0717,-1.0717,-1.0717,-1.0717,-1.0717,-1.0717,-1.0717,-1.085,-1.0717,-1.0717,-1.085,-1.1497,-1.2545,-1.4744,-1.656,-1.7474,-1.8512,-1.9546,-1.9801,-2.0068,-2.0462,-2.0982,-2.1109,-2.1109,-2.1109,-2.1109,-2.1109,-2.0969,-2.0335,-2.0081,-1.9992,-1.9309,-1.9256,-1.9508,-1.9638,-1.9876,-1.9679,-1.6997,-1.4647,-1.2656,-1.2843,-1.2888,-1.2187,-1.1763,-1.1619,-1.1619,-1.1763,-1.19,-1.1626,-1.1626,-1.1667,-1.1803,-1.1911,-1.1999,-1.2081,-1.2155,-1.2128,-1.2026,-1.1999,-1.1993,-1.1945,-1.1904,-1.1918,-1.1918,-1.1891,-1.185,-1.1755,-1.1674,-1.1653,-1.164,-1.164,-1.1626,-1.1619,-1.1633,-1.1647,-1.1653,-1.166,-1.1694,-1.1728,-1.1687,-1.1633,-1.1619,-1.1619,-1.1619,-1.1619,-1.1619,-1.1619,-1.1619,-1.164,-1.1667,-1.1694,-1.1728,-1.1884,-1.0744,-1.0744,-1.0731,-1.0731,-1.0744,-1.0724,-1.0717,-1.0717,-1.0717,-1.0717,-1.0717,-1.0717,-1.0717,-1.0717,-1.0717,-1.0717,-1.0717,-1.0717,-1.0717,-1.0717,-1.0717,-1.0717,-1.0717,-1.0717,-1.0717,-1.085,-1.124,-1.1505,-1.0717,-1.138,-1.1769,-1.1769,-1.1769,-1.2553,-1.3578,-1.656,-1.8768,-1.9546,-2.0322,-2.1109,-2.0982,-2.0982,-2.0982,-2.1109,-2.1109,-2.1109,-2.1109,-2.1109,-2.1109,-2.1109,-2.0982,-2.1162,-2.1283,-2.1456,-2.1737,-2.2031,-2.2311,-2.2552,-2.1932,-1.99,-1.6806,-1.5247,-1.4823,-1.4574,-1.3595,-1.3174,-1.3737,-1.2602,-1.2466,-1.2194,-1.1942,-1.1708,-1.1823,-1.1986,-1.1925,-1.2005,-1.2237,-1.2311,-1.2237,-1.2162,-1.2169,-1.2182,-1.2067,-1.2013,-1.1979,-1.1952,-1.187,-1.185,-1.1816,-1.1742,-1.1687,-1.1681,-1.1674,-1.1653,-1.1626,-1.1633,-1.1633,-1.1633,-1.164,-1.1633,-1.164,-1.1619,-1.1619,-1.1619,-1.1619,-1.1619,-1.1619,-1.1619,-1.1619,-1.1619,-1.1633,-1.1653,-1.1721,-1.1748,-1.1782,-1.085,-1.0717,-1.085,-1.085,-1.0982,-1.0717,-1.0717,-1.0717,-1.0717,-1.085,-1.0982,-1.0982,-1.0836,-1.0836,-1.1087,-1.1637,-1.1372,-1.1108,-1.0982,-1.1108,-1.124,-1.0982,-1.1115,-1.124,-1.1894,-1.1372,-1.2289,-1.2545,-1.124,-1.2676,-1.3333,-1.3595,-1.3857,-1.4128,-1.384,-1.6818,-1.9291,-2.0716,-2.0982,-2.1109,-2.1109,-2.1109,-2.1109,-2.1109,-2.1109,-2.1109,-2.1109,-2.1109,-2.1109,-2.1109,-2.1109,-2.1189,-2.139,-2.1523,-2.183,-2.2258,-2.2392,-2.2592,-2.2682,-2.102,-1.9518,-1.8433,-1.7851,-1.6685,-1.6826,-1.6545,-1.5849,-1.4441,-1.4014,-1.3387,-1.2612,-1.183,-1.1972,-1.2121,-1.2059,-1.2132,-1.2359,-1.2413,-1.2338,-1.2305,-1.2372,-1.24,-1.225,-1.2135,-1.2074,-1.1999,-1.1877,-1.1837,-1.1837,-1.1843,-1.1803,-1.1623,-1.1616,-1.1681,-1.1653,-1.1626,-1.1619,-1.1619,-1.1619,-1.1619,-1.1619,-1.1619,-1.1619,-1.1619,-1.1619,-1.1619,-1.1619,-1.1619,-1.1619,-1.1619,-1.1619,-1.1647,-1.1714,-1.1755,-1.1755,-1.3062,-1.4101,-1.4101,-1.4101,-1.384,-1.1637,-1.0717,-1.0717,-1.0717,-1.1372,-1.2289,-1.2413,-1.1687,-1.165,-1.3012,-1.397,-1.384,-1.2676,-1.2413,-1.2413,-1.2413,-1.2413,-1.2676,-1.3325,-1.384,-1.4232,-1.4884,-1.4884,-1.4232,-1.4884,-1.4744,-1.4995,-1.6322,-1.6829,-1.7345,-1.9024,-2.0716,-2.0969,-2.1109,-2.1109,-2.1109,-2.1109,-2.1109,-2.1109,-2.1109,-2.1109,-2.1109,-2.1109,-2.1109,-2.1109,-2.1109,-2.1189,-2.139,-2.1537,-2.1911,-2.2245,-2.2392,-2.2739,-2.2846,-2.2173,-2.1949,-2.1143,-2.0133,-1.8659,-1.7529,-1.7248,-1.6685,-1.6263,-1.5416,-1.4534,-1.3801,-1.2393,-1.2241,-1.2182,-1.2291,-1.2352,-1.242,-1.2461,-1.2454,-1.244,-1.2481,-1.242,-1.2305,-1.2277,-1.223,-1.2169,-1.2067,-1.1925,-1.1891,-1.1959,-1.1965,-1.177,-1.1724,-1.161,-1.1681,-1.164,-1.1619,-1.1619,-1.1619,-1.1619,-1.1619,-1.1619,-1.1619,-1.1619,-1.1619,-1.1619,-1.1619,-1.1619,-1.1619,-1.1619,-1.1619,-1.1619,-1.166,-1.1674,-1.166,-1.5574,-1.7455,-1.6333,-1.5913,-1.5524,-1.3456,-1.2545,-1.2545,-1.2545,-1.3193,-1.4101,-1.4232,-1.3926,-1.3873,-1.4808,-1.6322,-1.6203,-1.5014,-1.4232,-1.4232,-1.4232,-1.4232,-1.4614,-1.5265,-1.5265,-1.6043,-1.656,-1.6571,-1.5794,-1.6431,-1.7109,-1.8045,-1.8792,-1.9164,-1.9674,-2.0449,-2.0969,-2.1109,-2.1109,-2.1109,-2.1109,-2.1109,-2.1109,-2.1109,-2.1109,-2.1109,-2.1109,-2.1109,-2.1109,-2.1109,-2.1109,-2.1162,-2.1363,-2.1657,-2.2017,-2.2245,-2.2539,-2.2832,-2.2859,-2.2859,-2.2638,-2.2553,-2.1647,-2.0617,-1.9495,-1.9634,-1.8938,-1.8089,-1.6826,-1.6245,-1.5525,-1.3978,-1.3675,-1.3798,-1.3115,-1.3173,-1.3283,-1.3472,-1.2769,-1.2776,-1.2494,-1.2427,-1.2386,-1.2406,-1.2393,-1.2338,-1.2271,-1.2108,-1.1952,-1.2006,-1.2033,-1.1817,-1.1757,-1.1782,-1.1687,-1.1633,-1.1619,-1.1619,-1.1619,-1.1619,-1.1619,-1.1619,-1.1619,-1.1619,-1.1619,-1.1619,-1.1619,-1.1619,-1.1619,-1.1619,-1.1619,-1.1619,-1.1619,-1.1619,-1.1619,-1.8007,-2.0307,-1.7444,-1.6172,-1.6172,-1.6172,-1.5913,-1.5784,-1.5784,-1.5784,-1.5913,-1.5913,-1.6302,-1.7141,-1.6721,-1.698,-1.7411,-1.6592,-1.6053,-1.5913,-1.6043,-1.6043,-1.6043,-1.6431,-1.7076,-1.7076,-1.7474,-1.8116,-1.6711,-1.8431,-2.0067,-2.0605,-2.0501,-2.0602,-2.0716,-2.0843,-2.1109,-2.1109,-2.1109,-2.1109,-2.1109,-2.1109,-2.1109,-2.1109,-2.1109,-2.1109,-2.1109,-2.1109,-2.1109,-2.1109,-2.1109,-2.1296,-2.1523,-2.1817,-2.2111,-2.2418,-2.2726,-2.2819,-2.2859,-2.2859,-2.2873,-2.2913,-2.2735,-2.2722,-2.2435,-2.1734,-2.117,-2.0328,-1.9217,-1.853,-1.7663,-1.7161,-1.6808,-1.5922,-1.467,-1.4646,-1.4802,-1.4438,-1.3304,-1.2895,-1.2635,-1.2467,-1.2467,-1.2481,-1.2461,-1.24,-1.2311,-1.2182,-1.2054,-1.202,-1.202,-1.177,-1.1703,-1.1775,-1.1694,-1.1626,-1.1619,-1.1619,-1.1619,-1.1619,-1.1619,-1.1619,-1.1619,-1.1619,-1.1619,-1.1619,-1.1619,-1.1619,-1.1619,-1.1619,-1.1619,-1.1619,-1.1619,-1.1619,-1.1626,-1.9072,-2.0975,-1.9966,-1.9546,-1.9674,-1.9546,-1.8256,-1.6043,-1.5913,-1.656,-1.7731,-1.7731,-1.8524,-1.9966,-1.9814,-1.9826,-1.9304,-1.8652,-1.7999,-1.7731,-1.7731,-1.7731,-1.8116,-1.8768,-1.9291,-1.9546,-1.9801,-1.9801,-1.9674,-2.1049,-2.1049,-2.1022,-2.1136,-2.1109,-2.1109,-2.1109,-2.1109,-2.1109,-2.1109,-2.1109,-2.1109,-2.1109,-2.1109,-2.1109,-2.1109,-2.1109,-2.1109,-2.1109,-2.1109,-2.1109,-2.1109,-2.1256,-2.1537,-2.1844,-2.2151,-2.2672,-2.2832,-2.2859,-2.2859,-2.2859,-2.2859,-2.2859,-2.2859,-2.2859,-2.2859,-2.2859,-2.2572,-2.1734,-2.0906,-2.004,-1.9453,-1.8965,-1.8613,-1.7826,-1.7059,-1.7233,-1.7121,-1.5737,-1.4621,-1.3355,-1.3098,-1.2501,-1.2501,-1.2501,-1.2474,-1.2427,-1.2332,-1.2196,-1.2094,-1.2189,-1.1959,-1.1703,-1.1663,-1.1735,-1.1681,-1.1619,-1.1619,-1.1619,-1.1619,-1.1619,-1.1619,-1.1619,-1.1619,-1.1619,-1.1619,-1.1619,-1.1619,-1.1619,-1.1619,-1.1619,-1.1619,-1.1619,-1.1619,-1.1619,-1.1619,-2.0195,-2.0969,-2.1109,-2.1109,-2.1109,-2.1109,-1.9801,-1.8116,-1.7988,-1.864,-1.9419,-1.9546,-2.0068,-2.0843,-2.0969,-2.0969,-2.0856,-2.0068,-1.9546,-1.9546,-1.9419,-1.9546,-2.0068,-2.0462,-2.0716,-2.1109,-2.1109,-2.0843,-2.1109,-2.1109,-2.1109,-2.1109,-2.1109,-2.1109,-2.1109,-2.1109,-2.1109,-2.1109,-2.1109,-2.1109,-2.1109,-2.1109,-2.1109,-2.1109,-2.1109,-2.1109,-2.1109,-2.1109,-2.1109,-2.1149,-2.1176,-2.1349,-2.163,-2.1924,-2.2325,-2.2766,-2.2846,-2.2859,-2.2859,-2.2859,-2.2859,-2.2859,-2.2859,-2.2859,-2.2859,-2.2859,-2.2859,-2.2448,-2.176,-2.1232,-2.0762,-2.0438,-2.0098,-1.9764,-2.0101,-2.0306,-1.898,-1.7336,-1.5807,-1.4267,-1.3399,-1.2804,-1.2501,-1.2494,-1.2433,-1.2298,-1.2169,-1.2047,-1.1965,-1.1911,-1.183,-1.1728,-1.1721,-1.1701,-1.1653,-1.1619,-1.1619,-1.1619,-1.1619,-1.1619,-1.1619,-1.1619,-1.1619,-1.1619,-1.1619,-1.1619,-1.1619,-1.1619,-1.1619,-1.1619,-1.1619,-1.1619,-1.1619,-1.1619,-1.1619,-2.1096,-2.1109,-2.1109,-2.1109,-2.1109,-2.1235,-2.1348,-2.1362,-2.1335,-2.1348,-2.1348,-2.1348,-2.1475,-2.2215,-2.2201,-2.1839,-2.1853,-2.1335,-2.0956,-2.1109,-2.0716,-2.0716,-2.0716,-2.1109,-2.1109,-2.1109,-2.1109,-2.1109,-2.1109,-2.1109,-2.1109,-2.1109,-2.1109,-2.1109,-2.1109,-2.1109,-2.1109,-2.1109,-2.1109,-2.1109,-2.1109,-2.1109,-2.1109,-2.1109,-2.1109,-2.1109,-2.1109,-2.1109,-2.1109,-2.1203,-2.1349,-2.1523,-2.1844,-2.2164,-2.2579,-2.2739,-2.2846,-2.2859,-2.2859,-2.2859,-2.2859,-2.2859,-2.2859,-2.2859,-2.2859,-2.2859,-2.2859,-2.2859,-2.231,-2.2173,-2.1836,-2.171,-2.1634,-2.1558,-2.1707,-2.1623,-2.0935,-1.8927,-1.6768,-1.5337,-1.3929,-1.321,-1.2352,-1.2338,-1.2298,-1.2149,-1.2026,-1.1918,-1.1857,-1.1809,-1.1735,-1.164,-1.1653,-1.1667,-1.1647,-1.1619,-1.1619,-1.1619,-1.1619,-1.1619,-1.1619,-1.1619,-1.1619,-1.1619,-1.1619,-1.1619,-1.1619,-1.1619,-1.1619,-1.1619,-1.1619,-1.1619,-1.1619,-1.1619,-1.1619,-2.1109,-2.1109,-2.1109,-2.1109,-2.1222,-2.2466,-2.2952,-2.3076,-2.4286,-2.4039,-2.3201,-2.3076,-2.3559,-2.4409,-2.4394,-2.3915,-2.3076,-2.2591,-2.2104,-2.1475,-2.1235,-2.1109,-2.1109,-2.1109,-2.1109,-2.1109,-2.1109,-2.1109,-2.1109,-2.1109,-2.1109,-2.1109,-2.1109,-2.1109,-2.1109,-2.1109,-2.1109,-2.1109,-2.1109,-2.1109,-2.1109,-2.1109,-2.1109,-2.1109,-2.1109,-2.1109,-2.1109,-2.1109,-2.1109,-2.1149,-2.1403,-2.175,-2.2191,-2.2552,-2.2752,-2.2846,-2.2859,-2.2859,-2.2859,-2.2859,-2.2859,-2.2859,-2.2859,-2.2859,-2.2859,-2.2859,-2.2859,-2.2859,-2.2859,-2.2859,-2.2859,-2.2859,-2.2873,-2.2926,-2.302,-2.2802,-2.2576,-2.0226,-1.798,-1.6165,-1.4605,-1.3595,-1.262,-1.2176,-1.2128,-1.2047,-1.1938,-1.1843,-1.1796,-1.1748,-1.1694,-1.1626,-1.1626,-1.1626,-1.1619,-1.1619,-1.1619,-1.1619,-1.1619,-1.1619,-1.1619,-1.1619,-1.1619,-1.1619,-1.1619,-1.1619,-1.1619,-1.1619,-1.1619,-1.1619,-1.1619,-1.1619,-1.1619,-1.1619,-1.1619,-2.1109,-2.1109,-2.1109,-2.1109,-2.1222,-2.2104,-2.2827,-2.3698,-2.4548,-2.5269,-2.5513,-2.5146,-2.5269,-2.5984,-2.5968,-2.5863,-2.4655,-2.3807,-2.3201,-2.2341,-2.1475,-2.1109,-2.1109,-2.1109,-2.1109,-2.1109,-2.1109,-2.1109,-2.1109,-2.1109,-2.1109,-2.1109,-2.1109,-2.1109,-2.1109,-2.1109,-2.1109,-2.1109,-2.1109,-2.1109,-2.1109,-2.1109,-2.1109,-2.1109,-2.1109,-2.1109,-2.1109,-2.1122,-2.1203,-2.1403,-2.1737,-2.2138,-2.2512,-2.2739,-2.2832,-2.2859,-2.2859,-2.2859,-2.2859,-2.2859,-2.2859,-2.2859,-2.2859,-2.2859,-2.2859,-2.2859,-2.2859,-2.2859,-2.2859,-2.2859,-2.2859,-2.2859,-2.2859,-2.2899,-2.2961,-2.2754,-2.2127,-2.0519,-1.7935,-1.5493,-1.4391,-1.3761,-1.2947,-1.2121,-1.206,-1.1952,-1.1843,-1.1775,-1.1728,-1.1708,-1.1647,-1.1619,-1.1619,-1.1619,-1.1619,-1.1619,-1.1619,-1.1619,-1.1619,-1.1619,-1.1619,-1.1619,-1.1619,-1.1619,-1.1619,-1.1619,-1.1619,-1.1619,-1.1619,-1.1619,-1.1619,-1.1619,-1.1619,-1.1619,-1.1619,-2.1109,-2.1109,-2.1109,-2.1109,-2.1222,-2.1727,-2.2702,-2.3931,-2.4548,-2.6244,-2.8188,-2.7211,-2.6712,-2.6591,-2.6591,-2.647,-2.6261,-2.61,-2.5119,-2.3201,-2.209,-2.1601,-2.1222,-2.1109,-2.1109,-2.1109,-2.1109,-2.1109,-2.1109,-2.1109,-2.1109,-2.1109,-2.1109,-2.1109,-2.1109,-2.1109,-2.1109,-2.1109,-2.1109,-2.1109,-2.1109,-2.1109,-2.1109,-2.1109,-2.1109,-2.1109,-2.1109,-2.1149,-2.1269,-2.1537,-2.1924,-2.2365,-2.2672,-2.2832,-2.2846,-2.2859,-2.2859,-2.2859,-2.2859,-2.2859,-2.2859,-2.2859,-2.2859,-2.2859,-2.2859,-2.2859,-2.2859,-2.2859,-2.2859,-2.2859,-2.2859,-2.2859,-2.2859,-2.2886,-2.2849,-2.2867,-2.1898,-2.0922,-1.8422,-1.5766,-1.4855,-1.4213,-1.2949,-1.2134,-1.1945,-1.1843,-1.1782,-1.1721,-1.1674,-1.166,-1.1633,-1.1619,-1.1619,-1.1619,-1.1619,-1.1619,-1.1619,-1.1619,-1.1619,-1.1619,-1.1619,-1.1619,-1.1619,-1.1619,-1.1619,-1.1619,-1.1619,-1.1619,-1.1619,-1.1619,-1.1619,-1.1619,-1.1619,-1.1619,-1.1619,-2.1109,-2.1109,-2.1109,-2.1109,-2.1475,-2.3792,-2.5253,-2.5984,-2.8307,-2.9903,-3.002,-3.0274,-3.002,-2.9903,-3.002,-2.9412,-2.8086,-2.8126,-2.6272,-2.3852,-2.345,-2.2327,-2.1475,-2.1235,-2.1109,-2.1109,-2.1109,-2.1109,-2.1109,-2.1109,-2.1109,-2.1109,-2.1109,-2.1109,-2.1109,-2.1109,-2.1109,-2.1109,-2.1109,-2.1109,-2.1109,-2.1109,-2.1109,-2.1109,-2.1109,-2.1109,-2.1109,-2.1109,-2.1136,-2.1349,-2.1804,-2.2365,-2.2672,-2.2859,-2.2859,-2.2859,-2.2859,-2.2859,-2.2859,-2.2859,-2.2859,-2.2859,-2.2859,-2.2859,-2.2859,-2.2859,-2.2859,-2.2859,-2.2859,-2.2859,-2.2859,-2.2859,-2.2859,-2.2859,-2.2868,-2.2881,-2.2467,-2.1622,-2.011,-1.7866,-1.6149,-1.4424,-1.2156,-1.1755,-1.1755,-1.1687,-1.1687,-1.164,-1.164,-1.1626,-1.1619,-1.1619,-1.1619,-1.1619,-1.1619,-1.1619,-1.1619,-1.1619,-1.1619,-1.1619,-1.1619,-1.1619,-1.1619,-1.1619,-1.1619,-1.1619,-1.1619,-1.1619,-1.1619,-1.1619,-1.1619,-1.1619,-1.1619,-1.1619,-1.1619]},{"header":{"parameterUnit":"m.s-1","parameterCategory":1,"la1":31.0,"la2":29.5877,"lo1":-88.7671,"lo2":-86.6584,"dy":0.0162,"dx":0.0185,"nx":115,"ny":88,"refTime":"2024-08-07T06:00:00:Z","depth":0,"parameterNumber":3,"parameterNumberName":"V-component_of_WINDS"},"data":[0.0,0.0,0.0,0.0,0.0,0.0,0.0,0.0,0.0,0.0,0.0,0.0,0.0,0.0,0.0,0.0,0.0,0.0,0.0,0.0,0.0,0.0,0.0,0.0,0.0,0.0,0.0,0.0,0.0,0.0,0.0,0.0,0.0,0.0,0.0,0.0,0.0,0.0,0.0,0.0,0.0,0.0,0.0,0.0,0.0,0.0,0.0,0.0,0.0,0.0,0.0,0.0,0.0,0.0,0.0,0.0,0.0,0.0,0.0,0.0,0.0,0.0,0.0,0.0,0.0,0.0,0.0,0.0,0.0,0.0,0.0,0.0,0.0,0.0,0.0,0.0,0.0,0.0,0.0,0.0,0.0,0.0,0.0,0.0,0.0,0.0,0.0,0.0,0.0,0.0,0.0,0.0,0.0,0.0,0.0,0.0,0.0,0.0,0.0,0.0,0.0,0.0,0.0,0.0,0.0,0.0,0.0,0.0,0.0,0.0,0.0,0.0,0.0,0.0,0.0,0.0,0.0,0.0,0.0,0.0,0.0,0.0,0.0,0.0,0.0,0.0,0.0,0.0,0.0,0.0,0.0,0.0,0.0,0.0,0.0,0.0,0.0,0.0,0.0,0.0,0.0,0.0,0.0,0.0,0.0,0.0,0.0,0.0,0.0,0.0,0.0,0.0,0.0,0.0,0.0,0.0,0.0,0.0,0.0,0.0,0.0,0.0,0.0,0.0,0.0,0.0,0.0,0.0,0.0,0.0,0.0,0.0,0.0,0.0,0.0,0.0,0.0,0.0,0.0,0.0,0.0,0.0,0.0,0.0,0.0,0.0,0.0,0.0,0.0,0.0,0.0,0.0,0.0,0.0,0.0,0.0,0.0,0.0,0.0,0.0,0.0,0.0,0.0,0.0,0.0,0.0,0.0,0.0,0.0,0.0,0.0,0.0,0.0,0.0,0.0,0.0,0.0,0.0,0.0,0.0,0.0,0.0,0.0,0.0,0.0,0.0,0.0,0.0,0.0,0.0,0.0,0.0,0.0,0.0,0.0,0.0,0.0,0.0,0.0,0.0,0.0,0.0,0.0,0.0,0.0,0.0,0.0,0.0,0.0,0.0,0.0,0.0,0.0,0.0,0.0,0.0,0.0,0.0,0.0,0.0,0.0,0.0,0.0,0.0,0.0,0.0,0.0,0.0,0.0,0.0,0.0,0.0,0.0,0.0,0.0,0.0,0.0,0.0,0.0,0.0,0.0,0.0,0.0,0.0,0.0,0.0,0.0,0.0,0.0,0.0,0.0,0.0,0.0,0.0,0.0,0.0,0.0,0.0,0.0,0.0,0.0,0.0,0.0,0.0,0.0,0.0,0.0,0.0,0.0,0.0,0.0,0.0,0.0,0.0,0.0,0.0,0.0,0.0,0.0,0.0,0.0,0.0,0.0,0.0,0.0,0.0,0.0,0.0,0.0,0.0,0.0,0.0,0.0,0.0,0.0,0.0,0.0,0.0,0.0,0.0,0.0,0.0,0.0,0.0,0.0,0.0,0.0,0.0,0.0,0.0,0.0,0.0,0.0,0.0,0.0,0.0,0.0,0.0,0.0,0.0,0.0,0.0,0.0,0.0,0.0,0.0,0.0,0.0,0.0,0.0,0.0,0.0,0.0,0.0,0.0,0.0,0.0,0.0,0.0,0.0,0.0,0.0,0.0,0.0,0.0,0.0,0.0,0.0,0.0,0.0,0.0,0.0,0.0,0.0,0.0,0.0,0.0,0.0,0.0,0.0,0.0,0.0,0.0,0.0,0.0,0.0,0.0,0.0,0.0,0.0,0.0,0.0,0.0,0.0,0.0,0.0,0.0,0.0,0.0,0.0,0.0,0.0,0.0,0.0,0.0,0.0,0.0,0.0,0.0,0.0,0.0,0.0,0.0,0.0,0.0,0.0,0.0,0.0,0.0,0.0,0.0,0.0,0.0,0.0,0.0,0.0,0.0,0.0,0.0,0.0,0.0,0.0,0.0,0.0,0.0,0.0,0.0,0.0,0.0,0.0,0.0,0.0,0.0,0.0,0.0,0.0,0.0,0.0,0.0,0.0,0.0,0.0,0.0,0.0,0.0,0.0,0.0,0.0,0.0,0.0,0.0,0.0,0.0,0.0,0.0,0.0,0.0,0.0,0.0,0.0,0.0,0.0,0.0,0.0,0.0,0.0,0.0,0.0,0.0,0.0,0.0,0.0,0.0,0.0,0.0,0.0,0.0,0.0,0.0,0.0,0.0,0.0,0.0,0.0,0.0,0.0,0.0,0.0,0.0,0.0,0.0,0.0,0.0,0.0,0.0,0.0,0.0,0.0,0.0,0.0,0.0,0.0,0.0,0.0,0.0,0.0,0.0,0.0,0.0,0.0,0.0,0.0,0.0,0.0,0.0,0.0,0.0,0.0,0.0,0.0,0.0,0.0,0.0,0.0,0.0,0.0,0.0,0.0,0.0,0.0,0.0,0.0,0.0,0.0,0.0,0.0,0.0,0.0,0.0,0.0,0.0,0.0,0.0,0.0,0.0,0.0,0.0,0.0,0.0,0.0,0.0,0.0,0.0,0.0,0.0,0.0,0.0,0.0,0.0,0.0,0.0,0.0,0.0,0.0,0.0,0.0,0.0,0.0,0.0,0.0,0.0,0.0,0.0,0.0,0.0,0.0,0.0,0.0,0.0,0.0,0.0,0.0,0.0,0.0,0.0,0.0,0.0,0.0,0.0,0.0,0.0,0.0,0.0,0.0,0.0,0.0,0.0,0.0,0.0,0.0,0.0,0.0,0.0,0.0,0.0,0.0,0.0,0.0,0.0,0.0,0.0,0.0,0.0,0.0,0.0,0.0,0.0,0.0,0.0,0.0,0.0,0.0,0.0,0.0,0.0,0.0,0.0,0.0,0.0,0.0,0.0,0.0,0.0,0.0,0.0,0.0,0.0,0.0,0.0,0.0,0.0,0.0,0.0,0.0,0.0,0.0,0.0,0.0,0.0,0.0,0.0,0.0,0.0,0.0,0.0,0.0,0.0,0.0,0.0,0.0,0.0,0.0,0.0,0.0,0.0,0.0,0.0,0.0,0.0,0.0,0.0,0.0,0.0,0.0,0.0,0.0,0.0,0.0,0.0,0.0,0.0,0.0,0.0,0.0,0.0,0.0,0.0,0.0,0.0,0.0,0.0,0.0,0.0,0.0,0.0,0.0,0.0,0.0,0.0,0.0,0.0,0.0,0.0,0.0,0.0,0.0,0.0,0.0,0.0,0.0,0.0,0.0,0.0,0.0,0.0,0.0,0.0,0.0,0.0,0.0,0.0,0.0,0.0,0.0,0.0,0.0,0.0,0.0,0.0,0.0,0.0,0.0,0.0,0.0,0.0,0.0,0.0,0.0,0.0,0.0,0.0,0.0,0.0,0.0,0.0,0.0,0.0,0.0,0.0,0.0,0.0,0.0,0.0,0.0,0.0,0.0,0.0,0.0,0.0,0.0,0.0,0.0,0.0,0.0,0.0,0.0,0.0,0.0,0.0,0.0,0.0,0.0,0.0,0.0,0.0,0.0,0.0,0.0,0.0,0.0,0.0,0.0,0.0,0.0,0.0,0.0,0.0,0.0,0.0,0.0,0.0,0.0,0.0,0.0,0.0,0.0,0.0,0.0,0.0,0.0,0.0,0.0,0.0,0.0,0.0,0.0,0.0,0.0,0.0,0.0,0.0,0.0,0.0,0.0,0.0,0.0,0.0,0.0,0.0,0.0,0.0,0.0,0.0,0.0,0.0,0.0,0.0,0.0,0.0,0.0,0.0,0.0,0.0,0.0,0.0,0.0,0.0,0.0,0.0,0.0,0.0,0.0,0.0,0.0,0.0,0.0,0.0,0.0,0.0,0.0,0.0,0.0,0.0,0.0,0.0,0.0,0.0,0.0,0.0,0.0,0.0,0.0,0.0,0.0,0.0,0.0,0.0,0.0,0.0,0.0,0.0,0.0,0.0,0.0,0.0,0.0,0.0,0.0,0.0,0.0,0.0,0.0,0.0,0.0,0.0,0.0,0.0,0.0,0.0,0.0,0.0,0.0,0.0,0.0,0.0,0.0,0.0,0.0,0.0,0.0,0.0,0.0,0.0,0.0,0.0,0.0,0.0,0.0,0.0,0.0,0.0,0.0,0.0,0.0,0.0,0.0,0.0,0.0,0.0,0.0,0.0,0.0,0.0,0.0,0.0,0.0,0.0,0.0,0.0,0.0,0.0,0.0,0.0,0.0,0.0,0.0,-1.2172,0.0,0.0,0.0,0.0,0.0,0.0,0.0,0.0,0.0,0.0,0.0,0.0,0.0,0.0,0.0,0.0,0.0,0.0,0.0,0.0,0.0,0.0,0.0,0.0,0.0,0.0,0.0,0.0,0.0,0.0,0.0,0.0,0.0,0.0,0.0,0.0,0.0,0.0,0.0,0.0,0.0,0.0,0.0,0.0,0.0,0.0,0.0,0.0,0.0,0.0,0.0,0.0,0.0,0.0,0.0,0.0,0.0,0.0,0.0,0.0,0.0,0.0,0.0,0.0,0.0,0.0,0.0,0.0,0.0,0.0,0.0,0.0,0.0,0.0,0.0,0.0,0.0,0.0,0.0,0.0,0.0,0.0,0.0,0.0,0.0,0.0,0.0,0.0,0.0,0.0,0.0,0.0,0.0,0.0,0.0,0.0,0.0,0.0,0.0,0.0,0.0,0.0,0.0,0.0,0.0,0.0,0.0,0.0,0.0,0.0,-1.456,-1.4329,-1.4125,-1.3626,-1.2826,0.0,0.0,0.0,0.0,0.0,0.0,0.0,0.0,0.0,0.0,0.0,0.0,0.0,0.0,0.0,0.0,0.0,0.0,0.0,0.0,0.0,0.0,0.0,0.0,0.0,0.0,0.0,0.0,0.0,0.0,0.0,0.0,0.0,0.0,0.0,0.0,0.0,0.0,0.0,0.0,0.0,0.0,0.0,0.0,0.0,0.0,0.0,0.0,0.0,0.0,0.0,0.0,0.0,0.0,0.0,0.0,0.0,0.0,0.0,0.0,0.0,0.0,0.0,0.0,0.0,0.0,0.0,0.0,0.0,0.0,0.0,0.0,0.0,0.0,0.0,0.0,0.0,0.0,0.0,0.0,0.0,0.0,0.0,0.0,0.0,0.0,0.0,0.0,0.0,0.0,0.0,0.0,0.0,0.0,0.0,0.0,0.0,0.0,0.0,0.0,0.0,0.0,0.0,0.0,0.0,0.0,0.0,0.0,0.0,0.0,0.0,0.0,-1.5032,-1.4564,-1.3966,0.0,0.0,0.0,0.0,0.0,0.0,0.0,0.0,0.0,0.0,0.0,0.0,0.0,0.0,0.0,0.0,0.0,0.0,0.0,0.0,0.0,0.0,0.0,0.0,0.0,0.0,0.0,0.0,0.0,0.0,0.0,0.0,0.0,0.0,0.0,0.0,0.0,0.0,0.0,0.0,0.0,0.0,0.0,0.0,0.0,0.0,0.0,0.0,0.0,0.0,0.0,0.0,0.0,0.0,0.0,0.0,0.0,0.0,0.0,0.0,0.0,0.0,0.0,0.0,0.0,0.0,0.0,0.0,0.0,0.0,0.0,0.0,0.0,0.0,0.0,0.0,0.0,0.0,0.0,0.0,0.0,0.0,0.0,0.0,0.0,0.0,0.0,0.0,0.0,0.0,0.0,0.0,0.0,0.0,0.0,0.0,0.0,0.0,0.0,0.0,0.0,0.0,0.0,0.0,0.0,0.0,0.0,0.0,0.0,0.0,-1.6573,-1.7051,-1.7541,0.0,-1.6253,0.0,0.0,0.0,0.0,0.0,0.0,0.0,0.0,0.0,0.0,0.0,0.0,0.0,0.0,0.0,0.0,0.0,0.0,0.0,0.0,0.0,0.0,0.0,0.0,0.0,0.0,0.0,0.0,0.0,0.0,0.0,0.0,0.0,0.0,0.0,0.0,0.0,0.0,0.0,0.0,0.0,0.0,0.0,0.0,0.0,0.0,0.0,0.0,0.0,0.0,0.0,0.0,0.0,0.0,0.0,0.0,0.0,0.0,0.0,0.0,0.0,0.0,0.0,0.0,0.0,0.0,0.0,0.0,0.0,0.0,0.0,0.0,0.0,0.0,0.0,0.0,0.0,0.0,0.0,0.0,0.0,0.0,0.0,0.0,0.0,0.0,0.0,0.0,0.0,0.0,0.0,0.0,0.0,0.0,0.0,0.0,0.0,0.0,0.0,0.0,0.0,0.0,0.0,0.0,0.0,0.0,0.0,0.0,0.0,0.0,-1.7588,-1.7821,-1.7409,-1.6757,0.0,0.0,0.0,0.0,0.0,0.0,0.0,0.0,0.0,0.0,0.0,0.0,0.0,0.0,0.0,0.0,0.0,0.0,0.0,0.0,0.0,0.0,0.0,0.0,0.0,0.0,0.0,0.0,0.0,0.0,0.0,0.0,0.0,0.0,0.0,0.0,0.0,0.0,0.0,0.0,0.0,0.0,0.0,0.0,0.0,0.0,0.0,0.0,0.0,0.0,0.0,0.0,0.0,0.0,0.0,0.0,0.0,0.0,0.0,0.0,0.0,0.0,0.0,0.0,0.0,0.0,0.0,0.0,0.0,0.0,0.0,0.0,0.0,0.0,0.0,0.0,0.0,0.0,0.0,0.0,0.0,0.0,0.0,0.0,0.0,0.0,0.0,0.0,0.0,0.0,0.0,0.0,0.0,0.0,0.0,0.0,0.0,0.0,0.0,0.0,0.0,0.0,0.0,0.0,0.0,0.0,0.0,0.0,0.0,0.0,-1.7526,0.0,-1.8555,-1.8012,-1.705,-1.5654,0.0,0.0,0.0,0.0,0.0,0.0,0.0,0.0,0.0,0.0,0.0,0.0,0.0,0.0,0.0,0.0,0.0,0.0,0.0,0.0,0.0,0.0,0.0,0.0,0.0,0.0,0.0,0.0,0.0,0.0,0.0,0.0,0.0,0.0,0.0,0.0,0.0,0.0,0.0,0.0,0.0,0.0,0.0,0.0,0.0,0.0,0.0,0.0,0.0,0.0,0.0,0.0,0.0,0.0,0.0,0.0,0.0,0.0,0.0,0.0,0.0,0.0,0.0,0.0,0.0,0.0,0.0,0.0,0.0,0.0,0.0,0.0,0.0,0.0,0.0,0.0,0.0,0.0,0.0,0.0,0.0,0.0,0.0,0.0,0.0,0.0,0.0,0.0,0.0,0.0,0.0,0.0,0.0,0.0,0.0,0.0,0.0,0.0,0.0,0.0,0.0,0.0,0.0,0.0,0.0,0.0,0.0,0.0,0.0,-1.7903,-1.8154,-1.9534,-2.0364,-1.9278,0.0,0.0,0.0,0.0,0.0,0.0,0.0,0.0,0.0,0.0,0.0,0.0,0.0,0.0,0.0,0.0,0.0,0.0,0.0,0.0,0.0,0.0,0.0,0.0,0.0,0.0,0.0,0.0,0.0,0.0,0.0,0.0,0.0,0.0,0.0,0.0,0.0,0.0,0.0,0.0,0.0,0.0,0.0,0.0,0.0,0.0,0.0,0.0,0.0,0.0,0.0,0.0,0.0,0.0,0.0,0.0,0.0,0.0,0.0,0.0,0.0,0.0,0.0,0.0,0.0,0.0,0.0,0.0,0.0,0.0,0.0,0.0,0.0,0.0,0.0,0.0,0.0,0.0,0.0,0.0,0.0,0.0,0.0,0.0,0.0,0.0,0.0,0.0,0.0,0.0,0.0,0.0,0.0,0.0,0.0,0.0,0.0,0.0,0.0,0.0,0.0,0.0,0.0,0.0,0.0,0.0,0.0,0.0,0.0,-1.6363,-1.7708,-1.9404,-2.1378,-1.9959,-1.8599,0.0,0.0,0.0,0.0,0.0,0.0,0.0,0.0,0.0,0.0,0.0,0.0,0.0,0.0,0.0,0.0,0.0,0.0,0.0,0.0,0.0,0.0,0.0,0.0,0.0,0.0,0.0,0.0,0.0,0.0,0.0,0.0,0.0,0.0,0.0,0.0,0.0,0.0,0.0,0.0,0.0,0.0,0.0,0.0,0.0,0.0,0.0,0.0,0.0,0.0,0.0,0.0,0.0,0.0,0.0,0.0,0.0,0.0,0.0,0.0,0.0,0.0,0.0,0.0,0.0,0.0,0.0,0.0,0.0,0.0,0.0,0.0,0.0,0.0,0.0,0.0,0.0,0.0,0.0,0.0,0.0,0.0,0.0,0.0,0.0,0.0,0.0,0.0,0.0,0.0,0.0,0.0,0.0,0.0,0.0,0.0,0.0,0.0,0.0,0.0,0.0,0.0,0.0,0.0,0.0,0.0,0.0,0.0,0.0,-1.6505,0.0,-2.1102,0.0,-2.0329,-1.8768,0.0,0.0,0.0,0.0,0.0,0.0,0.0,0.0,0.0,0.0,0.0,0.0,0.0,0.0,0.0,0.0,0.0,0.0,0.0,0.0,0.0,0.0,0.0,0.0,0.0,0.0,0.0,0.0,0.0,0.0,0.0,0.0,0.0,0.0,0.0,0.0,0.0,0.0,0.0,0.0,0.0,0.0,0.0,0.0,0.0,0.0,0.0,0.0,0.0,0.0,0.0,0.0,0.0,0.0,0.0,0.0,0.0,0.0,0.0,0.0,0.0,0.0,0.0,0.0,0.0,0.0,0.0,0.0,0.0,0.0,0.0,0.0,0.0,0.0,0.0,0.0,0.0,0.0,0.0,0.0,0.0,0.0,0.0,0.0,0.0,0.0,0.0,0.0,0.0,0.0,0.0,0.0,0.0,0.0,0.0,0.0,0.0,0.0,0.0,0.0,0.0,0.0,0.0,0.0,0.0,0.0,0.0,0.0,-1.5955,-1.9706,-2.2249,-2.2948,-2.1712,-2.1766,-1.9953,0.0,0.0,0.0,0.0,0.0,0.0,0.0,0.0,0.0,0.0,0.0,0.0,0.0,0.0,0.0,0.0,0.0,0.0,0.0,0.0,0.0,0.0,0.0,0.0,0.0,0.0,0.0,0.0,0.0,0.0,0.0,0.0,0.0,0.0,0.0,0.0,0.0,0.0,0.0,0.0,0.0,0.0,0.0,0.0,0.0,0.0,0.0,0.0,0.0,0.0,0.0,0.0,0.0,0.0,0.0,0.0,0.0,0.0,0.0,0.0,0.0,0.0,0.0,0.0,0.0,0.0,0.0,0.0,0.0,0.0,0.0,0.0,0.0,0.0,0.0,0.0,0.0,0.0,0.0,0.0,0.0,0.0,0.0,0.0,0.0,0.0,0.0,0.0,0.0,0.0,0.0,0.0,0.0,0.0,0.0,0.0,0.0,0.0,0.0,0.0,0.0,0.0,0.0,0.0,0.0,0.0,0.0,0.0,0.0,-1.9545,-2.1891,-2.3576,-2.437,-2.2532,-2.1092,0.0,0.0,0.0,0.0,0.0,0.0,0.0,0.0,0.0,0.0,0.0,0.0,0.0,0.0,0.0,0.0,0.0,0.0,0.0,0.0,0.0,0.0,0.0,0.0,0.0,0.0,0.0,0.0,0.0,0.0,0.0,0.0,0.0,0.0,0.0,0.0,0.0,0.0,0.0,0.0,0.0,0.0,0.0,0.0,0.0,0.0,0.0,0.0,0.0,0.0,0.0,0.0,0.0,0.0,0.0,0.0,0.0,0.0,0.0,0.0,0.0,0.0,0.0,0.0,0.0,0.0,0.0,0.0,0.0,0.0,0.0,0.0,0.0,0.0,0.0,0.0,0.0,0.0,0.0,0.0,0.0,0.0,0.0,0.0,0.0,0.0,0.0,0.0,0.0,0.0,0.0,0.0,0.0,0.0,0.0,0.0,0.0,0.0,0.0,0.0,0.0,0.0,0.0,0.0,0.0,0.0,0.0,0.0,0.0,-2.2043,-2.3701,-2.5077,-2.5998,-2.3427,-2.1947,-2.1732,0.0,0.0,0.0,0.0,0.0,0.0,0.0,0.0,0.0,0.0,0.0,0.0,0.0,0.0,0.0,0.0,0.0,0.0,0.0,0.0,0.0,0.0,0.0,0.0,0.0,0.0,0.0,0.0,0.0,0.0,0.0,0.0,0.0,0.0,0.0,0.0,0.0,0.0,0.0,0.0,0.0,0.0,0.0,0.0,0.0,0.0,0.0,0.0,0.0,0.0,0.0,0.0,0.0,0.0,0.0,0.0,0.0,0.0,0.0,0.0,0.0,0.0,0.0,0.0,0.0,0.0,0.0,0.0,0.0,0.0,0.0,0.0,0.0,0.0,0.0,0.0,0.0,0.0,0.0,0.0,0.0,0.0,0.0,0.0,0.0,0.0,0.0,0.0,0.0,0.0,0.0,0.0,0.0,0.0,0.0,0.0,0.0,0.0,0.0,0.0,0.0,0.0,0.0,0.0,0.0,0.0,0.0,0.0,-2.6346,-2.7321,-2.744,-2.6642,-2.4646,-2.2825,0.0,0.0,0.0,0.0,0.0,0.0,0.0,0.0,0.0,0.0,0.0,0.0,0.0,0.0,0.0,0.0,0.0,0.0,0.0,0.0,0.0,0.0,0.0,0.0,0.0,0.0,0.0,0.0,0.0,0.0,0.0,0.0,0.0,0.0,0.0,0.0,0.0,0.0,0.0,0.0,0.0,0.0,0.0,0.0,0.0,0.0,0.0,0.0,0.0,0.0,0.0,0.0,0.0,0.0,0.0,0.0,0.0,0.0,0.0,0.0,0.0,0.0,0.0,0.0,0.0,0.0,0.0,0.0,0.0,0.0,0.0,0.0,0.0,0.0,0.0,0.0,0.0,0.0,0.0,0.0,0.0,0.0,0.0,0.0,0.0,0.0,0.0,0.0,0.0,0.0,0.0,0.0,0.0,0.0,0.0,0.0,0.0,0.0,0.0,0.0,0.0,0.0,0.0,0.0,0.0,0.0,0.0,0.0,0.0,-2.6394,-2.9093,-3.0221,-2.9427,-2.7211,-2.5504,0.0,0.0,0.0,0.0,0.0,0.0,0.0,0.0,0.0,0.0,0.0,0.0,0.0,0.0,0.0,0.0,0.0,0.0,0.0,0.0,0.0,0.0,0.0,0.0,0.0,0.0,0.0,0.0,0.0,0.0,0.0,0.0,0.0,0.0,0.0,0.0,0.0,0.0,0.0,0.0,0.0,0.0,0.0,0.0,0.0,0.0,0.0,0.0,0.0,0.0,0.0,0.0,0.0,0.0,0.0,0.0,0.0,0.0,0.0,0.0,0.0,0.0,0.0,0.0,0.0,0.0,0.0,0.0,0.0,0.0,0.0,0.0,0.0,0.0,0.0,0.0,0.0,0.0,0.0,0.0,0.0,0.0,0.0,0.0,0.0,0.0,0.0,0.0,0.0,0.0,0.0,0.0,0.0,0.0,0.0,0.0,0.0,0.0,0.0,0.0,0.0,0.0,0.0,0.0,0.0,0.0,0.0,0.0,-2.6997,-2.8418,-3.1062,-3.2225,-3.1804,-2.976,-2.7742,0.0,0.0,0.0,0.0,0.0,0.0,0.0,0.0,0.0,0.0,0.0,0.0,0.0,0.0,0.0,0.0,0.0,0.0,0.0,0.0,0.0,0.0,0.0,0.0,0.0,0.0,0.0,0.0,0.0,0.0,0.0,0.0,0.0,0.0,0.0,0.0,0.0,0.0,0.0,0.0,0.0,0.0,0.0,0.0,0.0,0.0,0.0,0.0,0.0,0.0,0.0,0.0,0.0,0.0,0.0,0.0,0.0,0.0,0.0,0.0,0.0,0.0,0.0,0.0,0.0,0.0,0.0,0.0,0.0,0.0,0.0,0.0,0.0,0.0,0.0,0.0,0.0,0.0,0.0,0.0,0.0,0.0,0.0,0.0,0.0,0.0,0.0,0.0,0.0,0.0,0.0,0.0,0.0,0.0,0.0,0.0,0.0,0.0,0.0,0.0,0.0,0.0,0.0,0.0,0.0,0.0,0.0,0.0,-2.8159,-3.1145,-3.2904,-3.3711,-3.3457,-3.1931,-2.9591,0.0,0.0,0.0,0.0,0.0,0.0,0.0,0.0,0.0,0.0,0.0,0.0,0.0,0.0,0.0,0.0,0.0,0.0,0.0,0.0,0.0,0.0,0.0,0.0,0.0,0.0,0.0,0.0,0.0,0.0,0.0,0.0,0.0,0.0,0.0,0.0,0.0,0.0,0.0,0.0,0.0,0.0,0.0,0.0,0.0,0.0,0.0,0.0,0.0,0.0,0.0,0.0,0.0,0.0,0.0,0.0,0.0,0.0,0.0,0.0,0.0,0.0,0.0,0.0,0.0,0.0,0.0,0.0,0.0,0.0,0.0,0.0,0.0,0.0,0.0,0.0,0.0,0.0,0.0,0.0,0.0,0.0,0.0,0.0,0.0,0.0,0.0,0.0,0.0,0.0,0.0,0.0,0.0,0.0,0.0,0.0,0.0,0.0,0.0,0.0,0.0,0.0,0.0,0.0,0.0,0.0,0.0,0.0,-2.9636,-3.0455,-3.3528,-3.4618,-3.3502,-3.2261,-3.0447,0.0,0.0,0.0,0.0,0.0,0.0,0.0,0.0,0.0,0.0,0.0,0.0,0.0,0.0,0.0,0.0,0.0,0.0,0.0,0.0,0.0,0.0,0.0,0.0,0.0,0.0,0.0,0.0,0.0,0.0,0.0,0.0,0.0,0.0,0.0,0.0,0.0,0.0,0.0,0.0,0.0,0.0,0.0,0.0,0.0,0.0,0.0,0.0,-3.1696,0.0,0.0,0.0,0.0,0.0,0.0,0.0,0.0,0.0,0.0,0.0,0.0,0.0,0.0,0.0,0.0,0.0,0.0,0.0,0.0,0.0,0.0,0.0,0.0,0.0,0.0,0.0,0.0,0.0,0.0,0.0,0.0,0.0,0.0,0.0,0.0,0.0,0.0,0.0,0.0,0.0,0.0,0.0,0.0,0.0,0.0,0.0,0.0,0.0,0.0,0.0,0.0,0.0,0.0,0.0,0.0,0.0,0.0,0.0,-3.0712,-3.2049,-3.4361,-3.509,-3.3988,-3.3453,-3.1685,0.0,0.0,0.0,0.0,0.0,0.0,0.0,0.0,0.0,0.0,0.0,0.0,0.0,0.0,0.0,0.0,0.0,0.0,0.0,0.0,0.0,0.0,0.0,0.0,0.0,0.0,0.0,0.0,0.0,0.0,0.0,0.0,0.0,0.0,0.0,0.0,0.0,0.0,0.0,0.0,0.0,0.0,0.0,0.0,0.0,0.0,0.0,0.0,0.0,0.0,0.0,0.0,0.0,0.0,0.0,0.0,0.0,0.0,0.0,0.0,0.0,0.0,0.0,0.0,0.0,0.0,0.0,0.0,0.0,0.0,0.0,0.0,0.0,0.0,0.0,0.0,0.0,0.0,0.0,0.0,0.0,0.0,0.0,0.0,0.0,0.0,0.0,0.0,0.0,0.0,0.0,0.0,0.0,0.0,0.0,0.0,0.0,0.0,0.0,0.0,0.0,0.0,0.0,0.0,0.0,0.0,0.0,-2.8765,-3.1181,-3.3727,-3.4755,-3.4947,-3.4365,-3.4445,-3.2719,-2.8965,0.0,0.0,0.0,0.0,0.0,0.0,0.0,0.0,0.0,0.0,0.0,0.0,0.0,0.0,0.0,0.0,0.0,0.0,0.0,0.0,0.0,0.0,0.0,0.0,0.0,0.0,0.0,0.0,0.0,0.0,0.0,0.0,0.0,0.0,0.0,0.0,0.0,0.0,-2.8758,-3.1047,0.0,0.0,0.0,0.0,0.0,0.0,0.0,0.0,-3.4824,0.0,0.0,0.0,0.0,0.0,0.0,0.0,0.0,0.0,0.0,0.0,0.0,0.0,0.0,0.0,0.0,0.0,0.0,0.0,0.0,0.0,0.0,0.0,0.0,0.0,0.0,0.0,0.0,0.0,0.0,0.0,0.0,0.0,0.0,0.0,0.0,0.0,0.0,0.0,0.0,0.0,0.0,0.0,0.0,0.0,0.0,0.0,0.0,0.0,0.0,0.0,0.0,0.0,0.0,0.0,0.0,-2.7504,-2.8621,-3.0319,-3.253,-3.3363,-3.3691,-3.3584,-3.3713,-3.2184,-2.9015,0.0,0.0,0.0,0.0,0.0,0.0,0.0,0.0,0.0,0.0,0.0,0.0,0.0,0.0,0.0,0.0,0.0,0.0,0.0,0.0,0.0,0.0,0.0,0.0,0.0,0.0,0.0,0.0,0.0,0.0,0.0,0.0,0.0,0.0,0.0,0.0,0.0,0.0,0.0,-3.5038,-3.6261,0.0,0.0,0.0,0.0,0.0,0.0,0.0,0.0,-3.609,0.0,0.0,0.0,0.0,0.0,0.0,0.0,0.0,0.0,0.0,0.0,0.0,0.0,0.0,0.0,0.0,0.0,0.0,0.0,0.0,0.0,0.0,0.0,0.0,0.0,0.0,0.0,0.0,0.0,0.0,0.0,0.0,0.0,0.0,0.0,0.0,0.0,0.0,0.0,0.0,0.0,0.0,0.0,0.0,0.0,0.0,0.0,0.0,0.0,0.0,0.0,0.0,0.0,0.0,0.0,-2.7778,-2.9415,-3.122,-3.3282,-3.3827,-3.3899,-3.3475,-3.2967,-3.1384,0.0,0.0,0.0,0.0,0.0,0.0,0.0,0.0,0.0,0.0,0.0,0.0,0.0,0.0,0.0,0.0,0.0,0.0,0.0,0.0,0.0,0.0,0.0,0.0,0.0,0.0,0.0,0.0,0.0,0.0,0.0,0.0,0.0,0.0,0.0,0.0,0.0,0.0,0.0,0.0,-3.6066,-3.7459,-3.8358,0.0,0.0,0.0,0.0,0.0,0.0,-3.7409,-3.7396,0.0,0.0,0.0,0.0,0.0,0.0,0.0,0.0,0.0,0.0,0.0,0.0,0.0,0.0,0.0,0.0,0.0,0.0,0.0,0.0,0.0,0.0,0.0,0.0,0.0,0.0,0.0,0.0,0.0,0.0,0.0,0.0,0.0,0.0,0.0,0.0,0.0,0.0,0.0,0.0,0.0,0.0,0.0,0.0,0.0,0.0,0.0,0.0,0.0,0.0,0.0,0.0,0.0,0.0,0.0,-2.7966,-2.991,-3.1849,-3.3813,-3.4159,-3.3988,-3.3388,-3.2442,-3.0776,0.0,0.0,0.0,0.0,0.0,0.0,0.0,0.0,0.0,0.0,0.0,0.0,0.0,0.0,0.0,0.0,0.0,0.0,0.0,0.0,0.0,0.0,0.0,0.0,0.0,0.0,0.0,0.0,0.0,0.0,0.0,0.0,0.0,0.0,0.0,0.0,0.0,0.0,0.0,0.0,0.0,-3.8928,-4.0,-3.9687,0.0,0.0,0.0,0.0,-3.9237,-3.9069,0.0,0.0,0.0,0.0,0.0,0.0,0.0,0.0,0.0,0.0,0.0,0.0,0.0,0.0,0.0,0.0,0.0,0.0,0.0,0.0,0.0,0.0,0.0,0.0,0.0,0.0,0.0,0.0,0.0,0.0,0.0,0.0,0.0,0.0,0.0,0.0,0.0,0.0,0.0,0.0,0.0,0.0,0.0,0.0,0.0,0.0,0.0,0.0,0.0,0.0,0.0,0.0,0.0,0.0,0.0,0.0,-2.7756,-2.8876,-3.0437,-3.2568,-3.2712,-3.2707,-3.2616,-3.2224,-3.0839,0.0,0.0,0.0,0.0,0.0,0.0,0.0,0.0,0.0,0.0,0.0,0.0,0.0,0.0,0.0,0.0,0.0,0.0,0.0,0.0,0.0,0.0,0.0,0.0,0.0,0.0,0.0,0.0,0.0,0.0,0.0,0.0,0.0,0.0,0.0,0.0,0.0,0.0,0.0,0.0,0.0,-4.2497,-4.1211,-4.1523,-4.1874,0.0,0.0,-4.1008,-4.2415,-4.1762,0.0,0.0,0.0,0.0,0.0,0.0,0.0,0.0,0.0,0.0,0.0,0.0,0.0,0.0,0.0,0.0,0.0,0.0,0.0,0.0,0.0,0.0,0.0,0.0,0.0,0.0,0.0,0.0,0.0,0.0,0.0,0.0,0.0,0.0,0.0,0.0,0.0,0.0,0.0,0.0,0.0,0.0,0.0,0.0,0.0,0.0,0.0,0.0,0.0,0.0,0.0,0.0,0.0,0.0,0.0,-2.467,-2.8147,-2.9656,-3.1329,-3.3153,-3.3225,-3.3248,-3.3255,-3.1756,-3.0282,0.0,0.0,0.0,0.0,0.0,0.0,0.0,0.0,0.0,0.0,0.0,0.0,0.0,0.0,0.0,0.0,0.0,0.0,0.0,0.0,0.0,0.0,0.0,0.0,0.0,0.0,0.0,0.0,0.0,0.0,0.0,0.0,0.0,0.0,0.0,0.0,0.0,0.0,0.0,0.0,0.0,0.0,-4.3242,-4.3594,0.0,0.0,0.0,-4.2887,-4.2814,0.0,0.0,0.0,0.0,0.0,0.0,0.0,0.0,0.0,0.0,0.0,0.0,0.0,0.0,0.0,0.0,0.0,0.0,0.0,0.0,0.0,0.0,0.0,0.0,0.0,0.0,0.0,0.0,0.0,0.0,0.0,0.0,0.0,0.0,0.0,0.0,0.0,0.0,0.0,0.0,0.0,0.0,0.0,0.0,0.0,0.0,0.0,0.0,0.0,0.0,0.0,0.0,0.0,0.0,0.0,0.0,0.0,-2.8578,-3.0442,-3.2192,-3.3733,-3.3807,-3.3807,-3.377,-3.1641,0.0,0.0,0.0,0.0,0.0,0.0,0.0,0.0,0.0,0.0,0.0,0.0,0.0,0.0,0.0,0.0,0.0,0.0,0.0,0.0,0.0,0.0,0.0,0.0,0.0,0.0,0.0,-2.4646,0.0,0.0,0.0,0.0,0.0,0.0,0.0,0.0,0.0,0.0,0.0,0.0,0.0,0.0,-4.2793,-4.467,-4.5028,-4.5074,0.0,0.0,-4.3999,-4.3161,-4.2936,-4.2153,0.0,0.0,0.0,0.0,0.0,0.0,0.0,0.0,0.0,0.0,0.0,0.0,0.0,0.0,0.0,0.0,0.0,0.0,0.0,0.0,0.0,0.0,0.0,0.0,0.0,0.0,0.0,0.0,0.0,0.0,0.0,0.0,0.0,0.0,0.0,0.0,0.0,0.0,0.0,0.0,0.0,0.0,0.0,0.0,0.0,0.0,0.0,0.0,0.0,0.0,0.0,0.0,0.0,0.0,0.0,-2.8879,-3.0577,-3.2217,-3.3733,-3.3807,-3.3807,-3.377,-3.2192,-3.0696,0.0,0.0,0.0,0.0,0.0,0.0,0.0,0.0,0.0,0.0,0.0,0.0,0.0,0.0,0.0,0.0,0.0,0.0,0.0,0.0,0.0,0.0,0.0,0.0,0.0,0.0,0.0,0.0,0.0,0.0,0.0,0.0,0.0,0.0,0.0,0.0,0.0,0.0,0.0,0.0,0.0,-4.463,-4.4784,-4.5328,-4.5908,0.0,0.0,-4.3983,-4.4424,-4.413,-4.3088,-4.07,0.0,0.0,0.0,0.0,0.0,0.0,0.0,0.0,0.0,0.0,0.0,0.0,0.0,0.0,0.0,0.0,0.0,0.0,0.0,0.0,0.0,0.0,0.0,0.0,0.0,0.0,0.0,0.0,0.0,0.0,0.0,0.0,0.0,0.0,0.0,0.0,0.0,0.0,0.0,0.0,0.0,0.0,0.0,0.0,0.0,0.0,0.0,0.0,0.0,0.0,0.0,0.0,0.0,-2.6691,-3.0018,-3.2291,-3.4134,-3.5539,-3.5588,-3.552,-3.5349,-3.3906,-3.2423,0.0,0.0,0.0,0.0,0.0,0.0,0.0,0.0,0.0,0.0,0.0,0.0,0.0,0.0,0.0,0.0,0.0,0.0,0.0,0.0,0.0,0.0,0.0,0.0,0.0,0.0,0.0,0.0,-3.0221,-3.0931,-3.0914,0.0,0.0,0.0,0.0,0.0,0.0,0.0,0.0,0.0,0.0,-4.5263,-4.682,-4.7032,0.0,0.0,-4.6411,-4.5605,-4.5036,-4.4834,-4.4017,-4.1915,-4.1498,0.0,0.0,0.0,0.0,0.0,0.0,0.0,0.0,0.0,0.0,0.0,0.0,0.0,0.0,0.0,0.0,0.0,0.0,0.0,0.0,0.0,0.0,0.0,0.0,0.0,0.0,0.0,0.0,0.0,0.0,0.0,0.0,0.0,0.0,0.0,0.0,0.0,0.0,0.0,0.0,0.0,0.0,0.0,0.0,0.0,0.0,0.0,0.0,0.0,0.0,0.0,0.0,-2.768,-3.0689,-3.3333,-3.5405,-3.6855,-3.6855,-3.6771,-3.6541,-3.5355,-3.4023,0.0,0.0,0.0,0.0,0.0,0.0,0.0,0.0,0.0,0.0,0.0,0.0,0.0,0.0,0.0,0.0,0.0,0.0,0.0,0.0,0.0,0.0,0.0,0.0,0.0,0.0,0.0,0.0,-3.1934,-3.2481,-3.2212,0.0,0.0,0.0,0.0,0.0,0.0,0.0,0.0,0.0,0.0,-4.6723,-4.8391,-4.8296,-4.7963,-4.7716,-4.7099,-4.6323,-4.5527,-4.5523,-4.5053,-4.3275,0.0,0.0,0.0,0.0,0.0,0.0,0.0,0.0,0.0,0.0,0.0,0.0,0.0,0.0,0.0,0.0,0.0,0.0,0.0,0.0,0.0,0.0,0.0,0.0,0.0,0.0,0.0,0.0,0.0,0.0,-1.4027,0.0,0.0,0.0,0.0,0.0,0.0,0.0,0.0,0.0,0.0,0.0,0.0,0.0,0.0,0.0,0.0,0.0,0.0,0.0,0.0,0.0,0.0,-2.8241,-3.071,-3.3466,-3.5567,-3.7154,-3.723,-3.7209,-3.7187,-3.6406,-3.5302,-3.3794,0.0,0.0,0.0,0.0,0.0,0.0,0.0,0.0,0.0,0.0,0.0,0.0,0.0,0.0,0.0,0.0,0.0,0.0,0.0,0.0,0.0,0.0,0.0,0.0,0.0,0.0,-3.1764,-3.3211,-3.3814,0.0,0.0,0.0,0.0,0.0,0.0,0.0,0.0,0.0,0.0,-4.7396,-4.9367,-4.9074,-4.8876,-4.8579,-4.7872,-4.6689,-4.588,-4.5957,-4.6361,-4.6214,0.0,0.0,0.0,0.0,0.0,0.0,0.0,0.0,0.0,0.0,0.0,0.0,0.0,0.0,0.0,0.0,0.0,0.0,0.0,0.0,0.0,0.0,0.0,0.0,0.0,0.0,0.0,-1.8455,-1.7232,0.0,0.0,0.0,0.0,0.0,0.0,0.0,0.0,0.0,0.0,0.0,-2.921,-3.1205,0.0,0.0,0.0,0.0,0.0,0.0,0.0,0.0,0.0,0.0,0.0,0.0,-3.0364,-3.2835,-3.6107,-3.8209,-3.9107,-3.9107,-3.9005,-3.8773,-3.818,-3.6939,-3.5062,0.0,0.0,0.0,0.0,0.0,0.0,0.0,0.0,0.0,0.0,0.0,0.0,0.0,0.0,0.0,0.0,0.0,0.0,0.0,0.0,0.0,0.0,0.0,0.0,0.0,-3.2712,0.0,0.0,0.0,0.0,0.0,0.0,0.0,0.0,0.0,0.0,0.0,-4.6609,-4.7664,-4.926,-5.0368,-5.0506,-5.0291,-5.0062,0.0,0.0,0.0,0.0,0.0,0.0,0.0,0.0,0.0,0.0,0.0,0.0,0.0,0.0,-4.9748,-4.5846,-4.5955,-4.6432,-4.5626,0.0,0.0,0.0,0.0,0.0,0.0,0.0,0.0,0.0,0.0,0.0,0.0,0.0,0.0,-2.1179,0.0,-2.0965,0.0,0.0,0.0,0.0,0.0,0.0,0.0,0.0,-3.1983,-3.371,-3.3347,-3.5474,-3.5747,0.0,-3.4685,-3.2639,0.0,0.0,0.0,0.0,0.0,0.0,0.0,0.0,-3.2125,-3.4381,-3.7602,-3.9599,-4.023,-4.0251,-4.0139,-3.9906,-3.9643,-3.8793,-3.743,-3.583,-3.4106,0.0,0.0,0.0,0.0,0.0,0.0,0.0,0.0,0.0,0.0,0.0,0.0,0.0,0.0,0.0,0.0,0.0,0.0,0.0,0.0,0.0,0.0,0.0,-3.5007,0.0,0.0,0.0,0.0,0.0,0.0,0.0,0.0,0.0,-4.5532,-4.7838,-4.9989,-5.1048,-5.1895,-5.2439,-5.2422,0.0,0.0,0.0,0.0,0.0,0.0,0.0,-5.0842,-5.0839,-5.0839,-5.1022,-5.1536,-5.2968,-5.3849,-5.3298,0.0,0.0,-5.0071,-4.9698,-4.9915,-4.9661,-4.9848,-5.0251,-5.1059,-5.1867,-5.2454,0.0,0.0,0.0,0.0,0.0,0.0,0.0,0.0,-2.3045,-2.3573,0.0,-2.3716,0.0,0.0,0.0,0.0,0.0,0.0,0.0,0.0,-3.6663,-3.8339,-3.777,-3.8758,-3.9227,-3.9227,-3.9666,-3.8793,-3.6618,-3.2878,0.0,0.0,0.0,0.0,0.0,0.0,-3.3616,-3.5392,-3.8101,-3.9815,-4.0585,-4.0623,-4.0623,-4.0623,-4.0731,-4.0761,-4.0723,-3.9311,-3.7334,-3.4886,-3.3228,0.0,0.0,0.0,0.0,0.0,0.0,0.0,0.0,0.0,0.0,0.0,0.0,0.0,0.0,0.0,0.0,0.0,0.0,0.0,0.0,-3.6507,0.0,0.0,0.0,0.0,0.0,0.0,0.0,0.0,0.0,0.0,-4.7817,-5.151,-5.4549,-5.4549,0.0,0.0,0.0,0.0,-5.3286,-5.3281,-5.1974,-5.1515,-5.3036,-5.4595,-5.5116,-5.3555,0.0,0.0,-5.3628,-5.4656,-5.5207,-5.3702,-5.4803,-5.5721,-5.5684,-5.4232,-5.3449,-5.4209,-5.3812,-5.3665,-5.4436,-5.5244,-5.5721,-2.3745,0.0,0.0,0.0,0.0,-2.3165,-2.4561,-2.7003,-2.723,-2.7298,-2.7314,-2.8094,0.0,0.0,0.0,0.0,0.0,0.0,-3.3794,-3.5393,-3.8123,-3.9731,-4.0405,-4.1687,-4.1933,-4.1384,-4.1804,-4.1095,-3.9386,-3.8611,-3.5602,-3.0547,0.0,0.0,0.0,0.0,-3.6987,-3.8193,-4.0684,-4.214,-4.2425,-4.2425,-4.2479,-4.2572,-4.2618,-4.2666,-4.2754,-4.1757,-4.0328,-3.8479,-3.6753,0.0,0.0,0.0,0.0,0.0,0.0,0.0,0.0,0.0,0.0,0.0,0.0,0.0,0.0,0.0,0.0,0.0,0.0,0.0,-3.6622,-3.7584,-3.9123,0.0,0.0,0.0,0.0,0.0,0.0,0.0,0.0,0.0,-5.4164,-5.5357,-5.628,0.0,0.0,-5.6318,-5.5486,-5.5126,-5.4978,-5.4901,-5.4509,0.0,0.0,-5.6264,-5.6977,-5.5948,-5.6638,-5.7152,-5.6675,-5.7005,-5.7336,-5.7409,-5.7859,-5.8345,-5.8731,-5.6759,-5.5533,-5.6557,-5.6748,-5.7079,-5.8364,-5.8877,-5.8988,-2.723,-2.5565,-2.4384,-2.4868,-2.6308,-2.6,-2.7511,-3.0113,-3.0247,-3.0529,-3.091,-3.1807,-3.0945,-2.8996,-3.0196,0.0,0.0,0.0,-3.6337,-3.7895,-3.9868,-4.1238,-4.2047,-4.2994,-4.3343,-4.2991,-4.3169,-4.2925,-4.2277,-4.2267,-4.0023,-3.5667,0.0,0.0,-3.4841,-3.7665,-3.9552,-4.0462,-4.2255,-4.3217,-4.3272,-4.3269,-4.3452,-4.389,-4.3975,-4.4206,-4.4569,-4.3818,-4.2786,-4.1445,-3.9453,-3.6912,0.0,0.0,0.0,0.0,0.0,0.0,0.0,0.0,0.0,0.0,0.0,-3.0446,-2.8302,0.0,0.0,0.0,-3.4853,-3.7661,-4.0739,-4.1931,0.0,0.0,0.0,0.0,0.0,0.0,0.0,-5.401,-5.628,-5.778,-5.7973,-5.828,-5.8511,-5.8511,-5.8204,-5.7774,-5.7224,0.0,-5.6631,-5.6551,-5.6548,-5.6539,-5.6565,-5.7361,-5.781,-5.7381,-5.7666,-5.8143,-5.8437,-5.8474,-5.8767,-5.9465,-5.9696,-5.9806,-6.0309,-5.8809,-5.7726,-5.8721,-5.8951,-5.9318,-6.0236,-6.0419,-6.0419,-2.9985,-2.9808,-2.7855,-2.773,-2.8929,-2.8997,-3.0306,-3.2285,-3.2378,-3.3211,-3.466,-3.4785,-3.4576,-3.4116,-3.4154,0.0,-3.5465,-3.7832,-3.932,-4.006,-4.1864,-4.2729,-4.277,-4.3321,-4.3693,-4.3998,-4.4058,-4.4411,-4.5028,-4.4296,-4.3311,-4.2099,-4.0662,-3.976,-3.9567,-4.0615,-4.1556,-4.2309,-4.3166,-4.3635,-4.3602,-4.3645,-4.3967,-4.4689,-4.4843,-4.5211,-4.5859,-4.5234,-4.4492,-4.3594,-4.1367,-3.8854,-3.6105,0.0,0.0,0.0,0.0,0.0,0.0,0.0,0.0,0.0,0.0,0.0,0.0,0.0,0.0,0.0,-3.9931,0.0,-4.5778,-4.8086,0.0,0.0,0.0,-5.2356,-5.2664,-5.5434,-5.7049,-5.6357,0.0,0.0,-5.9896,0.0,-6.1012,-6.0973,-6.0204,-5.9601,-5.9484,-5.8687,-5.8194,-5.8002,-5.8006,-5.796,-5.785,-5.7997,-5.8226,-5.8253,-5.818,-5.851,-5.9171,-5.9318,-5.9648,-6.0346,-6.0493,-6.0603,-6.0676,-6.075,-6.0688,-6.0811,-6.0603,-6.0529,-6.0823,-6.0896,-6.0933,-3.1315,-3.192,-3.1351,-3.0905,-3.0633,-3.1395,-3.2388,-3.3552,-3.3581,-3.4499,-3.6076,-3.6136,-3.6707,-3.7648,-3.7619,-3.8286,-3.9519,-4.0543,-4.1392,-4.2051,-4.2469,-4.2884,-4.3321,-4.3689,-4.3943,-4.4028,-4.4587,-4.4927,-4.5092,-4.5125,-4.5071,-4.4837,-4.4526,-4.3041,-4.0583,-4.2671,-4.3889,-4.4074,-4.4909,-4.5364,-4.5445,-4.5546,-4.5377,-4.493,-4.4969,-4.475,-4.4297,-4.4101,-4.3633,-4.2773,-4.2109,-4.0582,-3.79,-3.5133,0.0,0.0,0.0,0.0,0.0,0.0,0.0,0.0,0.0,-3.7153,-3.3596,0.0,-4.1046,0.0,-4.4893,-4.7394,-4.9279,-5.0048,0.0,0.0,-5.5091,-5.6113,-5.9281,-5.9804,-6.0304,-6.1358,-6.2204,-6.2627,-6.2435,-6.2589,-6.2704,-6.2704,-6.1435,-6.0367,-5.9977,-5.9467,-5.8949,-5.8624,-5.8275,-5.7997,-5.807,-5.8547,-5.9098,-5.9722,-5.9832,-5.9905,-6.0089,-6.0126,-6.0382,-6.1117,-6.1312,-6.1801,-6.2915,-6.3218,-6.3423,-6.3819,-6.2658,-6.1704,-6.2915,-6.3172,-6.3209,-3.3031,-3.3522,-3.3945,-3.4015,-3.3903,-3.3452,-3.3739,-3.4677,-3.5014,-3.5695,-3.6661,-3.7291,-3.8319,-3.9412,-3.963,-4.014,-4.0903,-4.1832,-4.2382,-4.2693,-4.3105,-4.3456,-4.3726,-4.4087,-4.4346,-4.4508,-4.4881,-4.5192,-4.5344,-4.5592,-4.5719,-4.5796,-4.595,-4.5043,-4.3227,-4.4642,-4.5425,-4.5425,-4.585,-4.6118,-4.6211,-4.6264,-4.5898,-4.5039,-4.5391,-4.5,-4.375,-4.4062,-4.3711,-4.25,-4.2383,-4.1546,-3.9621,-3.7423,-3.5902,0.0,0.0,0.0,0.0,0.0,0.0,0.0,0.0,0.0,0.0,0.0,-4.5316,-4.7009,-4.9471,-5.1664,-5.3356,-5.4511,-5.628,-5.8973,-5.9133,-6.0019,-6.2397,-6.2228,-6.2267,-6.3205,-6.332,-6.332,-6.332,-6.332,-6.332,-6.3281,-6.2512,-6.1735,-6.1268,-6.0974,-6.0601,-5.9953,-5.8789,-5.8289,-5.8924,-5.9465,-5.9869,-6.0309,-6.0419,-6.0493,-6.086,-6.0933,-6.119,-6.1961,-6.2157,-6.2524,-6.3796,-6.4082,-6.4359,-6.4882,-6.4237,-6.3723,-6.442,-6.464,-6.464,-3.4932,-3.5185,-3.6032,-3.6842,-3.7479,-3.56,-3.5281,-3.6088,-3.6755,-3.7062,-3.715,-3.8623,-3.9625,-4.0222,-4.0861,-4.115,-4.1211,-4.2267,-4.277,-4.2846,-4.3619,-4.3998,-4.3998,-4.4455,-4.4825,-4.5077,-4.512,-4.5303,-4.5624,-4.5757,-4.5808,-4.5827,-4.6001,-4.6103,-4.6155,-4.6254,-4.6289,-4.6289,-4.6289,-4.6289,-4.6289,-4.6289,-4.5898,-4.5078,-4.5737,-4.5307,-4.3672,-4.4375,-4.4062,-4.2539,-4.25,-4.2187,-4.1367,-3.9704,-3.9077,0.0,-3.8238,0.0,0.0,0.0,0.0,0.0,0.0,0.0,0.0,-4.7663,-4.9933,-5.1241,-5.3741,-5.5857,-5.7165,-5.9511,-6.1243,-6.2012,-6.2921,-6.346,-6.3474,-6.3565,-6.3641,-6.3628,-6.3666,-6.3628,-6.3705,-6.3628,-6.3666,-6.3743,-6.3705,-6.3489,-6.3102,-6.2628,-6.2012,-6.1419,-5.9589,-5.9013,-6.0331,-6.0603,-6.0603,-6.0713,-6.0823,-6.097,-6.163,-6.1741,-6.1961,-6.2622,-6.2732,-6.3135,-6.4053,-6.4286,-6.4583,-6.5543,-6.5632,-6.5521,-6.5485,-6.5485,-6.5448,-3.6573,-3.795,-3.8131,-3.8712,-3.9406,-3.9029,-3.8965,-3.9182,-3.9272,-3.9403,-3.9519,-4.0917,-4.1218,-4.083,-4.1902,-4.2371,-4.237,-4.3028,-4.3321,-4.3356,-4.3818,-4.3998,-4.4028,-4.4688,-4.5033,-4.5137,-4.5381,-4.5589,-4.5757,-4.5796,-4.588,-4.6062,-4.6074,-4.6142,-4.6271,0.0,0.0,0.0,-4.6289,-4.6289,-4.6289,-4.6289,-4.5898,-4.5039,-4.5074,0.0,-4.2773,-4.3437,-4.3437,-4.25,-4.3086,0.0,0.0,0.0,0.0,0.0,0.0,0.0,0.0,0.0,0.0,0.0,-5.0026,-4.9353,-4.8663,-5.328,-5.5934,-5.4934,-5.7703,-5.9435,-5.9088,-6.0704,-6.1897,-6.2127,-6.346,-6.4345,-6.4359,-6.4974,-6.5436,-6.5397,-6.5397,-6.5397,-6.532,-6.5397,-6.5359,-6.5282,-6.5397,-6.5372,-6.5244,-6.3466,-6.2062,-6.1695,-6.071,-6.0525,-6.2144,-6.1789,-6.1594,-6.2144,-6.2365,-6.2401,-6.2511,-6.2548,-6.2548,-6.2842,-6.2805,-6.3319,-6.4787,-6.5071,-6.553,-6.699,-6.721,-6.7026,-6.6439,-6.6256,-6.6256,-3.9461,0.0,-4.0355,-4.08,0.0,-4.1634,-4.1874,-4.2162,-4.1089,-4.1021,-4.1748,-4.2408,-4.2658,-4.2579,-4.3483,-4.3902,-4.3904,-4.4657,-4.4975,-4.5008,-4.5547,-4.5795,-4.5795,-4.632,-4.6396,-4.6013,-4.6185,-4.6124,-4.5834,-4.5911,-4.5991,-4.6094,-4.617,-4.623,-4.6316,-4.6309,-4.6289,-4.6289,-4.6289,-4.6289,-4.6289,-4.6215,-4.5819,-4.5039,0.0,0.0,0.0,0.0,0.0,0.0,0.0,0.0,0.0,0.0,0.0,-4.6301,-4.6627,-4.7355,-4.8586,-4.9509,-5.1087,-5.3587,-5.4908,-5.5138,-5.3895,-5.6934,-5.8704,-5.8319,-5.9819,-6.0781,-6.0819,-6.1935,-6.2858,-6.332,-6.4474,-6.5268,-6.5282,-6.5628,-6.5897,-6.5897,-6.5897,-6.5897,-6.5897,-6.5897,-6.5897,-6.5897,-6.5897,-6.5897,-6.5769,-6.4543,-6.3451,-6.316,-6.225,-6.1851,-6.2561,-6.2524,-6.2291,-6.2732,-6.2805,-6.2805,-6.2805,-6.2805,-6.2915,-6.3319,-6.3443,-6.3994,-6.5485,-6.5893,-6.6279,-6.734,-6.7687,-6.7577,-6.7173,-6.71,-6.71,-4.2102,-4.2233,-4.2328,-4.2921,-4.3706,-4.3789,-4.4282,-4.4804,0.0,0.0,0.0,-4.3755,-4.4071,-4.4514,-4.5088,-4.5369,-4.551,-4.6243,-4.6613,-4.6644,-4.7277,-4.7617,-4.764,-4.7933,-4.7778,-4.7163,-4.7201,-4.6912,-4.6352,-4.6467,-4.6574,-4.6601,-4.6719,-4.668,-4.6523,-4.6523,-4.6523,-4.6523,-4.6367,-4.6289,-4.6289,-4.6185,-4.579,-4.521,-4.5796,-4.5441,-4.4072,-4.4873,-4.4626,-4.313,-4.4478,-4.5359,-4.558,-4.7554,-4.9413,-5.0932,-5.1721,-5.2587,-5.3587,-5.43,-5.5186,-5.628,-5.8434,-5.9435,-5.8781,-5.9358,-6.0012,-6.0742,-6.0935,-6.132,-6.205,-6.2974,-6.382,-6.4551,-6.5359,-6.5897,-6.5897,-6.5897,-6.5897,-6.5897,-6.5897,-6.5897,-6.5897,-6.5897,-6.5897,-6.5897,-6.5897,-6.5872,-6.5717,-6.5184,-6.4514,-6.3883,-6.3057,-6.2768,-6.2805,-6.2768,-6.2805,-6.2805,-6.2805,-6.2805,-6.2805,-6.2805,-6.3172,-6.387,-6.4067,-6.4728,-6.6072,-6.6459,-6.6773,-6.754,-6.7687,-6.7687,-6.7687,-6.7797,-6.7834,-4.2443,-4.318,-4.3652,-4.4393,-4.5233,-4.573,-4.6028,-4.6077,-4.5251,-4.4968,-4.5057,-4.5587,-4.5674,-4.5515,-4.6067,-4.6488,-4.681,-4.6939,-4.7023,0.0,-4.7438,-4.7617,-4.764,-4.7933,-4.8086,-4.8123,-4.8123,-4.8179,-4.8291,-4.8291,-4.8382,-4.8476,-4.8516,-4.8164,-4.7461,-4.7422,-4.7422,-4.7383,-4.668,-4.6289,-4.6289,-4.6147,-4.6078,-4.5997,-4.6529,-4.6467,-4.5611,-4.6968,-4.7383,-4.6562,-4.7426,-4.8256,-4.8971,-4.9913,-5.0893,-5.1834,-5.2605,-5.3703,-5.5203,-5.5476,-5.6554,-5.8758,-6.0012,-6.055,-6.0473,-6.055,-6.0666,-6.0819,-6.1435,-6.1935,-6.2204,-6.3474,-6.4436,-6.4628,-6.5397,-6.5897,-6.5897,-6.5897,-6.5897,-6.5897,-6.5897,-6.5897,-6.5897,-6.5897,-6.5897,-6.5897,-6.5897,-6.5755,-6.5291,-6.4799,-6.4105,-6.3264,-6.2936,-6.2818,-6.2805,-6.2805,-6.2805,-6.2805,-6.2805,-6.2805,-6.2805,-6.2879,-6.3209,-6.398,-6.4185,-6.4846,-6.6256,-6.6496,-6.69,-6.754,-6.7687,-6.7687,-6.776,-6.8238,-6.8495,-4.5592,-4.6343,-4.6621,-4.6968,-4.7342,-4.7369,-4.7348,-4.7247,-4.7223,-4.7042,-4.6825,-4.7066,-4.7361,-4.7765,-4.8029,-4.8211,-4.8386,-4.8631,-4.8732,-4.8758,-4.9182,-4.9388,-4.9409,-4.9625,-4.951,-4.9125,-4.9202,-4.9047,-4.875,-4.8755,-4.885,-4.8906,-4.8906,-4.8672,-4.8359,-4.832,-4.8294,-4.8176,-4.7393,-4.7201,-4.7572,-4.7481,-4.7424,-4.7388,-4.7527,-4.7472,-4.7223,-4.7837,-4.8048,-4.7683,-4.8548,-4.9375,-5.0201,-5.1413,-5.249,-5.3374,-5.4587,-5.5588,-5.6357,-5.7264,-5.8457,-6.0065,-6.055,-6.0781,-6.0781,-6.0781,-6.0781,-6.0819,-6.1589,-6.2281,-6.2704,-6.3858,-6.4782,-6.5243,-6.5667,-6.5897,-6.5897,-6.5897,-6.5897,-6.5897,-6.5897,-6.5897,-6.5897,-6.5897,-6.5897,-6.5897,-6.5897,-6.569,-6.5199,-6.4696,-6.4027,-6.3035,-6.2825,-6.2818,-6.2805,-6.2805,-6.2805,-6.2805,-6.2805,-6.2805,-6.2842,-6.3099,-6.3796,-6.4604,-6.5081,-6.5852,-6.6953,-6.7173,-6.7357,-6.7504,-6.7687,-6.7797,-6.8274,-6.8972,-6.9339,-4.8377,-4.8925,-4.9055,-4.9234,-4.9405,-4.918,-4.8967,-4.89,-4.9247,-4.9284,-4.9008,-4.8567,-4.8826,-4.9599,-4.9657,-4.9695,-4.9834,-5.0128,-5.0306,-5.0367,-5.0737,-5.0971,-5.0945,-5.1078,-5.0738,-5.0164,-5.024,-4.9946,-4.9382,-4.9415,-4.9453,-4.9453,-4.9453,-4.9375,-4.918,-4.918,-4.9133,-4.8967,-4.8438,-4.8319,-4.8613,-4.854,-4.8449,-4.8446,-4.8412,-4.8452,-4.8529,-4.8644,-4.8702,-4.874,-4.951,-5.0356,-5.1241,-5.2664,-5.3857,-5.478,-5.6165,-5.7165,-5.761,-5.8934,-6.0089,-6.0704,-6.0781,-6.0781,-6.0781,-6.0781,-6.0781,-6.0896,-6.1781,-6.2627,-6.3281,-6.4282,-6.5166,-6.582,-6.5897,-6.5897,-6.5897,-6.5897,-6.5897,-6.5897,-6.5897,-6.5897,-6.5897,-6.5897,-6.5897,-6.5897,-6.5897,-6.5755,-6.555,-6.4955,-6.4029,-6.3355,-6.2919,-6.2818,-6.2805,-6.2805,-6.2805,-6.2805,-6.2805,-6.2952,-6.3135,-6.3723,-6.4494,-6.5301,-6.6014,-6.6639,-6.7484,-6.765,-6.765,-6.7687,-6.7687,-6.8017,-6.9009,-6.9596,-7.0036,-4.8912,-4.8996,-4.9559,-5.0258,-5.1157,-5.149,-5.1569,-5.1556,-5.1654,-5.1954,-5.202,-5.025,-4.9642,-5.0002,-5.0062,-5.0313,-5.0702,-5.0798,-5.0875,-5.0952,-5.1048,-5.109,-5.1086,-5.1092,-5.1101,-5.1028,-5.1048,-5.0998,-5.0976,-5.1055,-5.1133,-5.1172,-5.1172,-5.0742,-5.0156,-5.0078,-5.003,-4.9856,-4.9815,-4.9382,-4.8561,-4.8385,-4.8297,-4.8318,-4.8952,-4.9298,-4.9317,-5.0048,-5.0433,-5.051,-5.1202,-5.2049,-5.2933,-5.3857,-5.4741,-5.5549,-5.6472,-5.7649,-5.9111,-6.015,-6.0666,-6.0781,-6.0781,-6.0781,-6.0781,-6.0781,-6.0781,-6.1012,-6.2243,-6.3166,-6.3397,-6.4743,-6.5705,-6.5859,-6.5897,-6.5897,-6.5897,-6.5897,-6.5897,-6.5897,-6.5936,-6.5897,-6.5897,-6.5936,-6.5974,-6.6167,-6.6205,-6.6307,-6.6556,-6.5503,-6.437,-6.3796,-6.3267,-6.2904,-6.2842,-6.2805,-6.2805,-6.2805,-6.2842,-6.3135,-6.3649,-6.409,-6.453,-6.5888,-6.6455,-6.6912,-6.741,-6.7687,-6.7687,-6.7724,-6.7834,-6.8164,-6.9486,-7.0036,-7.011,-5.104,-5.1475,-5.1985,-5.2271,-5.2526,-5.292,-5.2786,-5.2395,-5.2717,-5.2977,-5.3053,-5.2281,-5.1722,-5.1385,-5.0938,-5.0814,-5.101,-5.1037,-5.1062,-5.1073,-5.1138,-5.1141,-5.1184,-5.1257,-5.1302,-5.132,-5.132,-5.1328,-5.1406,-5.1406,-5.1406,-5.1406,-5.1335,-5.1097,-5.0798,-5.0735,-5.0636,-5.0548,-5.0548,-5.0296,-4.9892,-4.9795,-4.9779,-4.976,-5.0048,-5.0164,-5.024,-5.0971,-5.1395,-5.1471,-5.2241,-5.3087,-5.3933,-5.4318,-5.5088,-5.6395,-5.7742,-5.8973,-6.0188,-6.0589,-6.0781,-6.0781,-6.0781,-6.0781,-6.0781,-6.0781,-6.0781,-6.1012,-6.232,-6.332,-6.3435,-6.4859,-6.5897,-6.5897,-6.5897,-6.5897,-6.5897,-6.5897,-6.5897,-6.5936,-6.632,-6.6359,-6.609,-6.632,-6.6782,-6.7205,-6.7359,-6.7345,-6.7352,-6.6336,-6.5194,-6.4217,-6.3899,-6.364,-6.3062,-6.2805,-6.2842,-6.2915,-6.3246,-6.3796,-6.4053,-6.5044,-6.5815,-6.6439,-6.6859,-6.7226,-6.7577,-6.7687,-6.7687,-6.7724,-6.8238,-6.8788,-6.9889,-7.011,-7.0403,-5.2846,-5.3378,-5.394,-5.3978,-5.3754,-5.4192,-5.4077,-5.359,-5.3985,-5.4205,-5.4207,-5.4095,-5.3693,-5.3012,-5.1949,-5.1315,-5.1164,-5.1373,-5.1502,-5.1546,-5.1812,-5.1862,-5.1645,-5.1719,-5.1641,-5.1445,-5.1406,-5.1406,-5.1406,-5.1371,-5.1347,-5.1356,-5.1218,-5.1159,-5.1163,-5.1136,-5.1044,-5.0914,-5.0914,-5.0818,-5.076,-5.101,-5.101,-5.0741,-5.0702,-5.0779,-5.1048,-5.1625,-5.2049,-5.2241,-5.3087,-5.3818,-5.4434,-5.4934,-5.5934,-5.755,-5.8819,-5.9858,-6.0742,-6.0781,-6.0781,-6.0781,-6.0781,-6.0781,-6.0781,-6.0781,-6.0781,-6.0896,-6.232,-6.332,-6.3474,-6.4859,-6.582,-6.5897,-6.5897,-6.5897,-6.5897,-6.5897,-6.5897,-6.5936,-6.632,-6.6551,-6.6128,-6.6359,-6.6936,-6.7667,-6.7936,-6.8087,-6.7722,-6.6973,-6.5904,-6.4745,-6.4716,-6.4364,-6.3664,-6.364,-6.3479,-6.3356,-6.387,-6.442,-6.4494,-6.5668,-6.6696,-6.6916,-6.7393,-6.7614,-6.765,-6.7687,-6.7687,-6.7797,-6.8164,-6.8825,-6.9522,-6.9706,-7.033,-5.3716,-5.393,-5.4696,-5.4977,-5.5031,-5.5508,-5.5742,-5.5532,-5.5878,-5.6071,-5.5994,-5.536,-5.5055,-5.4919,-5.3159,-5.1895,-5.1421,-5.2098,-5.2519,-5.2695,-5.3398,-5.3398,-5.2655,-5.2617,-5.2226,-5.1641,-5.1562,-5.1445,-5.1406,-5.1268,-5.1202,-5.12,-5.1178,-5.1139,-5.1182,-5.1241,-5.1068,-5.1068,-5.1029,-5.0894,-5.0856,-5.151,-5.1471,-5.0894,-5.0741,-5.1164,-5.1739,-5.1875,-5.2318,-5.3126,-5.3972,-5.4472,-5.4664,-5.6011,-5.7627,-5.9088,-5.9435,-5.9896,-6.0666,-6.0781,-6.0781,-6.0781,-6.0781,-6.0781,-6.0781,-6.0781,-6.0819,-6.0858,-6.2358,-6.332,-6.3551,-6.4936,-6.5859,-6.5897,-6.5897,-6.5897,-6.5897,-6.5897,-6.5897,-6.5897,-6.5974,-6.6128,-6.5974,-6.5897,-6.6513,-6.7128,-6.7282,-6.7525,-6.8021,-6.7247,-6.6521,-6.6064,-6.5369,-6.4632,-6.5185,-6.4816,-6.4499,-6.4347,-6.4457,-6.5228,-6.5521,-6.5925,-6.6733,-6.7283,-6.754,-6.765,-6.7687,-6.7687,-6.7687,-6.7724,-6.7724,-6.8238,-6.9119,-6.9009,-6.9522,-5.4409,-5.4686,-5.4977,-5.5275,-5.5623,-5.5813,-5.5981,-5.6141,-5.6252,-5.634,-5.6379,-5.6148,-5.5769,-5.5262,-5.4567,-5.3779,-5.3085,-5.3308,-5.3479,-5.3555,-5.3867,-5.3828,-5.3555,-5.3516,-5.3398,-5.3047,-5.2511,-5.1877,-5.1295,-5.1192,-5.1154,-5.1241,-5.1563,-5.1756,-5.1819,-5.2202,-5.2433,-5.2318,-5.1856,-5.1779,-5.2164,-5.2049,-5.201,-5.2318,-5.2279,-5.2433,-5.2759,-5.3259,-5.3703,-5.4049,-5.4818,-5.5511,-5.6203,-5.7703,-5.8819,-5.9473,-6.005,-6.0473,-6.0742,-6.0781,-6.0781,-6.0781,-6.0781,-6.0781,-6.0781,-6.0819,-6.1012,-6.1666,-6.2589,-6.3474,-6.4205,-6.5205,-6.5897,-6.5897,-6.5897,-6.5897,-6.5897,-6.5897,-6.5897,-6.5897,-6.5897,-6.6282,-6.6936,-6.6974,-6.7013,-6.7782,-6.8359,-6.8552,-6.8333,-6.7927,-6.7429,-6.6873,-6.6193,-6.5902,-6.6744,-6.5608,-6.4853,-6.4756,-6.4971,-6.5742,-6.6219,-6.6696,-6.743,-6.7467,-6.765,-6.7687,-6.7687,-6.7687,-6.7687,-6.7687,-6.7687,-6.7981,-6.8752,-6.8531,-6.8972,-5.5385,-5.5721,-5.5479,-5.56,-5.5972,-5.6032,-5.6154,-5.6262,-5.6417,-5.6442,-5.6481,-5.6573,-5.626,-5.5781,-5.566,-5.5379,-5.4768,-5.456,-5.4403,-5.4404,-5.4638,-5.4585,-5.431,-5.4314,-5.4197,-5.3828,-5.3312,-5.2601,-5.205,-5.1866,-5.185,-5.1896,-5.2279,-5.2472,-5.2549,-5.2972,-5.3203,-5.3049,-5.2626,-5.2626,-5.3087,-5.2933,-5.301,-5.3567,-5.3857,-5.3857,-5.3643,-5.4203,-5.4626,-5.4934,-5.5395,-5.6242,-5.7396,-5.8742,-5.9627,-5.9935,-6.0435,-6.0781,-6.0781,-6.0781,-6.0781,-6.0781,-6.0781,-6.0781,-6.0781,-6.0781,-6.1243,-6.2012,-6.282,-6.3666,-6.4512,-6.5397,-6.5897,-6.5897,-6.5897,-6.5897,-6.5897,-6.5897,-6.5897,-6.5897,-6.5897,-6.6474,-6.7244,-6.6974,-6.7128,-6.7859,-6.8744,-6.8936,-6.8552,-6.8359,-6.809,-6.7282,-6.6795,-6.6643,-6.7082,-6.656,-6.6157,-6.6091,-6.5934,-6.6528,-6.6769,-6.732,-6.7614,-6.765,-6.7687,-6.7687,-6.7687,-6.7687,-6.7687,-6.7687,-6.7687,-6.7871,-6.8091,-6.8054,-6.8458,-5.6742,-5.7027,-5.628,-5.6071,-5.6302,-5.634,-5.64,-5.6416,-5.6524,-5.6601,-5.6562,-5.6601,-5.6562,-5.6484,-5.6317,-5.6308,-5.6072,-5.5521,-5.5233,-5.5165,-5.5866,-5.5752,-5.4964,-5.5052,-5.4624,-5.3797,-5.3669,-5.3543,-5.3379,-5.3205,-5.3166,-5.3241,-5.3203,-5.3241,-5.3241,-5.3356,-5.3356,-5.3356,-5.3318,-5.328,-5.3318,-5.3933,-5.4318,-5.4549,-5.5164,-5.5164,-5.4528,-5.4549,-5.4934,-5.5549,-5.5742,-5.6549,-5.8127,-5.9165,-5.9896,-6.055,-6.0781,-6.0781,-6.0781,-6.0781,-6.0781,-6.0781,-6.0781,-6.0781,-6.0781,-6.0819,-6.1204,-6.2166,-6.2897,-6.3705,-6.4589,-6.5397,-6.5897,-6.5897,-6.5897,-6.5897,-6.5897,-6.5897,-6.5897,-6.5897,-6.5897,-6.5897,-6.5936,-6.6051,-6.6359,-6.7051,-6.7936,-6.8398,-6.8167,-6.8205,-6.8013,-6.7359,-6.7025,-6.7044,-6.734,-6.7588,-6.7618,-6.7598,-6.742,-6.7568,-6.7116,-6.7357,-6.7614,-6.7687,-6.7687,-6.7687,-6.7687,-6.7687,-6.7687,-6.7687,-6.7687,-6.7724,-6.776,-6.7797,-6.776,-5.795,-5.8021,-5.7257,-5.7052,-5.7153,-5.6669,-5.6466,-5.6523,-5.6601,-5.6601,-5.6601,-5.6601,-5.6601,-5.6562,-5.6466,-5.6379,-5.6382,-5.6062,-5.5884,-5.5893,-5.6155,-5.6077,-5.5825,-5.5805,-5.5362,-5.461,-5.4396,-5.4033,-5.3571,-5.3356,-5.3241,-5.3336,-5.3857,-5.4087,-5.4126,-5.4626,-5.4934,-5.4857,-5.4357,-5.4357,-5.4818,-5.4626,-5.4741,-5.528,-5.5588,-5.5549,-5.5357,-5.5318,-5.5434,-5.5703,-5.628,-5.7357,-5.8896,-5.9935,-6.0473,-6.0742,-6.0781,-6.0781,-6.0781,-6.0781,-6.0781,-6.0781,-6.0781,-6.0781,-6.0781,-6.0819,-6.1435,-6.2627,-6.3205,-6.3858,-6.5166,-6.5705,-6.5897,-6.5897,-6.5897,-6.5897,-6.5897,-6.5897,-6.5897,-6.5897,-6.5897,-6.5897,-6.5897,-6.5897,-6.6013,-6.6359,-6.7475,-6.8052,-6.7167,-6.7833,-6.8025,-6.7321,-6.7268,-6.7576,-6.8052,-6.8495,-6.8704,-6.8598,-6.8451,-6.806,-6.7672,-6.7442,-6.7647,-6.7687,-6.7687,-6.7687,-6.7687,-6.7687,-6.7687,-6.7687,-6.7687,-6.7687,-6.7687,-6.7687,-6.7687,-5.9027,-5.904,-5.8286,-5.809,-5.8181,-5.7638,-5.7485,-5.7539,-5.7578,-5.7383,-5.7148,-5.7109,-5.6875,-5.6601,-5.6394,-5.6348,-5.6323,-5.6148,-5.6001,-5.6033,-5.6058,-5.6071,-5.6032,-5.6032,-5.578,-5.5357,-5.5147,-5.4801,-5.428,-5.4164,-5.4164,-5.428,-5.4703,-5.4934,-5.4972,-5.5434,-5.5703,-5.5626,-5.5203,-5.5203,-5.5511,-5.5203,-5.5203,-5.5665,-5.6011,-5.6165,-5.6165,-5.6472,-5.6511,-5.6472,-5.728,-5.8473,-5.9473,-6.0281,-6.0781,-6.0781,-6.0781,-6.0781,-6.0781,-6.0781,-6.0781,-6.0781,-6.0781,-6.0781,-6.0858,-6.1012,-6.1935,-6.3012,-6.3628,-6.4359,-6.5551,-6.5897,-6.5897,-6.5897,-6.5897,-6.5897,-6.5897,-6.5897,-6.5897,-6.5897,-6.5897,-6.5897,-6.5897,-6.5897,-6.5897,-6.609,-6.7051,-6.7744,-6.6898,-6.7602,-6.7525,-6.7667,-6.8025,-6.8448,-6.8948,-6.9356,-6.9719,-6.9505,-6.9199,-6.866,-6.8148,-6.8,-6.8097,-6.781,-6.7687,-6.7687,-6.7687,-6.7687,-6.7687,-6.7687,-6.7704,-6.7687,-6.7687,-6.7687,-6.7687,-6.0057,-6.0127,-5.9318,-5.9087,-5.9219,-5.9101,-5.8984,-5.9101,-5.9062,-5.8633,-5.8086,-5.7969,-5.7539,-5.6836,-5.6728,-5.6587,-5.6249,-5.6071,-5.5878,-5.5805,-5.584,-5.5818,-5.578,-5.5742,-5.5742,-5.5742,-5.5665,-5.5626,-5.5434,-5.5434,-5.5703,-5.5511,-5.5511,-5.5665,-5.5588,-5.5703,-5.5703,-5.5665,-5.5665,-5.5665,-5.5703,-5.5665,-5.5742,-5.5857,-5.6511,-5.6934,-5.7165,-5.778,-5.7896,-5.7473,-5.8588,-5.9358,-5.9704,-6.0396,-6.0781,-6.0781,-6.0781,-6.0781,-6.0781,-6.0781,-6.0781,-6.0781,-6.0781,-6.0858,-6.105,-6.1589,-6.2397,-6.3397,-6.4089,-6.4897,-6.5667,-6.5897,-6.5897,-6.5897,-6.6051,-6.609,-6.6013,-6.609,-6.6282,-6.6128,-6.5974,-6.5936,-6.5936,-6.5897,-6.5897,-6.6051,-6.6667,-6.6974,-6.7013,-6.7282,-6.7705,-6.7975,-6.8179,-6.8794,-6.9179,-6.9959,-7.0248,-7.0171,-6.9847,-6.9353,-6.866,-6.8464,-6.832,-6.7996,-6.7757,-6.7704,-6.7687,-6.7687,-6.781,-6.793,-6.7878,-6.7757,-6.7757,-6.781,-6.7741,-6.1085,-6.107,-6.035,-6.0018,-6.0,-5.9492,-5.9219,-5.9219,-5.9258,-5.914,-5.8867,-5.8867,-5.8623,-5.8273,-5.807,-5.7644,-5.7062,-5.6763,-5.6263,-5.5742,-5.5742,-5.5742,-5.5703,-5.5703,-5.5703,-5.5742,-5.5703,-5.5703,-5.5703,-5.5703,-5.5703,-5.5703,-5.5703,-5.5703,-5.5703,-5.5703,-5.5703,-5.5703,-5.5703,-5.5703,-5.5703,-5.5703,-5.6049,-5.6626,-5.6896,-5.7357,-5.7934,-5.8742,-5.9127,-5.8896,-5.9204,-5.9819,-6.0358,-6.0666,-6.0781,-6.0781,-6.0781,-6.0781,-6.0781,-6.0781,-6.0781,-6.0781,-6.0896,-6.1089,-6.1743,-6.1973,-6.282,-6.3858,-6.4512,-6.4974,-6.5667,-6.5936,-6.5897,-6.5974,-6.6513,-6.6821,-6.6821,-6.7359,-6.7513,-6.6936,-6.6782,-6.6474,-6.6128,-6.5897,-6.5897,-6.6013,-6.6436,-6.6859,-6.6705,-6.7013,-6.7436,-6.759,-6.7936,-6.8706,-6.9436,-7.0283,-7.0755,-7.07,-7.0463,-7.0095,-6.9393,-6.8795,-6.8605,-6.8357,-6.7996,-6.793,-6.7757,-6.7687,-6.7915,-6.8171,-6.7982,-6.7878,-6.7996,-6.8097,-6.7863,-6.1515,-6.1551,-6.1108,-6.0937,-6.0898,-6.043,-6.0234,-6.0234,-6.0234,-6.0,-5.9765,-5.9669,-5.9342,-5.8886,-5.8686,-5.8323,-5.7786,-5.761,-5.7071,-5.628,-5.5857,-5.5703,-5.5703,-5.5703,-5.5703,-5.5703,-5.5703,-5.5703,-5.5703,-5.5703,-5.5703,-5.5703,-5.5703,-5.5703,-5.5703,-5.5703,-5.5703,-5.5703,-5.5703,-5.5703,-5.5703,-5.5703,-5.6165,-5.6896,-5.7341,-5.8072,-5.9204,-5.9819,-6.005,-6.005,-6.005,-6.0281,-6.0704,-6.0781,-6.0781,-6.0781,-6.0781,-6.0781,-6.0781,-6.0781,-6.0973,-6.1257,-6.1358,-6.1781,-6.2474,-6.2897,-6.3743,-6.4397,-6.4897,-6.5359,-6.5782,-6.6167,-6.6397,-6.659,-6.7475,-6.7821,-6.7244,-6.7821,-6.809,-6.7744,-6.7321,-6.6936,-6.6397,-6.6128,-6.5936,-6.5936,-6.6205,-6.6244,-6.6128,-6.6667,-6.6987,-6.7051,-6.7731,-6.8616,-6.9206,-6.9975,-7.0629,-7.0679,-7.0777,-7.0494,-6.9992,-6.9231,-6.8978,-6.875,-6.8368,-6.8148,-6.8084,-6.8055,-6.824,-6.8356,-6.8107,-6.821,-6.8464,-6.8416,-6.8148,-6.1562,-6.1719,-6.1719,-6.1719,-6.168,-6.168,-6.1523,-6.164,-6.1562,-6.1172,-6.0625,-6.0389,-6.0008,-5.9119,-5.9241,-5.8726,-5.8588,-5.8473,-5.7879,-5.7165,-5.6549,-5.6203,-5.6242,-5.5818,-5.5703,-5.5703,-5.5703,-5.5703,-5.5703,-5.5703,-5.5703,-5.5703,-5.5703,-5.5703,-5.5703,-5.5703,-5.5703,-5.5742,-5.5934,-5.5972,-5.6049,-5.6203,-5.6742,-5.7511,-5.8341,-5.9265,-6.0242,-6.0704,-6.0704,-6.0781,-6.0781,-6.0742,-6.0781,-6.0781,-6.0781,-6.0781,-6.0781,-6.0781,-6.0781,-6.0819,-6.1166,-6.1796,-6.2026,-6.2526,-6.3281,-6.3974,-6.4474,-6.4859,-6.5436,-6.5743,-6.5974,-6.659,-6.6936,-6.7205,-6.8513,-6.8744,-6.7975,-6.8129,-6.8629,-6.8513,-6.7821,-6.7436,-6.6936,-6.6513,-6.6013,-6.5897,-6.609,-6.6013,-6.6013,-6.6359,-6.6397,-6.6244,-6.7231,-6.8565,-6.9078,-6.9552,-7.0129,-7.0552,-7.0783,-7.0681,-7.0362,-6.9811,-6.955,-6.9269,-6.9027,-6.88,-6.8605,-6.865,-6.8777,-6.8772,-6.8788,-6.8978,-6.9148,-6.8847,-6.8567,-6.168,-6.1719,-6.1719,-6.1719,-6.1719,-6.1719,-6.1719,-6.1719,-6.1719,-6.1562,-6.1367,-6.1281,-6.0981,-6.0704,-6.0358,-6.005,-5.9358,-5.9204,-5.8796,-5.805,-5.7896,-5.7742,-5.7396,-5.6511,-5.578,-5.5818,-5.5742,-5.5742,-5.578,-5.5895,-5.5703,-5.578,-5.5857,-5.5742,-5.578,-5.5857,-5.5703,-5.5818,-5.6357,-5.6703,-5.6857,-5.7319,-5.7973,-5.8781,-5.9665,-6.0281,-6.0627,-6.0781,-6.0781,-6.0781,-6.0781,-6.0781,-6.0781,-6.0781,-6.0781,-6.0781,-6.0781,-6.0781,-6.0819,-6.0896,-6.1204,-6.2026,-6.2348,-6.2746,-6.4166,-6.4474,-6.4974,-6.5397,-6.5782,-6.5897,-6.5974,-6.6628,-6.709,-6.7552,-6.8667,-6.9629,-6.936,-6.9821,-6.9937,-6.9475,-6.909,-6.8629,-6.7282,-6.6936,-6.6474,-6.6051,-6.5897,-6.5897,-6.6013,-6.6128,-6.6051,-6.5897,-6.6615,-6.7834,-6.8347,-6.9013,-6.9937,-7.0475,-7.0744,-7.0898,-7.0554,-7.0178,-6.9836,-6.974,-6.9721,-6.9524,-6.9265,-6.9327,-6.9466,-6.9419,-6.9395,-6.9588,-6.9588,-6.9313,-6.9106,-6.1719,-6.1719,-6.1719,-6.1719,-6.1719,-6.1719,-6.1719,-6.1719,-6.1719,-6.1647,-6.1606,-6.1458,-6.1331,-6.1151,-6.0973,-6.055,-6.0089,-5.9665,-5.955,-5.9204,-5.8819,-5.8511,-5.8627,-5.7665,-5.6934,-5.6934,-5.6934,-5.6917,-5.6917,-5.6879,-5.7011,-5.6857,-5.6511,-5.6665,-5.6742,-5.6511,-5.6626,-5.6973,-5.7319,-5.7627,-5.7742,-5.805,-5.8665,-5.9473,-6.0281,-6.0781,-6.0781,-6.0781,-6.0781,-6.0781,-6.0781,-6.0781,-6.0781,-6.0781,-6.0781,-6.0781,-6.0781,-6.0781,-6.0819,-6.1204,-6.1781,-6.2603,-6.3002,-6.3924,-6.4834,-6.5205,-6.5397,-6.5743,-6.5897,-6.5897,-6.5974,-6.709,-6.7552,-6.8013,-6.9206,-7.0206,-7.0321,-7.0667,-7.0591,-6.986,-6.9244,-6.8359,-6.759,-6.7051,-6.6513,-6.5936,-6.5897,-6.5897,-6.5897,-6.6013,-6.5974,-6.5974,-6.6346,-6.6962,-6.75,-6.8436,-6.9783,-7.036,-7.0783,-7.086,-7.0777,-7.0392,-7.0034,-7.0052,-7.0152,-7.0079,-6.9925,-7.0005,-6.9929,-6.9853,-6.9847,-7.0061,-7.0061,-6.9883,-6.9701,-6.1719,-6.1719,-6.1719,-6.1719,-6.1719,-6.1719,-6.1719,-6.1719,-6.1719,-6.1603,-6.1504,-6.1352,-6.1234,-6.1026,-6.0858,-6.0819,-6.0589,-6.0204,-6.005,-6.0319,-5.9435,-5.9319,-5.9435,-5.905,-5.8665,-5.8665,-5.8204,-5.8149,-5.8132,-5.8264,-5.7973,-5.8088,-5.7588,-5.7473,-5.7896,-5.7665,-5.7434,-5.7973,-5.8319,-5.8473,-5.855,-5.8704,-5.9242,-5.9804,-6.0358,-6.0781,-6.0781,-6.0781,-6.0781,-6.0781,-6.0781,-6.0781,-6.0781,-6.0781,-6.0781,-6.0781,-6.0781,-6.0935,-6.1204,-6.1728,-6.2421,-6.3372,-6.4103,-6.491,-6.559,-6.5782,-6.582,-6.582,-6.5897,-6.5897,-6.6013,-6.7051,-6.7975,-6.8552,-6.9783,-7.0629,-7.086,-7.0821,-7.0283,-6.9783,-6.9052,-6.8167,-6.7398,-6.6782,-6.6282,-6.5897,-6.5897,-6.5897,-6.5897,-6.5897,-6.5897,-6.5897,-6.6167,-6.6307,-6.6782,-6.7898,-6.9244,-6.9975,-7.0514,-7.0821,-7.0783,-7.0343,-7.0028,-7.0392,-7.0507,-7.0195,-7.0018,-6.9948,-6.9922,-7.0037,-7.026,-7.0394,-7.0463,-7.0463,-7.0228,-6.1719,-6.1719,-6.1719,-6.1719,-6.1719,-6.1719,-6.1719,-6.1719,-6.1719,-6.164,-6.1477,-6.1379,-6.1208,-6.0997,-6.0858,-6.0819,-6.0742,-6.0512,-6.055,-6.0781,-6.0281,-6.0358,-6.0319,-6.0204,-6.0204,-5.9973,-5.9242,-5.8511,-5.8457,-5.828,-5.8604,-5.8389,-5.8181,-5.828,-5.8396,-5.8165,-5.8204,-5.8665,-5.905,-5.9319,-5.9435,-5.9819,-6.0165,-6.0435,-6.0642,-6.0671,-6.0734,-6.0757,-6.0781,-6.0781,-6.0781,-6.0781,-6.0757,-6.0757,-6.0781,-6.0781,-6.0781,-6.105,-6.1666,-6.1997,-6.2921,-6.3974,-6.4603,-6.5026,-6.5667,-6.5897,-6.5897,-6.5897,-6.5897,-6.5897,-6.5897,-6.6859,-6.7628,-6.8359,-6.9206,-7.009,-7.0475,-7.0167,-6.9706,-6.9283,-6.8667,-6.809,-6.7321,-6.6705,-6.6282,-6.5974,-6.5897,-6.5897,-6.5897,-6.5897,-6.5897,-6.5897,-6.5936,-6.5974,-6.609,-6.7436,-6.8667,-6.9321,-6.9937,-7.0629,-7.0514,-7.0129,-7.0014,-7.0052,-6.9794,-6.9337,-6.9299,-6.9575,-6.9634,-6.9557,-7.0076,-7.07,-7.0556,-7.0345,-7.0448,-6.1719,-6.1719,-6.1719,-6.1719,-6.1719,-6.1719,-6.1719,-6.1719,-6.1719,-6.1569,-6.1407,-6.1306,-6.1151,-6.0935,-6.0819,-6.0781,-6.0781,-6.0781,-6.0781,-6.0781,-6.0781,-6.0781,-6.0781,-6.0781,-6.0781,-6.0589,-5.9935,-5.955,-5.9588,-5.9627,-5.9527,-5.9488,-5.9204,-5.9127,-5.9358,-5.9165,-5.9242,-5.9511,-5.9935,-6.0127,-6.0127,-6.0627,-6.0742,-6.0757,-6.0572,-6.0453,-6.0399,-6.0179,-6.0074,-6.0103,-6.0311,-6.043,-6.0508,-6.0647,-6.0781,-6.0781,-6.0819,-6.1204,-6.205,-6.2459,-6.332,-6.4397,-6.4949,-6.5436,-6.5743,-6.5897,-6.5897,-6.5897,-6.5897,-6.5897,-6.5897,-6.659,-6.7244,-6.7744,-6.8513,-6.9167,-6.9321,-6.8821,-6.8667,-6.8552,-6.7936,-6.7436,-6.7244,-6.6705,-6.632,-6.609,-6.5936,-6.5897,-6.5897,-6.5897,-6.5897,-6.5897,-6.5897,-6.5897,-6.6013,-6.6974,-6.8244,-6.8898,-6.9321,-7.0052,-7.009,-6.9552,-6.9321,-6.9244,-6.8871,-6.8383,-6.8641,-6.891,-6.8975,-6.9013,-6.9294,-6.9613,-7.0025,-7.0228,-7.0297,-6.1719,-6.1719,-6.1719,-6.1719,-6.1719,-6.1719,-6.168,-6.169,-6.164,-6.1509,-6.125,-6.1252,-6.105,-6.0858,-6.0781,-6.0781,-6.0781,-6.0781,-6.0781,-6.0781,-6.0781,-6.0781,-6.0781,-6.0781,-6.0781,-6.0781,-6.0666,-6.0781,-6.0589,-6.0589,-6.0704,-6.0473,-5.9973,-6.005,-6.0396,-6.0012,-6.0319,-6.055,-6.0781,-6.0757,-6.071,-6.0647,-6.058,-6.0517,-6.0168,-5.9956,-5.9926,-5.9688,-5.953,-5.9625,-5.9855,-6.0132,-6.0189,-6.0533,-6.0781,-6.0819,-6.0935,-6.1512,-6.2281,-6.3128,-6.3974,-6.4936,-6.5513,-6.5782,-6.5897,-6.5897,-6.5897,-6.5897,-6.5897,-6.5897,-6.5974,-6.6474,-6.6898,-6.7244,-6.7744,-6.8205,-6.8282,-6.809,-6.7782,-6.7513,-6.7051,-6.6821,-6.6667,-6.6898,-6.6551,-6.6051,-6.5897,-6.5897,-6.5897,-6.5897,-6.5897,-6.5897,-6.5897,-6.5897,-6.6128,-6.6628,-6.7821,-6.8783,-6.9013,-6.9436,-6.9244,-6.8898,-6.8667,-6.8321,-6.7833,-6.7487,-6.7859,-6.8155,-6.8155,-6.8167,-6.8282,-6.8629,-6.9206,-6.9744,-6.9997,-6.1719,-6.1719,-6.1719,-6.1719,-6.168,-6.168,-6.1642,-6.1543,-6.1543,-6.1327,-6.1074,-6.1042,-6.0973,-6.0819,-6.0781,-6.0781,-6.0781,-6.0781,-6.0781,-6.0781,-6.0781,-6.0781,-6.0781,-6.0781,-6.0781,-6.0781,-6.0781,-6.0781,-6.0781,-6.0781,-6.0781,-6.0704,-6.0666,-6.0704,-6.0704,-6.055,-6.0704,-6.0781,-6.0757,-6.0572,-6.0255,-6.0189,-5.9982,-5.9752,-5.9543,-5.9477,-5.945,-5.9287,-5.9286,-5.9354,-5.9792,-6.0036,-6.0161,-6.0533,-6.0757,-6.1012,-6.1512,-6.2281,-6.3051,-6.3844,-6.4691,-6.5359,-6.582,-6.5859,-6.5897,-6.5897,-6.5897,-6.5897,-6.5897,-6.5897,-6.5897,-6.6013,-6.6397,-6.6821,-6.7244,-6.7705,-6.7898,-6.7667,-6.7359,-6.7167,-6.6898,-6.6436,-6.6128,-6.6513,-6.6744,-6.6244,-6.5897,-6.5974,-6.5936,-6.5974,-6.5897,-6.5897,-6.5897,-6.5897,-6.5974,-6.6474,-6.7244,-6.8398,-6.859,-6.8706,-6.8513,-6.8205,-6.7628,-6.7244,-6.6795,-6.6718,-6.709,-6.7269,-6.7269,-6.7346,-6.7475,-6.7936,-6.8475,-6.9013,-6.9552,-6.1651,-6.1678,-6.1607,-6.1577,-6.1564,-6.1509,-6.1461,-6.1397,-6.1362,-6.1266,-6.105,-6.1012,-6.0935,-6.0819,-6.0781,-6.0781,-6.0781,-6.0781,-6.0781,-6.0781,-6.0781,-6.0781,-6.0781,-6.0781,-6.0781,-6.0781,-6.0781,-6.0781,-6.0781,-6.0781,-6.0781,-6.0781,-6.0781,-6.0742,-6.0781,-6.0781,-6.0622,-6.0391,-6.0161,-5.9916,-5.976,-5.969,-5.9602,-5.9414,-5.9131,-5.9011,-5.8968,-5.8739,-5.8628,-5.8713,-5.9065,-5.9284,-5.9389,-5.9766,-6.0129,-6.0746,-6.15,-6.2357,-6.3245,-6.4128,-6.4974,-6.5628,-6.5897,-6.5897,-6.5897,-6.5897,-6.5897,-6.5897,-6.5897,-6.5897,-6.5897,-6.5897,-6.6051,-6.6397,-6.6923,-6.7013,-6.7321,-6.7308,-6.7077,-6.6936,-6.6782,-6.6436,-6.6244,-6.6705,-6.6974,-6.6628,-6.6551,-6.6782,-6.6474,-6.6128,-6.6013,-6.5897,-6.5897,-6.5897,-6.5936,-6.6167,-6.6628,-6.7475,-6.7667,-6.7744,-6.7821,-6.7475,-6.6974,-6.659,-6.632,-6.632,-6.6436,-6.6474,-6.6577,-6.6628,-6.6705,-6.7167,-6.7628,-6.8359,-6.9013,-6.1507,-6.1595,-6.1491,-6.1439,-6.1466,-6.1341,-6.1259,-6.1229,-6.1211,-6.1127,-6.0973,-6.0935,-6.0896,-6.0819,-6.0781,-6.0781,-6.0781,-6.0781,-6.0781,-6.0781,-6.0781,-6.0781,-6.0781,-6.0781,-6.0781,-6.0781,-6.0781,-6.0781,-6.0781,-6.0781,-6.0781,-6.0781,-6.0781,-6.0781,-6.0757,-6.0622,-6.0365,-5.9916,-5.9625,-5.9424,-5.9248,-5.9212,-5.9139,-5.8952,-5.8713,-5.856,-5.8465,-5.8272,-5.8042,-5.8142,-5.8508,-5.8835,-5.8874,-5.9286,-5.9908,-6.0588,-6.1455,-6.2302,-6.3227,-6.4139,-6.4975,-6.5474,-6.5872,-6.5897,-6.5897,-6.5897,-6.5897,-6.5897,-6.5897,-6.5897,-6.5897,-6.5897,-6.6128,-6.6436,-6.6808,-6.6692,-6.6744,-6.7269,-6.7385,-6.709,-6.6974,-6.6744,-6.6744,-6.709,-6.7167,-6.6936,-6.709,-6.7436,-6.6974,-6.6282,-6.609,-6.5897,-6.5897,-6.5897,-6.5897,-6.6051,-6.6436,-6.6667,-6.6821,-6.7013,-6.7244,-6.7013,-6.6513,-6.6167,-6.5897,-6.5974,-6.6167,-6.6013,-6.5897,-6.6128,-6.632,-6.6359,-6.6782,-6.759,-6.8552,-6.1352,-6.1345,-6.1322,-6.1286,-6.1304,-6.1328,-6.118,-6.1032,-6.102,-6.0935,-6.0858,-6.0819,-6.0819,-6.0781,-6.0781,-6.0781,-6.0781,-6.0781,-6.0781,-6.0781,-6.0781,-6.0781,-6.0781,-6.0781,-6.0781,-6.0781,-6.0781,-6.0781,-6.0781,-6.0781,-6.0781,-6.0781,-6.0781,-6.0781,-6.0597,-6.0217,-5.9885,-5.9492,-5.9248,-5.9065,-5.8835,-5.8676,-5.8591,-5.8282,-5.8097,-5.8042,-5.8033,-5.7997,-5.7997,-5.8042,-5.8375,-5.8591,-5.8673,-5.9101,-5.9741,-6.0529,-6.1394,-6.2184,-6.3119,-6.4138,-6.4928,-6.5255,-6.5542,-6.5808,-6.5897,-6.5897,-6.5897,-6.5897,-6.5897,-6.5897,-6.5897,-6.5936,-6.6167,-6.6705,-6.7116,-6.7436,-6.7628,-6.8052,-6.8052,-6.7475,-6.7244,-6.7205,-6.7013,-6.7359,-6.7475,-6.7244,-6.709,-6.7398,-6.6782,-6.6167,-6.6013,-6.5897,-6.5897,-6.5897,-6.5897,-6.609,-6.6244,-6.6359,-6.6474,-6.6667,-6.6898,-6.6513,-6.6167,-6.6051,-6.5897,-6.5897,-6.5897,-6.5897,-6.5897,-6.5897,-6.5974,-6.6167,-6.6359,-6.6936,-6.8052,-6.1116,-6.1097,-6.1021,-6.1039,-6.1127,-6.1012,-6.0935,-6.0896,-6.0896,-6.0858,-6.0781,-6.0781,-6.0781,-6.0781,-6.0781,-6.0781,-6.0781,-6.0781,-6.0781,-6.0781,-6.0781,-6.0781,-6.0781,-6.0781,-6.0781,-6.0781,-6.0781,-6.0781,-6.0781,-6.0757,-6.0781,-6.0781,-6.0757,-6.0559,-6.0311,-5.969,-5.9212,-5.899,-5.8713,-5.8418,-5.8332,-5.8282,-5.8186,-5.8042,-5.7997,-5.7997,-5.7997,-5.7997,-5.7997,-5.8006,-5.8231,-5.8319,-5.8474,-5.899,-5.9706,-6.0487,-6.1348,-6.2092,-6.2891,-6.3992,-6.4731,-6.5109,-6.5312,-6.5542,-6.5755,-6.5872,-6.5897,-6.5897,-6.5872,-6.5808,-6.5936,-6.5936,-6.6167,-6.6936,-6.7552,-6.8052,-6.8513,-6.8936,-6.8783,-6.8205,-6.8052,-6.8013,-6.7744,-6.7513,-6.759,-6.759,-6.7436,-6.7205,-6.6667,-6.6205,-6.609,-6.6013,-6.6013,-6.5936,-6.5897,-6.5974,-6.6051,-6.609,-6.6128,-6.632,-6.6513,-6.6282,-6.5974,-6.5897,-6.5897,-6.5897,-6.5897,-6.5897,-6.5897,-6.5897,-6.6013,-6.6167,-6.632,-6.6513,-6.7398,-6.0935,-6.0935,-6.0858,-6.0858,-6.0935,-6.0819,-6.0781,-6.0781,-6.0781,-6.0781,-6.0781,-6.0781,-6.0781,-6.0781,-6.0781,-6.0781,-6.0781,-6.0781,-6.0781,-6.0781,-6.0781,-6.0781,-6.0781,-6.0781,-6.0781,-6.0757,-6.0647,-6.0597,-6.0781,-6.066,-6.0546,-6.0546,-6.0546,-6.0349,-6.0006,-5.9212,-5.8632,-5.8418,-5.8194,-5.7997,-5.8042,-5.8042,-5.8042,-5.7997,-5.7997,-5.7997,-5.7997,-5.7997,-5.7997,-5.7997,-5.8042,-5.8143,-5.8474,-5.8951,-5.9722,-6.0529,-6.13,-6.1961,-6.2804,-6.36,-6.4406,-6.4752,-6.4851,-6.5067,-6.5359,-6.5485,-6.5329,-6.5597,-6.5663,-6.5793,-6.6038,-6.6397,-6.7051,-6.7975,-6.8501,-6.8963,-6.9398,-6.9821,-6.9398,-6.8975,-6.9013,-6.909,-6.8436,-6.8129,-6.7936,-6.7782,-6.7321,-6.7205,-6.7013,-6.659,-6.6282,-6.6244,-6.6205,-6.609,-6.5936,-6.5974,-6.5974,-6.5974,-6.6013,-6.5974,-6.6013,-6.5897,-6.5897,-6.5897,-6.5897,-6.5897,-6.5897,-6.5897,-6.5897,-6.5897,-6.5974,-6.609,-6.6474,-6.6628,-6.6821,-6.0757,-6.0781,-6.0757,-6.0757,-6.0734,-6.0781,-6.0781,-6.0781,-6.0781,-6.0757,-6.0734,-6.0734,-6.0681,-6.0681,-6.0556,-6.0572,-6.0622,-6.0671,-6.0734,-6.0671,-6.0647,-6.0734,-6.071,-6.0647,-6.0482,-6.0622,-6.0403,-6.0311,-6.0647,-6.0283,-6.0141,-6.0082,-6.0023,-6.0,-5.9946,-5.9139,-5.8503,-5.8097,-5.8042,-5.7997,-5.7997,-5.7997,-5.7997,-5.7997,-5.7997,-5.7997,-5.7997,-5.7997,-5.7997,-5.7997,-5.7997,-5.8217,-5.8767,-5.9134,-5.9979,-6.1153,-6.152,-6.2071,-6.2745,-6.328,-6.3841,-6.4284,-6.4367,-6.4518,-6.4481,-6.4554,-6.4769,-6.5137,-6.523,-6.58,-6.643,-6.709,-6.7898,-6.8744,-6.9271,-6.9694,-7.009,-7.0398,-6.9975,-6.9783,-7.0167,-7.0321,-6.9475,-6.8821,-6.8475,-6.8052,-6.7359,-6.7128,-6.7128,-6.7167,-6.6936,-6.6769,-6.6731,-6.6244,-6.609,-6.5936,-6.5897,-6.5897,-6.5897,-6.5897,-6.5897,-6.5897,-6.5897,-6.5897,-6.5897,-6.5897,-6.5897,-6.5897,-6.5897,-6.5897,-6.5897,-6.6051,-6.6436,-6.6667,-6.6667,-6.0161,-5.9885,-5.9885,-5.9885,-5.9946,-6.0572,-6.0781,-6.0781,-6.0781,-6.0622,-6.0403,-6.0338,-6.0125,-5.9933,-5.9932,-5.9916,-5.9946,-6.0283,-6.0338,-6.0338,-6.0338,-6.0338,-6.0283,-6.0103,-5.9946,-5.9855,-5.9696,-5.9696,-5.9855,-5.9696,-5.969,-5.9587,-5.9359,-5.9177,-5.9028,-5.8549,-5.8097,-5.8006,-5.7997,-5.7997,-5.7997,-5.7997,-5.7997,-5.7997,-5.7997,-5.7997,-5.7997,-5.7997,-5.7997,-5.7997,-5.7997,-5.8217,-5.8767,-5.9171,-6.0199,-6.1117,-6.152,-6.2475,-6.2768,-6.3051,-6.3294,-6.365,-6.3854,-6.4016,-6.4294,-6.437,-6.4518,-6.4626,-6.4833,-6.5557,-6.6353,-6.6869,-6.7691,-6.909,-6.9706,-7.0052,-7.0437,-7.0667,-7.0629,-7.0552,-7.0783,-7.0437,-6.9783,-6.9629,-6.936,-6.9013,-6.8436,-6.7628,-6.7436,-6.7821,-6.7859,-6.7616,-6.7346,-6.6692,-6.6244,-6.6013,-6.5897,-6.5897,-6.5897,-6.5897,-6.5897,-6.5897,-6.5897,-6.5897,-6.5897,-6.5897,-6.5897,-6.5897,-6.5897,-6.5897,-6.5897,-6.5897,-6.6128,-6.6205,-6.6128,-5.9681,-5.9403,-5.9397,-5.9389,-5.9492,-6.0074,-6.0311,-6.0311,-6.0311,-6.0132,-5.9885,-5.9855,-5.9726,-5.9498,-5.9393,-5.9359,-5.9432,-5.9663,-5.9855,-5.9855,-5.9855,-5.9855,-5.9722,-5.9559,-5.9559,-5.9354,-5.9212,-5.925,-5.9462,-5.9248,-5.9178,-5.9022,-5.8706,-5.8545,-5.8375,-5.815,-5.8006,-5.7997,-5.7997,-5.7997,-5.7997,-5.7997,-5.7997,-5.7997,-5.7997,-5.7997,-5.7997,-5.7997,-5.7997,-5.7997,-5.7997,-5.8143,-5.8694,-5.9501,-6.0493,-6.1117,-6.1924,-6.2732,-6.2805,-6.2805,-6.3051,-6.3248,-6.3316,-6.3453,-6.3766,-6.3723,-6.3934,-6.4138,-6.4481,-6.5154,-6.5931,-6.6476,-6.7217,-6.8587,-6.9078,-6.9385,-6.9961,-7.0124,-7.0612,-7.0651,-7.086,-7.0475,-7.0244,-7.036,-7.0283,-6.9975,-6.959,-6.8667,-6.7782,-6.809,-6.8244,-6.7885,-6.7539,-6.6821,-6.6282,-6.5974,-6.5897,-6.5897,-6.5897,-6.5897,-6.5897,-6.5897,-6.5897,-6.5897,-6.5897,-6.5897,-6.5897,-6.5897,-6.5897,-6.5897,-6.5897,-6.5897,-6.5897,-6.5897,-6.5897,-5.936,-5.9398,-5.9365,-5.9319,-5.9319,-5.9319,-5.9389,-5.9424,-5.9424,-5.9424,-5.9389,-5.9389,-5.9284,-5.929,-5.9289,-5.9215,-5.9253,-5.9325,-5.9392,-5.9389,-5.9354,-5.9354,-5.9354,-5.9248,-5.9065,-5.9065,-5.899,-5.8796,-5.9251,-5.8902,-5.8695,-5.8592,-5.8297,-5.8179,-5.8097,-5.8051,-5.7997,-5.7997,-5.7997,-5.7997,-5.7997,-5.7997,-5.7997,-5.7997,-5.7997,-5.7997,-5.7997,-5.7997,-5.7997,-5.7997,-5.7997,-5.851,-5.9134,-5.9942,-6.075,-6.1594,-6.2438,-6.2695,-6.2805,-6.2805,-6.2842,-6.2952,-6.2892,-6.2855,-6.2917,-6.3121,-6.3271,-6.3505,-6.385,-6.4622,-6.535,-6.5766,-6.618,-6.6961,-6.7566,-6.8171,-6.8897,-6.9413,-7.0076,-7.0431,-7.0755,-7.0706,-7.0706,-7.0783,-7.0667,-7.0321,-6.9821,-6.909,-6.8359,-6.8167,-6.8167,-6.7616,-6.7231,-6.6782,-6.632,-6.5936,-6.5897,-6.5897,-6.5897,-6.5897,-6.5897,-6.5897,-6.5897,-6.5897,-6.5897,-6.5897,-6.5897,-6.5897,-6.5897,-6.5897,-6.5897,-6.5897,-6.5897,-6.5897,-6.5936,-5.8698,-5.8419,-5.84,-5.8418,-5.8375,-5.8418,-5.8793,-5.9354,-5.9389,-5.9212,-5.8913,-5.8913,-5.875,-5.84,-5.8369,-5.8406,-5.854,-5.871,-5.8872,-5.8913,-5.8913,-5.8913,-5.8796,-5.8632,-5.8503,-5.8418,-5.8332,-5.8332,-5.8375,-5.8226,-5.8226,-5.8153,-5.807,-5.7997,-5.7997,-5.7997,-5.7997,-5.7997,-5.7997,-5.7997,-5.7997,-5.7997,-5.7997,-5.7997,-5.7997,-5.7997,-5.7997,-5.7997,-5.7997,-5.7997,-5.7997,-5.84,-5.9171,-6.0015,-6.086,-6.2291,-6.2732,-6.2805,-6.2805,-6.2805,-6.2805,-6.2805,-6.2805,-6.2805,-6.2805,-6.2805,-6.2867,-6.3121,-6.34,-6.4047,-6.4636,-6.5066,-6.5451,-6.5953,-6.656,-6.7241,-6.8035,-6.8849,-6.9534,-7.0345,-7.0671,-7.0898,-7.0898,-7.0898,-7.0744,-7.0475,-6.9937,-6.9167,-6.859,-6.8256,-6.7821,-6.7231,-6.7,-6.6551,-6.6244,-6.5897,-6.5897,-6.5897,-6.5897,-6.5897,-6.5897,-6.5897,-6.5897,-6.5897,-6.5897,-6.5897,-6.5897,-6.5897,-6.5897,-6.5897,-6.5897,-6.5897,-6.5897,-6.5897,-6.5897,-5.8238,-5.8006,-5.7997,-5.7997,-5.7997,-5.7997,-5.8332,-5.8796,-5.8835,-5.8673,-5.8461,-5.8418,-5.8282,-5.8051,-5.8006,-5.8006,-5.8088,-5.8282,-5.8418,-5.8418,-5.8461,-5.8418,-5.8282,-5.8186,-5.8097,-5.7997,-5.7997,-5.8051,-5.7997,-5.7997,-5.7997,-5.7997,-5.7997,-5.7997,-5.7997,-5.7997,-5.7997,-5.7997,-5.7997,-5.7997,-5.7997,-5.7997,-5.7997,-5.7997,-5.7997,-5.7997,-5.7997,-5.7997,-5.7997,-5.8107,-5.818,-5.8657,-5.9428,-6.0236,-6.1337,-6.2548,-6.2768,-6.2805,-6.2805,-6.2805,-6.2805,-6.2805,-6.2805,-6.2805,-6.2805,-6.2805,-6.2805,-6.2953,-6.3194,-6.3456,-6.3899,-6.4331,-6.4725,-6.5154,-6.5746,-6.6418,-6.7297,-6.8262,-6.9154,-7.0126,-7.0575,-7.0805,-7.0898,-7.086,-7.0514,-6.9744,-6.9013,-6.8321,-6.7859,-6.7552,-6.709,-6.6513,-6.6474,-6.6359,-6.609,-6.5897,-6.5897,-6.5897,-6.5897,-6.5897,-6.5897,-6.5897,-6.5897,-6.5897,-6.5897,-6.5897,-6.5897,-6.5897,-6.5897,-6.5897,-6.5897,-6.5897,-6.5897,-6.5897,-6.5897,-5.796,-5.7997,-5.7997,-5.7997,-5.7997,-5.795,-5.7867,-5.7904,-5.7831,-5.7867,-5.7867,-5.7867,-5.7821,-5.7498,-5.7462,-5.7642,-5.7679,-5.7831,-5.7969,-5.7997,-5.8097,-5.8097,-5.8097,-5.7997,-5.7997,-5.7997,-5.7997,-5.7997,-5.7997,-5.7997,-5.7997,-5.7997,-5.7997,-5.7997,-5.7997,-5.7997,-5.7997,-5.7997,-5.7997,-5.7997,-5.7997,-5.7997,-5.7997,-5.7997,-5.7997,-5.7997,-5.7997,-5.7997,-5.7997,-5.8253,-5.8657,-5.9134,-6.0015,-6.0896,-6.2034,-6.2475,-6.2768,-6.2805,-6.2805,-6.2805,-6.2805,-6.2805,-6.2805,-6.2805,-6.2805,-6.2805,-6.2805,-6.2805,-6.3002,-6.3051,-6.3416,-6.3501,-6.3733,-6.3965,-6.4409,-6.5096,-6.5895,-6.7109,-6.8525,-6.918,-6.9238,-6.9577,-7.0052,-6.9975,-6.9744,-6.8898,-6.8205,-6.759,-6.7244,-6.6974,-6.6551,-6.6013,-6.609,-6.6167,-6.6051,-6.5897,-6.5897,-6.5897,-6.5897,-6.5897,-6.5897,-6.5897,-6.5897,-6.5897,-6.5897,-6.5897,-6.5897,-6.5897,-6.5897,-6.5897,-6.5897,-6.5897,-6.5897,-6.5897,-6.5897,-5.7997,-5.7997,-5.7997,-5.7997,-5.7914,-5.7401,-5.7166,-5.7116,-5.6527,-5.6632,-5.7065,-5.7116,-5.6876,-5.6474,-5.6438,-5.6685,-5.7116,-5.7351,-5.7583,-5.7821,-5.795,-5.7997,-5.7997,-5.7997,-5.7997,-5.7997,-5.7997,-5.7997,-5.7997,-5.7997,-5.7997,-5.7997,-5.7997,-5.7997,-5.7997,-5.7997,-5.7997,-5.7997,-5.7997,-5.7997,-5.7997,-5.7997,-5.7997,-5.7997,-5.7997,-5.7997,-5.7997,-5.7997,-5.7997,-5.8107,-5.8804,-5.9758,-6.097,-6.1961,-6.2511,-6.2768,-6.2805,-6.2805,-6.2805,-6.2805,-6.2805,-6.2805,-6.2805,-6.2805,-6.2805,-6.2805,-6.2805,-6.2805,-6.2805,-6.2805,-6.2805,-6.2805,-6.2842,-6.2989,-6.3246,-6.3947,-6.4648,-6.6157,-6.7692,-6.7987,-6.798,-6.8348,-6.8932,-6.9052,-6.8783,-6.8321,-6.7705,-6.7167,-6.6898,-6.6628,-6.632,-6.5936,-6.5936,-6.5936,-6.5897,-6.5897,-6.5897,-6.5897,-6.5897,-6.5897,-6.5897,-6.5897,-6.5897,-6.5897,-6.5897,-6.5897,-6.5897,-6.5897,-6.5897,-6.5897,-6.5897,-6.5897,-6.5897,-6.5897,-6.5897,-5.7997,-5.7997,-5.7997,-5.7997,-5.7914,-5.7583,-5.7216,-5.6861,-5.6456,-5.6095,-5.5984,-5.615,-5.6095,-5.5724,-5.5688,-5.578,-5.6367,-5.6773,-5.7065,-5.7449,-5.7821,-5.7997,-5.7997,-5.7997,-5.7997,-5.7997,-5.7997,-5.7997,-5.7997,-5.7997,-5.7997,-5.7997,-5.7997,-5.7997,-5.7997,-5.7997,-5.7997,-5.7997,-5.7997,-5.7997,-5.7997,-5.7997,-5.7997,-5.7997,-5.7997,-5.7997,-5.7997,-5.8033,-5.8253,-5.8804,-5.9722,-6.0823,-6.1851,-6.2475,-6.2732,-6.2805,-6.2805,-6.2805,-6.2805,-6.2805,-6.2805,-6.2805,-6.2805,-6.2805,-6.2805,-6.2805,-6.2805,-6.2805,-6.2805,-6.2805,-6.2805,-6.2805,-6.2805,-6.2915,-6.3516,-6.4254,-6.472,-6.5576,-6.6935,-6.7783,-6.7706,-6.7638,-6.8196,-6.8744,-6.8398,-6.7782,-6.7167,-6.6782,-6.6513,-6.6397,-6.6051,-6.5897,-6.5897,-6.5897,-6.5897,-6.5897,-6.5897,-6.5897,-6.5897,-6.5897,-6.5897,-6.5897,-6.5897,-6.5897,-6.5897,-6.5897,-6.5897,-6.5897,-6.5897,-6.5897,-6.5897,-6.5897,-6.5897,-6.5897,-6.5897,-5.7997,-5.7997,-5.7997,-5.7997,-5.7914,-5.7726,-5.7266,-5.6721,-5.6456,-5.5645,-5.473,-5.5179,-5.5379,-5.5437,-5.5437,-5.5495,-5.568,-5.5971,-5.6418,-5.7065,-5.7546,-5.7774,-5.7914,-5.7997,-5.7997,-5.7997,-5.7997,-5.7997,-5.7997,-5.7997,-5.7997,-5.7997,-5.7997,-5.7997,-5.7997,-5.7997,-5.7997,-5.7997,-5.7997,-5.7997,-5.7997,-5.7997,-5.7997,-5.7997,-5.7997,-5.7997,-5.7997,-5.8107,-5.8437,-5.9171,-6.0236,-6.1447,-6.2291,-6.2732,-6.2768,-6.2805,-6.2805,-6.2805,-6.2805,-6.2805,-6.2805,-6.2805,-6.2805,-6.2805,-6.2805,-6.2805,-6.2805,-6.2805,-6.2805,-6.2805,-6.2805,-6.2805,-6.2805,-6.2879,-6.364,-6.4131,-6.4509,-6.4874,-6.5871,-6.6958,-6.7006,-6.6865,-6.74,-6.7948,-6.7744,-6.7167,-6.6821,-6.6474,-6.6205,-6.6128,-6.5974,-6.5897,-6.5897,-6.5897,-6.5897,-6.5897,-6.5897,-6.5897,-6.5897,-6.5897,-6.5897,-6.5897,-6.5897,-6.5897,-6.5897,-6.5897,-6.5897,-6.5897,-6.5897,-6.5897,-6.5897,-6.5897,-6.5897,-6.5897,-6.5897,-5.7997,-5.7997,-5.7997,-5.7997,-5.7821,-5.6737,-5.6059,-5.5724,-5.4668,-5.3946,-5.3881,-5.3783,-5.3881,-5.3946,-5.3881,-5.4171,-5.4826,-5.5201,-5.602,-5.6881,-5.6964,-5.7413,-5.7821,-5.795,-5.7997,-5.7997,-5.7997,-5.7997,-5.7997,-5.7997,-5.7997,-5.7997,-5.7997,-5.7997,-5.7997,-5.7997,-5.7997,-5.7997,-5.7997,-5.7997,-5.7997,-5.7997,-5.7997,-5.7997,-5.7997,-5.7997,-5.7997,-5.7997,-5.807,-5.8657,-5.9905,-6.1447,-6.2291,-6.2805,-6.2805,-6.2805,-6.2805,-6.2805,-6.2805,-6.2805,-6.2805,-6.2805,-6.2805,-6.2805,-6.2805,-6.2805,-6.2805,-6.2805,-6.2805,-6.2805,-6.2805,-6.2805,-6.2805,-6.2805,-6.3259,-6.3296,-6.3444,-6.3696,-6.4271,-6.4971,-6.5379,-6.5741,-6.6396,-6.6667,-6.6667,-6.6282,-6.6282,-6.6013,-6.6013,-6.5936,-6.5897,-6.5897,-6.5897,-6.5897,-6.5897,-6.5897,-6.5897,-6.5897,-6.5897,-6.5897,-6.5897,-6.5897,-6.5897,-6.5897,-6.5897,-6.5897,-6.5897,-6.5897,-6.5897,-6.5897,-6.5897,-6.5897,-6.5897,-6.5897,-6.5897]}]]